<?xml version="1.0" encoding="UTF-8" standalone="no" ?>
<gpx xmlns="http://www.topografix.com/GPX/1/1" xmlns:xsi="http://www.w3.org/2001/XMLSchema-instance" xsi:schemaLocation="http://www.topografix.com/GPX/1/1 http://www.topografix.com/GPX/1/1/gpx.xsd" version="1.1" creator="VisuGPX - https://www.visugpx.com">
  <metadata>
    <name>Arêtes du Plombard</name>
    <desc><![CDATA[Saint Ferréol Trente Pas - Arêtes du Plombard]]></desc>
  </metadata>
  <trk>
    <name><![CDATA[Saint Ferreol 4 mai 2019]]></name>
    <cmt><![CDATA[4 mai 2019 à 09:43:30]]></cmt>
    <trkseg>
      <trkpt lat="44.41634" lon="5.19399">
        <ele>379</ele>
        <time>2019-05-04T07:43:35Z</time>
      </trkpt>
      <trkpt lat="44.41636" lon="5.19378">
        <ele>382</ele>
        <time>2019-05-04T07:43:48Z</time>
      </trkpt>
      <trkpt lat="44.41637" lon="5.19398">
        <ele>383</ele>
        <time>2019-05-04T07:43:56Z</time>
      </trkpt>
      <trkpt lat="44.41638" lon="5.194">
        <ele>386</ele>
        <time>2019-05-04T07:44:26Z</time>
      </trkpt>
      <trkpt lat="44.41632" lon="5.19414">
        <ele>389</ele>
        <time>2019-05-04T07:44:41Z</time>
      </trkpt>
      <trkpt lat="44.41627" lon="5.19426">
        <ele>389</ele>
        <time>2019-05-04T07:44:44Z</time>
      </trkpt>
      <trkpt lat="44.41612" lon="5.1945">
        <ele>390</ele>
        <time>2019-05-04T07:44:50Z</time>
      </trkpt>
      <trkpt lat="44.41602" lon="5.19457">
        <ele>388</ele>
        <time>2019-05-04T07:44:53Z</time>
      </trkpt>
      <trkpt lat="44.41592" lon="5.19459">
        <ele>387</ele>
        <time>2019-05-04T07:44:55Z</time>
      </trkpt>
      <trkpt lat="44.41583" lon="5.19461">
        <ele>387</ele>
        <time>2019-05-04T07:44:57Z</time>
      </trkpt>
      <trkpt lat="44.4156" lon="5.19467">
        <ele>386</ele>
        <time>2019-05-04T07:45:03Z</time>
      </trkpt>
      <trkpt lat="44.41549" lon="5.19466">
        <ele>385</ele>
        <time>2019-05-04T07:45:06Z</time>
      </trkpt>
      <trkpt lat="44.41538" lon="5.19466">
        <ele>385</ele>
        <time>2019-05-04T07:45:11Z</time>
      </trkpt>
      <trkpt lat="44.41542" lon="5.1948">
        <ele>386</ele>
        <time>2019-05-04T07:45:17Z</time>
      </trkpt>
      <trkpt lat="44.41574" lon="5.1948">
        <ele>387</ele>
        <time>2019-05-04T07:45:24Z</time>
      </trkpt>
      <trkpt lat="44.41586" lon="5.19479">
        <ele>386</ele>
        <time>2019-05-04T07:45:27Z</time>
      </trkpt>
      <trkpt lat="44.41606" lon="5.19479">
        <ele>390</ele>
        <time>2019-05-04T07:45:34Z</time>
      </trkpt>
      <trkpt lat="44.41617" lon="5.19478">
        <ele>390</ele>
        <time>2019-05-04T07:45:38Z</time>
      </trkpt>
      <trkpt lat="44.41626" lon="5.19474">
        <ele>388</ele>
        <time>2019-05-04T07:45:42Z</time>
      </trkpt>
      <trkpt lat="44.41636" lon="5.19473">
        <ele>388</ele>
        <time>2019-05-04T07:45:47Z</time>
      </trkpt>
      <trkpt lat="44.41672" lon="5.1945">
        <ele>391</ele>
        <time>2019-05-04T07:46:04Z</time>
      </trkpt>
      <trkpt lat="44.41689" lon="5.19436">
        <ele>389</ele>
        <time>2019-05-04T07:46:12Z</time>
      </trkpt>
      <trkpt lat="44.41697" lon="5.19427">
        <ele>390</ele>
        <time>2019-05-04T07:46:17Z</time>
      </trkpt>
      <trkpt lat="44.41708" lon="5.19417">
        <ele>388</ele>
        <time>2019-05-04T07:46:21Z</time>
      </trkpt>
      <trkpt lat="44.41725" lon="5.19396">
        <ele>389</ele>
        <time>2019-05-04T07:46:27Z</time>
      </trkpt>
      <trkpt lat="44.41732" lon="5.19387">
        <ele>389</ele>
        <time>2019-05-04T07:46:30Z</time>
      </trkpt>
      <trkpt lat="44.41741" lon="5.19378">
        <ele>391</ele>
        <time>2019-05-04T07:46:33Z</time>
      </trkpt>
      <trkpt lat="44.41756" lon="5.19358">
        <ele>391</ele>
        <time>2019-05-04T07:46:39Z</time>
      </trkpt>
      <trkpt lat="44.41764" lon="5.19348">
        <ele>390</ele>
        <time>2019-05-04T07:46:42Z</time>
      </trkpt>
      <trkpt lat="44.41772" lon="5.19337">
        <ele>390</ele>
        <time>2019-05-04T07:46:45Z</time>
      </trkpt>
      <trkpt lat="44.41782" lon="5.19326">
        <ele>389</ele>
        <time>2019-05-04T07:46:48Z</time>
      </trkpt>
      <trkpt lat="44.41791" lon="5.19318">
        <ele>391</ele>
        <time>2019-05-04T07:46:51Z</time>
      </trkpt>
      <trkpt lat="44.41811" lon="5.19304">
        <ele>390</ele>
        <time>2019-05-04T07:46:59Z</time>
      </trkpt>
      <trkpt lat="44.41823" lon="5.19304">
        <ele>390</ele>
        <time>2019-05-04T07:47:03Z</time>
      </trkpt>
      <trkpt lat="44.41832" lon="5.19304">
        <ele>391</ele>
        <time>2019-05-04T07:47:06Z</time>
      </trkpt>
      <trkpt lat="44.41851" lon="5.19297">
        <ele>391</ele>
        <time>2019-05-04T07:47:12Z</time>
      </trkpt>
      <trkpt lat="44.41869" lon="5.19286">
        <ele>388</ele>
        <time>2019-05-04T07:47:18Z</time>
      </trkpt>
      <trkpt lat="44.4188" lon="5.19279">
        <ele>388</ele>
        <time>2019-05-04T07:47:21Z</time>
      </trkpt>
      <trkpt lat="44.41891" lon="5.19272">
        <ele>388</ele>
        <time>2019-05-04T07:47:23Z</time>
      </trkpt>
      <trkpt lat="44.41899" lon="5.19268">
        <ele>389</ele>
        <time>2019-05-04T07:47:26Z</time>
      </trkpt>
      <trkpt lat="44.41918" lon="5.19258">
        <ele>389</ele>
        <time>2019-05-04T07:47:35Z</time>
      </trkpt>
      <trkpt lat="44.41927" lon="5.19254">
        <ele>389</ele>
        <time>2019-05-04T07:47:38Z</time>
      </trkpt>
      <trkpt lat="44.41938" lon="5.19251">
        <ele>389</ele>
        <time>2019-05-04T07:47:43Z</time>
      </trkpt>
      <trkpt lat="44.41949" lon="5.19246">
        <ele>388</ele>
        <time>2019-05-04T07:47:47Z</time>
      </trkpt>
      <trkpt lat="44.41957" lon="5.19248">
        <ele>388</ele>
        <time>2019-05-04T07:47:51Z</time>
      </trkpt>
      <trkpt lat="44.41967" lon="5.1926">
        <ele>387</ele>
        <time>2019-05-04T07:47:59Z</time>
      </trkpt>
      <trkpt lat="44.41976" lon="5.19284">
        <ele>385</ele>
        <time>2019-05-04T07:48:14Z</time>
      </trkpt>
      <trkpt lat="44.41979" lon="5.19296">
        <ele>386</ele>
        <time>2019-05-04T07:48:22Z</time>
      </trkpt>
      <trkpt lat="44.4198" lon="5.1931">
        <ele>387</ele>
        <time>2019-05-04T07:48:29Z</time>
      </trkpt>
      <trkpt lat="44.41978" lon="5.19323">
        <ele>387</ele>
        <time>2019-05-04T07:48:37Z</time>
      </trkpt>
      <trkpt lat="44.41985" lon="5.19335">
        <ele>390</ele>
        <time>2019-05-04T07:48:43Z</time>
      </trkpt>
      <trkpt lat="44.41994" lon="5.1934">
        <ele>391</ele>
        <time>2019-05-04T07:48:47Z</time>
      </trkpt>
      <trkpt lat="44.42022" lon="5.19348">
        <ele>393</ele>
        <time>2019-05-04T07:49:06Z</time>
      </trkpt>
      <trkpt lat="44.42031" lon="5.1935">
        <ele>394</ele>
        <time>2019-05-04T07:49:13Z</time>
      </trkpt>
      <trkpt lat="44.42042" lon="5.19347">
        <ele>396</ele>
        <time>2019-05-04T07:49:20Z</time>
      </trkpt>
      <trkpt lat="44.42051" lon="5.19352">
        <ele>395</ele>
        <time>2019-05-04T07:49:26Z</time>
      </trkpt>
      <trkpt lat="44.42059" lon="5.1936">
        <ele>395</ele>
        <time>2019-05-04T07:49:31Z</time>
      </trkpt>
      <trkpt lat="44.42078" lon="5.1936">
        <ele>397</ele>
        <time>2019-05-04T07:49:43Z</time>
      </trkpt>
      <trkpt lat="44.42088" lon="5.19357">
        <ele>398</ele>
        <time>2019-05-04T07:49:49Z</time>
      </trkpt>
      <trkpt lat="44.42096" lon="5.19358">
        <ele>399</ele>
        <time>2019-05-04T07:49:56Z</time>
      </trkpt>
      <trkpt lat="44.42116" lon="5.1936">
        <ele>400</ele>
        <time>2019-05-04T07:50:09Z</time>
      </trkpt>
      <trkpt lat="44.42146" lon="5.19363">
        <ele>404</ele>
        <time>2019-05-04T07:50:30Z</time>
      </trkpt>
      <trkpt lat="44.42158" lon="5.19375">
        <ele>408</ele>
        <time>2019-05-04T07:50:46Z</time>
      </trkpt>
      <trkpt lat="44.42167" lon="5.19381">
        <ele>411</ele>
        <time>2019-05-04T07:50:54Z</time>
      </trkpt>
      <trkpt lat="44.42189" lon="5.19405">
        <ele>415</ele>
        <time>2019-05-04T07:51:14Z</time>
      </trkpt>
      <trkpt lat="44.42205" lon="5.19423">
        <ele>416</ele>
        <time>2019-05-04T07:51:29Z</time>
      </trkpt>
      <trkpt lat="44.42214" lon="5.19426">
        <ele>417</ele>
        <time>2019-05-04T07:51:37Z</time>
      </trkpt>
      <trkpt lat="44.42223" lon="5.19424">
        <ele>418</ele>
        <time>2019-05-04T07:51:45Z</time>
      </trkpt>
      <trkpt lat="44.42233" lon="5.19413">
        <ele>419</ele>
        <time>2019-05-04T07:51:58Z</time>
      </trkpt>
      <trkpt lat="44.42236" lon="5.19426">
        <ele>421</ele>
        <time>2019-05-04T07:52:04Z</time>
      </trkpt>
      <trkpt lat="44.42235" lon="5.19438">
        <ele>422</ele>
        <time>2019-05-04T07:52:11Z</time>
      </trkpt>
      <trkpt lat="44.42239" lon="5.1945">
        <ele>424</ele>
        <time>2019-05-04T07:52:18Z</time>
      </trkpt>
      <trkpt lat="44.42239" lon="5.1944">
        <ele>425</ele>
        <time>2019-05-04T07:52:48Z</time>
      </trkpt>
      <trkpt lat="44.42225" lon="5.19435">
        <ele>437</ele>
        <time>2019-05-04T07:54:52Z</time>
      </trkpt>
      <trkpt lat="44.42234" lon="5.19423">
        <ele>440</ele>
        <time>2019-05-04T07:55:21Z</time>
      </trkpt>
      <trkpt lat="44.42245" lon="5.1942">
        <ele>439</ele>
        <time>2019-05-04T07:55:32Z</time>
      </trkpt>
      <trkpt lat="44.42253" lon="5.19427">
        <ele>438</ele>
        <time>2019-05-04T07:55:39Z</time>
      </trkpt>
      <trkpt lat="44.42269" lon="5.19419">
        <ele>438</ele>
        <time>2019-05-04T07:56:10Z</time>
      </trkpt>
      <trkpt lat="44.42278" lon="5.19427">
        <ele>438</ele>
        <time>2019-05-04T07:56:24Z</time>
      </trkpt>
      <trkpt lat="44.42286" lon="5.19434">
        <ele>441</ele>
        <time>2019-05-04T07:56:42Z</time>
      </trkpt>
      <trkpt lat="44.42309" lon="5.19443">
        <ele>445</ele>
        <time>2019-05-04T07:57:18Z</time>
      </trkpt>
      <trkpt lat="44.42324" lon="5.19458">
        <ele>447</ele>
        <time>2019-05-04T07:57:38Z</time>
      </trkpt>
      <trkpt lat="44.42351" lon="5.19459">
        <ele>446</ele>
        <time>2019-05-04T07:58:19Z</time>
      </trkpt>
      <trkpt lat="44.42369" lon="5.19458">
        <ele>451</ele>
        <time>2019-05-04T07:59:10Z</time>
      </trkpt>
      <trkpt lat="44.42375" lon="5.19471">
        <ele>464</ele>
        <time>2019-05-04T08:00:40Z</time>
      </trkpt>
      <trkpt lat="44.42392" lon="5.19487">
        <ele>466</ele>
        <time>2019-05-04T08:00:54Z</time>
      </trkpt>
      <trkpt lat="44.42401" lon="5.19495">
        <ele>466</ele>
        <time>2019-05-04T08:00:59Z</time>
      </trkpt>
      <trkpt lat="44.4241" lon="5.19503">
        <ele>463</ele>
        <time>2019-05-04T08:01:07Z</time>
      </trkpt>
      <trkpt lat="44.42418" lon="5.1951">
        <ele>464</ele>
        <time>2019-05-04T08:01:12Z</time>
      </trkpt>
      <trkpt lat="44.42437" lon="5.19517">
        <ele>463</ele>
        <time>2019-05-04T08:01:26Z</time>
      </trkpt>
      <trkpt lat="44.42444" lon="5.19529">
        <ele>463</ele>
        <time>2019-05-04T08:01:32Z</time>
      </trkpt>
      <trkpt lat="44.42449" lon="5.1954">
        <ele>464</ele>
        <time>2019-05-04T08:01:36Z</time>
      </trkpt>
      <trkpt lat="44.42461" lon="5.19552">
        <ele>467</ele>
        <time>2019-05-04T08:01:44Z</time>
      </trkpt>
      <trkpt lat="44.42468" lon="5.19562">
        <ele>468</ele>
        <time>2019-05-04T08:01:54Z</time>
      </trkpt>
      <trkpt lat="44.42482" lon="5.1958">
        <ele>467</ele>
        <time>2019-05-04T08:02:09Z</time>
      </trkpt>
      <trkpt lat="44.42491" lon="5.19587">
        <ele>468</ele>
        <time>2019-05-04T08:02:16Z</time>
      </trkpt>
      <trkpt lat="44.425" lon="5.19594">
        <ele>468</ele>
        <time>2019-05-04T08:02:24Z</time>
      </trkpt>
      <trkpt lat="44.42514" lon="5.19612">
        <ele>471</ele>
        <time>2019-05-04T08:02:38Z</time>
      </trkpt>
      <trkpt lat="44.4252" lon="5.19623">
        <ele>471</ele>
        <time>2019-05-04T08:02:45Z</time>
      </trkpt>
      <trkpt lat="44.42537" lon="5.19638">
        <ele>475</ele>
        <time>2019-05-04T08:03:02Z</time>
      </trkpt>
      <trkpt lat="44.42545" lon="5.19647">
        <ele>475</ele>
        <time>2019-05-04T08:03:08Z</time>
      </trkpt>
      <trkpt lat="44.42565" lon="5.19665">
        <ele>478</ele>
        <time>2019-05-04T08:03:24Z</time>
      </trkpt>
      <trkpt lat="44.42581" lon="5.19675">
        <ele>478</ele>
        <time>2019-05-04T08:03:32Z</time>
      </trkpt>
      <trkpt lat="44.42595" lon="5.19694">
        <ele>479</ele>
        <time>2019-05-04T08:03:44Z</time>
      </trkpt>
      <trkpt lat="44.42608" lon="5.19717">
        <ele>481</ele>
        <time>2019-05-04T08:04:00Z</time>
      </trkpt>
      <trkpt lat="44.42631" lon="5.19742">
        <ele>484</ele>
        <time>2019-05-04T08:04:26Z</time>
      </trkpt>
      <trkpt lat="44.42639" lon="5.19748">
        <ele>485</ele>
        <time>2019-05-04T08:04:32Z</time>
      </trkpt>
      <trkpt lat="44.42667" lon="5.19787">
        <ele>487</ele>
        <time>2019-05-04T08:04:58Z</time>
      </trkpt>
      <trkpt lat="44.42673" lon="5.19799">
        <ele>488</ele>
        <time>2019-05-04T08:05:04Z</time>
      </trkpt>
      <trkpt lat="44.42672" lon="5.19813">
        <ele>488</ele>
        <time>2019-05-04T08:05:07Z</time>
      </trkpt>
      <trkpt lat="44.42672" lon="5.1983">
        <ele>488</ele>
        <time>2019-05-04T08:05:10Z</time>
      </trkpt>
      <trkpt lat="44.42682" lon="5.1984">
        <ele>489</ele>
        <time>2019-05-04T08:05:14Z</time>
      </trkpt>
      <trkpt lat="44.42692" lon="5.19845">
        <ele>489</ele>
        <time>2019-05-04T08:05:18Z</time>
      </trkpt>
      <trkpt lat="44.42709" lon="5.19852">
        <ele>490</ele>
        <time>2019-05-04T08:05:25Z</time>
      </trkpt>
      <trkpt lat="44.42716" lon="5.19861">
        <ele>490</ele>
        <time>2019-05-04T08:05:29Z</time>
      </trkpt>
      <trkpt lat="44.42718" lon="5.19875">
        <ele>491</ele>
        <time>2019-05-04T08:05:33Z</time>
      </trkpt>
      <trkpt lat="44.42723" lon="5.19902">
        <ele>494</ele>
        <time>2019-05-04T08:05:41Z</time>
      </trkpt>
      <trkpt lat="44.42728" lon="5.19916">
        <ele>495</ele>
        <time>2019-05-04T08:05:46Z</time>
      </trkpt>
      <trkpt lat="44.42735" lon="5.19929">
        <ele>494</ele>
        <time>2019-05-04T08:05:52Z</time>
      </trkpt>
      <trkpt lat="44.4274" lon="5.19942">
        <ele>496</ele>
        <time>2019-05-04T08:05:59Z</time>
      </trkpt>
      <trkpt lat="44.42738" lon="5.19956">
        <ele>497</ele>
        <time>2019-05-04T08:06:05Z</time>
      </trkpt>
      <trkpt lat="44.42739" lon="5.19969">
        <ele>500</ele>
        <time>2019-05-04T08:06:13Z</time>
      </trkpt>
      <trkpt lat="44.42741" lon="5.19981">
        <ele>500</ele>
        <time>2019-05-04T08:06:22Z</time>
      </trkpt>
      <trkpt lat="44.42726" lon="5.19974">
        <ele>503</ele>
        <time>2019-05-04T08:06:46Z</time>
      </trkpt>
      <trkpt lat="44.42699" lon="5.19956">
        <ele>510</ele>
        <time>2019-05-04T08:07:12Z</time>
      </trkpt>
      <trkpt lat="44.42693" lon="5.19946">
        <ele>511</ele>
        <time>2019-05-04T08:07:19Z</time>
      </trkpt>
      <trkpt lat="44.42685" lon="5.1994">
        <ele>512</ele>
        <time>2019-05-04T08:07:25Z</time>
      </trkpt>
      <trkpt lat="44.42687" lon="5.19961">
        <ele>514</ele>
        <time>2019-05-04T08:07:35Z</time>
      </trkpt>
      <trkpt lat="44.42695" lon="5.19978">
        <ele>515</ele>
        <time>2019-05-04T08:07:44Z</time>
      </trkpt>
      <trkpt lat="44.42702" lon="5.19988">
        <ele>515</ele>
        <time>2019-05-04T08:07:51Z</time>
      </trkpt>
      <trkpt lat="44.42706" lon="5.20001">
        <ele>516</ele>
        <time>2019-05-04T08:07:59Z</time>
      </trkpt>
      <trkpt lat="44.4271" lon="5.20028">
        <ele>519</ele>
        <time>2019-05-04T08:08:16Z</time>
      </trkpt>
      <trkpt lat="44.42711" lon="5.20068">
        <ele>524</ele>
        <time>2019-05-04T08:08:39Z</time>
      </trkpt>
      <trkpt lat="44.42706" lon="5.20084">
        <ele>524</ele>
        <time>2019-05-04T08:08:50Z</time>
      </trkpt>
      <trkpt lat="44.42692" lon="5.20119">
        <ele>527</ele>
        <time>2019-05-04T08:09:08Z</time>
      </trkpt>
      <trkpt lat="44.42693" lon="5.20126">
        <ele>537</ele>
        <time>2019-05-04T08:10:39Z</time>
      </trkpt>
      <trkpt lat="44.42694" lon="5.20142">
        <ele>536</ele>
        <time>2019-05-04T08:11:31Z</time>
      </trkpt>
      <trkpt lat="44.42694" lon="5.20163">
        <ele>536</ele>
        <time>2019-05-04T08:11:39Z</time>
      </trkpt>
      <trkpt lat="44.42694" lon="5.2018">
        <ele>536</ele>
        <time>2019-05-04T08:11:46Z</time>
      </trkpt>
      <trkpt lat="44.42693" lon="5.20206">
        <ele>539</ele>
        <time>2019-05-04T08:11:58Z</time>
      </trkpt>
      <trkpt lat="44.42698" lon="5.20217">
        <ele>541</ele>
        <time>2019-05-04T08:12:04Z</time>
      </trkpt>
      <trkpt lat="44.42703" lon="5.20227">
        <ele>541</ele>
        <time>2019-05-04T08:12:09Z</time>
      </trkpt>
      <trkpt lat="44.42718" lon="5.20251">
        <ele>542</ele>
        <time>2019-05-04T08:12:21Z</time>
      </trkpt>
      <trkpt lat="44.42745" lon="5.20278">
        <ele>544</ele>
        <time>2019-05-04T08:12:43Z</time>
      </trkpt>
      <trkpt lat="44.42754" lon="5.20293">
        <ele>544</ele>
        <time>2019-05-04T08:12:51Z</time>
      </trkpt>
      <trkpt lat="44.42761" lon="5.2031">
        <ele>544</ele>
        <time>2019-05-04T08:12:57Z</time>
      </trkpt>
      <trkpt lat="44.42768" lon="5.20337">
        <ele>546</ele>
        <time>2019-05-04T08:13:07Z</time>
      </trkpt>
      <trkpt lat="44.42772" lon="5.20349">
        <ele>546</ele>
        <time>2019-05-04T08:13:12Z</time>
      </trkpt>
      <trkpt lat="44.42773" lon="5.20363">
        <ele>546</ele>
        <time>2019-05-04T08:13:19Z</time>
      </trkpt>
      <trkpt lat="44.42771" lon="5.20378">
        <ele>548</ele>
        <time>2019-05-04T08:14:17Z</time>
      </trkpt>
      <trkpt lat="44.42758" lon="5.20388">
        <ele>553</ele>
        <time>2019-05-04T08:15:32Z</time>
      </trkpt>
      <trkpt lat="44.42751" lon="5.20396">
        <ele>555</ele>
        <time>2019-05-04T08:15:38Z</time>
      </trkpt>
      <trkpt lat="44.42746" lon="5.2041">
        <ele>556</ele>
        <time>2019-05-04T08:15:45Z</time>
      </trkpt>
      <trkpt lat="44.42738" lon="5.20416">
        <ele>556</ele>
        <time>2019-05-04T08:15:50Z</time>
      </trkpt>
      <trkpt lat="44.42736" lon="5.20428">
        <ele>557</ele>
        <time>2019-05-04T08:15:59Z</time>
      </trkpt>
      <trkpt lat="44.42738" lon="5.20442">
        <ele>557</ele>
        <time>2019-05-04T08:16:08Z</time>
      </trkpt>
      <trkpt lat="44.42735" lon="5.20463">
        <ele>557</ele>
        <time>2019-05-04T08:16:30Z</time>
      </trkpt>
      <trkpt lat="44.42735" lon="5.20477">
        <ele>558</ele>
        <time>2019-05-04T08:16:40Z</time>
      </trkpt>
      <trkpt lat="44.42741" lon="5.2049">
        <ele>558</ele>
        <time>2019-05-04T08:17:03Z</time>
      </trkpt>
      <trkpt lat="44.42742" lon="5.20505">
        <ele>561</ele>
        <time>2019-05-04T08:17:22Z</time>
      </trkpt>
      <trkpt lat="44.42743" lon="5.20517">
        <ele>561</ele>
        <time>2019-05-04T08:17:29Z</time>
      </trkpt>
      <trkpt lat="44.42743" lon="5.2053">
        <ele>562</ele>
        <time>2019-05-04T08:17:37Z</time>
      </trkpt>
      <trkpt lat="44.42744" lon="5.2056">
        <ele>564</ele>
        <time>2019-05-04T08:17:52Z</time>
      </trkpt>
      <trkpt lat="44.42747" lon="5.20572">
        <ele>565</ele>
        <time>2019-05-04T08:18:00Z</time>
      </trkpt>
      <trkpt lat="44.42748" lon="5.20585">
        <ele>566</ele>
        <time>2019-05-04T08:18:06Z</time>
      </trkpt>
      <trkpt lat="44.42749" lon="5.206">
        <ele>566</ele>
        <time>2019-05-04T08:18:12Z</time>
      </trkpt>
      <trkpt lat="44.42752" lon="5.20614">
        <ele>565</ele>
        <time>2019-05-04T08:18:16Z</time>
      </trkpt>
      <trkpt lat="44.42757" lon="5.20642">
        <ele>566</ele>
        <time>2019-05-04T08:18:23Z</time>
      </trkpt>
      <trkpt lat="44.42769" lon="5.2068">
        <ele>564</ele>
        <time>2019-05-04T08:18:32Z</time>
      </trkpt>
      <trkpt lat="44.42774" lon="5.20707">
        <ele>565</ele>
        <time>2019-05-04T08:18:38Z</time>
      </trkpt>
      <trkpt lat="44.42781" lon="5.20734">
        <ele>568</ele>
        <time>2019-05-04T08:18:47Z</time>
      </trkpt>
      <trkpt lat="44.42776" lon="5.20813">
        <ele>578</ele>
        <time>2019-05-04T08:19:22Z</time>
      </trkpt>
      <trkpt lat="44.42774" lon="5.20828">
        <ele>581</ele>
        <time>2019-05-04T08:19:30Z</time>
      </trkpt>
      <trkpt lat="44.42767" lon="5.20836">
        <ele>581</ele>
        <time>2019-05-04T08:19:38Z</time>
      </trkpt>
      <trkpt lat="44.42757" lon="5.20836">
        <ele>584</ele>
        <time>2019-05-04T08:19:45Z</time>
      </trkpt>
      <trkpt lat="44.42756" lon="5.20849">
        <ele>584</ele>
        <time>2019-05-04T08:19:53Z</time>
      </trkpt>
      <trkpt lat="44.42756" lon="5.20862">
        <ele>584</ele>
        <time>2019-05-04T08:20:00Z</time>
      </trkpt>
      <trkpt lat="44.42747" lon="5.20871">
        <ele>587</ele>
        <time>2019-05-04T08:20:07Z</time>
      </trkpt>
      <trkpt lat="44.42721" lon="5.20887">
        <ele>590</ele>
        <time>2019-05-04T08:20:18Z</time>
      </trkpt>
      <trkpt lat="44.42711" lon="5.20897">
        <ele>590</ele>
        <time>2019-05-04T08:20:22Z</time>
      </trkpt>
      <trkpt lat="44.42703" lon="5.20905">
        <ele>591</ele>
        <time>2019-05-04T08:20:26Z</time>
      </trkpt>
      <trkpt lat="44.42698" lon="5.20916">
        <ele>591</ele>
        <time>2019-05-04T08:20:30Z</time>
      </trkpt>
      <trkpt lat="44.42692" lon="5.20928">
        <ele>590</ele>
        <time>2019-05-04T08:20:35Z</time>
      </trkpt>
      <trkpt lat="44.42696" lon="5.2094">
        <ele>587</ele>
        <time>2019-05-04T08:20:45Z</time>
      </trkpt>
      <trkpt lat="44.42717" lon="5.20943">
        <ele>585</ele>
        <time>2019-05-04T08:20:51Z</time>
      </trkpt>
      <trkpt lat="44.42726" lon="5.20947">
        <ele>584</ele>
        <time>2019-05-04T08:20:55Z</time>
      </trkpt>
      <trkpt lat="44.42732" lon="5.20959">
        <ele>583</ele>
        <time>2019-05-04T08:20:59Z</time>
      </trkpt>
      <trkpt lat="44.42772" lon="5.21012">
        <ele>571</ele>
        <time>2019-05-04T08:21:21Z</time>
      </trkpt>
      <trkpt lat="44.42771" lon="5.21027">
        <ele>569</ele>
        <time>2019-05-04T08:21:27Z</time>
      </trkpt>
      <trkpt lat="44.42761" lon="5.21036">
        <ele>568</ele>
        <time>2019-05-04T08:21:32Z</time>
      </trkpt>
      <trkpt lat="44.42748" lon="5.21045">
        <ele>567</ele>
        <time>2019-05-04T08:21:42Z</time>
      </trkpt>
      <trkpt lat="44.42735" lon="5.21046">
        <ele>567</ele>
        <time>2019-05-04T08:21:48Z</time>
      </trkpt>
      <trkpt lat="44.42713" lon="5.21052">
        <ele>561</ele>
        <time>2019-05-04T08:21:56Z</time>
      </trkpt>
      <trkpt lat="44.42703" lon="5.21058">
        <ele>560</ele>
        <time>2019-05-04T08:22:00Z</time>
      </trkpt>
      <trkpt lat="44.42692" lon="5.2106">
        <ele>562</ele>
        <time>2019-05-04T08:22:05Z</time>
      </trkpt>
      <trkpt lat="44.42683" lon="5.21065">
        <ele>560</ele>
        <time>2019-05-04T08:22:09Z</time>
      </trkpt>
      <trkpt lat="44.42667" lon="5.2109">
        <ele>551</ele>
        <time>2019-05-04T08:22:17Z</time>
      </trkpt>
      <trkpt lat="44.42651" lon="5.21112">
        <ele>550</ele>
        <time>2019-05-04T08:22:23Z</time>
      </trkpt>
      <trkpt lat="44.42646" lon="5.21123">
        <ele>548</ele>
        <time>2019-05-04T08:22:26Z</time>
      </trkpt>
      <trkpt lat="44.4264" lon="5.21133">
        <ele>547</ele>
        <time>2019-05-04T08:22:29Z</time>
      </trkpt>
      <trkpt lat="44.42637" lon="5.21146">
        <ele>545</ele>
        <time>2019-05-04T08:22:32Z</time>
      </trkpt>
      <trkpt lat="44.42635" lon="5.21161">
        <ele>546</ele>
        <time>2019-05-04T08:22:35Z</time>
      </trkpt>
      <trkpt lat="44.42631" lon="5.21178">
        <ele>548</ele>
        <time>2019-05-04T08:22:38Z</time>
      </trkpt>
      <trkpt lat="44.42628" lon="5.21192">
        <ele>547</ele>
        <time>2019-05-04T08:22:41Z</time>
      </trkpt>
      <trkpt lat="44.42626" lon="5.21206">
        <ele>546</ele>
        <time>2019-05-04T08:22:45Z</time>
      </trkpt>
      <trkpt lat="44.42629" lon="5.21223">
        <ele>540</ele>
        <time>2019-05-04T08:22:54Z</time>
      </trkpt>
      <trkpt lat="44.42634" lon="5.21235">
        <ele>539</ele>
        <time>2019-05-04T08:22:58Z</time>
      </trkpt>
      <trkpt lat="44.42636" lon="5.21249">
        <ele>538</ele>
        <time>2019-05-04T08:23:01Z</time>
      </trkpt>
      <trkpt lat="44.42637" lon="5.21265">
        <ele>533</ele>
        <time>2019-05-04T08:23:05Z</time>
      </trkpt>
      <trkpt lat="44.42642" lon="5.21282">
        <ele>525</ele>
        <time>2019-05-04T08:23:16Z</time>
      </trkpt>
      <trkpt lat="44.42652" lon="5.21291">
        <ele>506</ele>
        <time>2019-05-04T08:24:12Z</time>
      </trkpt>
      <trkpt lat="44.42675" lon="5.21307">
        <ele>497</ele>
        <time>2019-05-04T08:24:47Z</time>
      </trkpt>
      <trkpt lat="44.427" lon="5.21345">
        <ele>487</ele>
        <time>2019-05-04T08:25:42Z</time>
      </trkpt>
      <trkpt lat="44.42709" lon="5.21349">
        <ele>486</ele>
        <time>2019-05-04T08:25:51Z</time>
      </trkpt>
      <trkpt lat="44.42721" lon="5.21354">
        <ele>483</ele>
        <time>2019-05-04T08:26:07Z</time>
      </trkpt>
      <trkpt lat="44.42733" lon="5.2135">
        <ele>481</ele>
        <time>2019-05-04T08:26:23Z</time>
      </trkpt>
      <trkpt lat="44.42743" lon="5.2135">
        <ele>480</ele>
        <time>2019-05-04T08:26:41Z</time>
      </trkpt>
      <trkpt lat="44.42751" lon="5.21345">
        <ele>473</ele>
        <time>2019-05-04T08:27:24Z</time>
      </trkpt>
      <trkpt lat="44.42757" lon="5.21363">
        <ele>470</ele>
        <time>2019-05-04T08:27:41Z</time>
      </trkpt>
      <trkpt lat="44.42748" lon="5.21371">
        <ele>469</ele>
        <time>2019-05-04T08:27:46Z</time>
      </trkpt>
      <trkpt lat="44.42745" lon="5.21383">
        <ele>469</ele>
        <time>2019-05-04T08:27:55Z</time>
      </trkpt>
      <trkpt lat="44.42756" lon="5.21389">
        <ele>468</ele>
        <time>2019-05-04T08:28:06Z</time>
      </trkpt>
      <trkpt lat="44.42761" lon="5.21403">
        <ele>462</ele>
        <time>2019-05-04T08:28:36Z</time>
      </trkpt>
      <trkpt lat="44.42773" lon="5.21427">
        <ele>461</ele>
        <time>2019-05-04T08:28:55Z</time>
      </trkpt>
      <trkpt lat="44.42783" lon="5.21443">
        <ele>457</ele>
        <time>2019-05-04T08:29:13Z</time>
      </trkpt>
      <trkpt lat="44.42803" lon="5.2145">
        <ele>450</ele>
        <time>2019-05-04T08:29:34Z</time>
      </trkpt>
      <trkpt lat="44.42805" lon="5.21456">
        <ele>438</ele>
        <time>2019-05-04T08:30:23Z</time>
      </trkpt>
      <trkpt lat="44.42815" lon="5.21467">
        <ele>434</ele>
        <time>2019-05-04T08:31:08Z</time>
      </trkpt>
      <trkpt lat="44.42819" lon="5.21489">
        <ele>432</ele>
        <time>2019-05-04T08:31:11Z</time>
      </trkpt>
      <trkpt lat="44.42854" lon="5.21565">
        <ele>423</ele>
        <time>2019-05-04T08:31:21Z</time>
      </trkpt>
      <trkpt lat="44.42867" lon="5.21588">
        <ele>418</ele>
        <time>2019-05-04T08:31:25Z</time>
      </trkpt>
      <trkpt lat="44.42866" lon="5.21606">
        <ele>416</ele>
        <time>2019-05-04T08:31:28Z</time>
      </trkpt>
      <trkpt lat="44.42862" lon="5.21619">
        <ele>417</ele>
        <time>2019-05-04T08:31:30Z</time>
      </trkpt>
      <trkpt lat="44.42856" lon="5.21632">
        <ele>416</ele>
        <time>2019-05-04T08:31:32Z</time>
      </trkpt>
      <trkpt lat="44.4284" lon="5.21655">
        <ele>412</ele>
        <time>2019-05-04T08:31:36Z</time>
      </trkpt>
      <trkpt lat="44.42833" lon="5.2167">
        <ele>412</ele>
        <time>2019-05-04T08:31:39Z</time>
      </trkpt>
      <trkpt lat="44.42823" lon="5.21678">
        <ele>411</ele>
        <time>2019-05-04T08:31:41Z</time>
      </trkpt>
      <trkpt lat="44.42813" lon="5.21681">
        <ele>410</ele>
        <time>2019-05-04T08:31:43Z</time>
      </trkpt>
      <trkpt lat="44.42803" lon="5.21684">
        <ele>410</ele>
        <time>2019-05-04T08:31:45Z</time>
      </trkpt>
      <trkpt lat="44.42792" lon="5.21686">
        <ele>411</ele>
        <time>2019-05-04T08:31:47Z</time>
      </trkpt>
      <trkpt lat="44.42782" lon="5.21686">
        <ele>410</ele>
        <time>2019-05-04T08:31:50Z</time>
      </trkpt>
      <trkpt lat="44.42762" lon="5.21691">
        <ele>411</ele>
        <time>2019-05-04T08:31:56Z</time>
      </trkpt>
      <trkpt lat="44.42742" lon="5.21701">
        <ele>412</ele>
        <time>2019-05-04T08:32:04Z</time>
      </trkpt>
      <trkpt lat="44.42738" lon="5.21711">
        <ele>411</ele>
        <time>2019-05-04T08:32:35Z</time>
      </trkpt>
      <trkpt lat="44.4274" lon="5.21712">
        <ele>414</ele>
        <time>2019-05-04T08:34:56Z</time>
      </trkpt>
      <trkpt lat="44.42747" lon="5.21721">
        <ele>414</ele>
        <time>2019-05-04T08:34:59Z</time>
      </trkpt>
      <trkpt lat="44.42765" lon="5.21737">
        <ele>413</ele>
        <time>2019-05-04T08:35:06Z</time>
      </trkpt>
      <trkpt lat="44.42776" lon="5.21742">
        <ele>415</ele>
        <time>2019-05-04T08:35:09Z</time>
      </trkpt>
      <trkpt lat="44.42784" lon="5.21751">
        <ele>415</ele>
        <time>2019-05-04T08:35:12Z</time>
      </trkpt>
      <trkpt lat="44.42792" lon="5.2178">
        <ele>415</ele>
        <time>2019-05-04T08:35:17Z</time>
      </trkpt>
      <trkpt lat="44.42799" lon="5.21793">
        <ele>414</ele>
        <time>2019-05-04T08:35:20Z</time>
      </trkpt>
      <trkpt lat="44.42806" lon="5.21801">
        <ele>414</ele>
        <time>2019-05-04T08:35:23Z</time>
      </trkpt>
      <trkpt lat="44.42846" lon="5.21834">
        <ele>414</ele>
        <time>2019-05-04T08:35:36Z</time>
      </trkpt>
      <trkpt lat="44.42852" lon="5.21846">
        <ele>414</ele>
        <time>2019-05-04T08:35:39Z</time>
      </trkpt>
      <trkpt lat="44.42858" lon="5.21857">
        <ele>414</ele>
        <time>2019-05-04T08:35:42Z</time>
      </trkpt>
      <trkpt lat="44.42869" lon="5.21886">
        <ele>414</ele>
        <time>2019-05-04T08:35:50Z</time>
      </trkpt>
      <trkpt lat="44.42874" lon="5.21897">
        <ele>414</ele>
        <time>2019-05-04T08:35:53Z</time>
      </trkpt>
      <trkpt lat="44.42881" lon="5.21926">
        <ele>413</ele>
        <time>2019-05-04T08:36:00Z</time>
      </trkpt>
      <trkpt lat="44.42887" lon="5.21953">
        <ele>415</ele>
        <time>2019-05-04T08:36:06Z</time>
      </trkpt>
      <trkpt lat="44.42891" lon="5.21965">
        <ele>414</ele>
        <time>2019-05-04T08:36:09Z</time>
      </trkpt>
      <trkpt lat="44.42896" lon="5.21979">
        <ele>415</ele>
        <time>2019-05-04T08:36:13Z</time>
      </trkpt>
      <trkpt lat="44.42903" lon="5.22007">
        <ele>415</ele>
        <time>2019-05-04T08:36:20Z</time>
      </trkpt>
      <trkpt lat="44.42927" lon="5.22052">
        <ele>413</ele>
        <time>2019-05-04T08:36:33Z</time>
      </trkpt>
      <trkpt lat="44.42933" lon="5.22064">
        <ele>413</ele>
        <time>2019-05-04T08:36:36Z</time>
      </trkpt>
      <trkpt lat="44.42945" lon="5.22102">
        <ele>417</ele>
        <time>2019-05-04T08:36:46Z</time>
      </trkpt>
      <trkpt lat="44.42963" lon="5.22157">
        <ele>415</ele>
        <time>2019-05-04T08:37:00Z</time>
      </trkpt>
      <trkpt lat="44.42968" lon="5.22168">
        <ele>414</ele>
        <time>2019-05-04T08:37:03Z</time>
      </trkpt>
      <trkpt lat="44.42971" lon="5.2218">
        <ele>414</ele>
        <time>2019-05-04T08:37:06Z</time>
      </trkpt>
      <trkpt lat="44.42973" lon="5.22193">
        <ele>416</ele>
        <time>2019-05-04T08:37:10Z</time>
      </trkpt>
      <trkpt lat="44.42974" lon="5.22207">
        <ele>416</ele>
        <time>2019-05-04T08:37:14Z</time>
      </trkpt>
      <trkpt lat="44.42973" lon="5.22236">
        <ele>417</ele>
        <time>2019-05-04T08:37:22Z</time>
      </trkpt>
      <trkpt lat="44.42973" lon="5.2225">
        <ele>417</ele>
        <time>2019-05-04T08:37:26Z</time>
      </trkpt>
      <trkpt lat="44.42973" lon="5.22266">
        <ele>417</ele>
        <time>2019-05-04T08:37:30Z</time>
      </trkpt>
      <trkpt lat="44.42971" lon="5.22281">
        <ele>417</ele>
        <time>2019-05-04T08:37:34Z</time>
      </trkpt>
      <trkpt lat="44.42969" lon="5.2231">
        <ele>418</ele>
        <time>2019-05-04T08:37:42Z</time>
      </trkpt>
      <trkpt lat="44.42968" lon="5.22326">
        <ele>417</ele>
        <time>2019-05-04T08:37:46Z</time>
      </trkpt>
      <trkpt lat="44.4297" lon="5.22344">
        <ele>418</ele>
        <time>2019-05-04T08:37:52Z</time>
      </trkpt>
      <trkpt lat="44.42983" lon="5.22372">
        <ele>420</ele>
        <time>2019-05-04T08:37:59Z</time>
      </trkpt>
      <trkpt lat="44.42989" lon="5.224">
        <ele>423</ele>
        <time>2019-05-04T08:38:07Z</time>
      </trkpt>
      <trkpt lat="44.42993" lon="5.22412">
        <ele>424</ele>
        <time>2019-05-04T08:38:10Z</time>
      </trkpt>
      <trkpt lat="44.42998" lon="5.22424">
        <ele>423</ele>
        <time>2019-05-04T08:38:13Z</time>
      </trkpt>
      <trkpt lat="44.43032" lon="5.22481">
        <ele>424</ele>
        <time>2019-05-04T08:38:28Z</time>
      </trkpt>
      <trkpt lat="44.43037" lon="5.22491">
        <ele>423</ele>
        <time>2019-05-04T08:38:31Z</time>
      </trkpt>
      <trkpt lat="44.43042" lon="5.22502">
        <ele>424</ele>
        <time>2019-05-04T08:38:34Z</time>
      </trkpt>
      <trkpt lat="44.43049" lon="5.22514">
        <ele>424</ele>
        <time>2019-05-04T08:38:38Z</time>
      </trkpt>
      <trkpt lat="44.43055" lon="5.22527">
        <ele>423</ele>
        <time>2019-05-04T08:38:42Z</time>
      </trkpt>
      <trkpt lat="44.4306" lon="5.22537">
        <ele>423</ele>
        <time>2019-05-04T08:38:46Z</time>
      </trkpt>
      <trkpt lat="44.43066" lon="5.22548">
        <ele>425</ele>
        <time>2019-05-04T08:38:51Z</time>
      </trkpt>
      <trkpt lat="44.43075" lon="5.22557">
        <ele>425</ele>
        <time>2019-05-04T08:38:55Z</time>
      </trkpt>
      <trkpt lat="44.43094" lon="5.22572">
        <ele>427</ele>
        <time>2019-05-04T08:39:04Z</time>
      </trkpt>
      <trkpt lat="44.43104" lon="5.22578">
        <ele>428</ele>
        <time>2019-05-04T08:39:08Z</time>
      </trkpt>
      <trkpt lat="44.4312" lon="5.22595">
        <ele>427</ele>
        <time>2019-05-04T08:39:16Z</time>
      </trkpt>
      <trkpt lat="44.43128" lon="5.22604">
        <ele>428</ele>
        <time>2019-05-04T08:39:19Z</time>
      </trkpt>
      <trkpt lat="44.43134" lon="5.22617">
        <ele>430</ele>
        <time>2019-05-04T08:39:22Z</time>
      </trkpt>
      <trkpt lat="44.43144" lon="5.2266">
        <ele>430</ele>
        <time>2019-05-04T08:39:33Z</time>
      </trkpt>
      <trkpt lat="44.4315" lon="5.22689">
        <ele>427</ele>
        <time>2019-05-04T08:39:39Z</time>
      </trkpt>
      <trkpt lat="44.43156" lon="5.22715">
        <ele>429</ele>
        <time>2019-05-04T08:39:45Z</time>
      </trkpt>
      <trkpt lat="44.43166" lon="5.2274">
        <ele>430</ele>
        <time>2019-05-04T08:39:51Z</time>
      </trkpt>
      <trkpt lat="44.43177" lon="5.2277">
        <ele>430</ele>
        <time>2019-05-04T08:39:59Z</time>
      </trkpt>
      <trkpt lat="44.43185" lon="5.22795">
        <ele>432</ele>
        <time>2019-05-04T08:40:05Z</time>
      </trkpt>
      <trkpt lat="44.43189" lon="5.22807">
        <ele>431</ele>
        <time>2019-05-04T08:40:08Z</time>
      </trkpt>
      <trkpt lat="44.43201" lon="5.22864">
        <ele>433</ele>
        <time>2019-05-04T08:40:23Z</time>
      </trkpt>
      <trkpt lat="44.43217" lon="5.22963">
        <ele>438</ele>
        <time>2019-05-04T08:40:54Z</time>
      </trkpt>
      <trkpt lat="44.43223" lon="5.22973">
        <ele>439</ele>
        <time>2019-05-04T08:40:58Z</time>
      </trkpt>
      <trkpt lat="44.43232" lon="5.22982">
        <ele>439</ele>
        <time>2019-05-04T08:41:02Z</time>
      </trkpt>
      <trkpt lat="44.4324" lon="5.22991">
        <ele>438</ele>
        <time>2019-05-04T08:41:06Z</time>
      </trkpt>
      <trkpt lat="44.43244" lon="5.23002">
        <ele>439</ele>
        <time>2019-05-04T08:41:10Z</time>
      </trkpt>
      <trkpt lat="44.43252" lon="5.23012">
        <ele>438</ele>
        <time>2019-05-04T08:41:14Z</time>
      </trkpt>
      <trkpt lat="44.4326" lon="5.23023">
        <ele>437</ele>
        <time>2019-05-04T08:41:18Z</time>
      </trkpt>
      <trkpt lat="44.43274" lon="5.23045">
        <ele>440</ele>
        <time>2019-05-04T08:41:27Z</time>
      </trkpt>
      <trkpt lat="44.43282" lon="5.23056">
        <ele>441</ele>
        <time>2019-05-04T08:41:30Z</time>
      </trkpt>
      <trkpt lat="44.43291" lon="5.23065">
        <ele>440</ele>
        <time>2019-05-04T08:41:34Z</time>
      </trkpt>
      <trkpt lat="44.43297" lon="5.23074">
        <ele>441</ele>
        <time>2019-05-04T08:41:38Z</time>
      </trkpt>
      <trkpt lat="44.43312" lon="5.2309">
        <ele>444</ele>
        <time>2019-05-04T08:41:48Z</time>
      </trkpt>
      <trkpt lat="44.43322" lon="5.23097">
        <ele>445</ele>
        <time>2019-05-04T08:41:53Z</time>
      </trkpt>
      <trkpt lat="44.4333" lon="5.23103">
        <ele>444</ele>
        <time>2019-05-04T08:41:57Z</time>
      </trkpt>
      <trkpt lat="44.43359" lon="5.23124">
        <ele>447</ele>
        <time>2019-05-04T08:42:10Z</time>
      </trkpt>
      <trkpt lat="44.43376" lon="5.23137">
        <ele>446</ele>
        <time>2019-05-04T08:42:18Z</time>
      </trkpt>
      <trkpt lat="44.43395" lon="5.2315">
        <ele>447</ele>
        <time>2019-05-04T08:42:26Z</time>
      </trkpt>
      <trkpt lat="44.43402" lon="5.23161">
        <ele>448</ele>
        <time>2019-05-04T08:42:30Z</time>
      </trkpt>
      <trkpt lat="44.43405" lon="5.23175">
        <ele>448</ele>
        <time>2019-05-04T08:42:34Z</time>
      </trkpt>
      <trkpt lat="44.43406" lon="5.23191">
        <ele>450</ele>
        <time>2019-05-04T08:42:38Z</time>
      </trkpt>
      <trkpt lat="44.43408" lon="5.23203">
        <ele>451</ele>
        <time>2019-05-04T08:42:42Z</time>
      </trkpt>
      <trkpt lat="44.43414" lon="5.23222">
        <ele>450</ele>
        <time>2019-05-04T08:42:49Z</time>
      </trkpt>
      <trkpt lat="44.43418" lon="5.23236">
        <ele>451</ele>
        <time>2019-05-04T08:42:54Z</time>
      </trkpt>
      <trkpt lat="44.43424" lon="5.23247">
        <ele>453</ele>
        <time>2019-05-04T08:42:58Z</time>
      </trkpt>
      <trkpt lat="44.43432" lon="5.23254">
        <ele>453</ele>
        <time>2019-05-04T08:43:02Z</time>
      </trkpt>
      <trkpt lat="44.43489" lon="5.23292">
        <ele>458</ele>
        <time>2019-05-04T08:43:34Z</time>
      </trkpt>
      <trkpt lat="44.43497" lon="5.233">
        <ele>458</ele>
        <time>2019-05-04T08:43:38Z</time>
      </trkpt>
      <trkpt lat="44.43504" lon="5.2331">
        <ele>458</ele>
        <time>2019-05-04T08:43:43Z</time>
      </trkpt>
      <trkpt lat="44.43514" lon="5.23338">
        <ele>461</ele>
        <time>2019-05-04T08:43:52Z</time>
      </trkpt>
      <trkpt lat="44.4352" lon="5.23351">
        <ele>460</ele>
        <time>2019-05-04T08:43:57Z</time>
      </trkpt>
      <trkpt lat="44.43527" lon="5.23377">
        <ele>461</ele>
        <time>2019-05-04T08:44:04Z</time>
      </trkpt>
      <trkpt lat="44.43531" lon="5.23388">
        <ele>461</ele>
        <time>2019-05-04T08:44:09Z</time>
      </trkpt>
      <trkpt lat="44.43537" lon="5.23419">
        <ele>463</ele>
        <time>2019-05-04T08:44:19Z</time>
      </trkpt>
      <trkpt lat="44.43541" lon="5.23431">
        <ele>464</ele>
        <time>2019-05-04T08:44:22Z</time>
      </trkpt>
      <trkpt lat="44.43553" lon="5.23454">
        <ele>465</ele>
        <time>2019-05-04T08:44:30Z</time>
      </trkpt>
      <trkpt lat="44.43557" lon="5.23467">
        <ele>465</ele>
        <time>2019-05-04T08:44:34Z</time>
      </trkpt>
      <trkpt lat="44.43561" lon="5.23481">
        <ele>465</ele>
        <time>2019-05-04T08:44:38Z</time>
      </trkpt>
      <trkpt lat="44.43564" lon="5.23497">
        <ele>467</ele>
        <time>2019-05-04T08:44:44Z</time>
      </trkpt>
      <trkpt lat="44.43567" lon="5.23511">
        <ele>466</ele>
        <time>2019-05-04T08:44:48Z</time>
      </trkpt>
      <trkpt lat="44.43567" lon="5.23527">
        <ele>467</ele>
        <time>2019-05-04T08:44:52Z</time>
      </trkpt>
      <trkpt lat="44.43574" lon="5.23541">
        <ele>467</ele>
        <time>2019-05-04T08:44:58Z</time>
      </trkpt>
      <trkpt lat="44.43579" lon="5.23552">
        <ele>469</ele>
        <time>2019-05-04T08:45:03Z</time>
      </trkpt>
      <trkpt lat="44.43582" lon="5.23566">
        <ele>469</ele>
        <time>2019-05-04T08:45:09Z</time>
      </trkpt>
      <trkpt lat="44.43589" lon="5.23576">
        <ele>469</ele>
        <time>2019-05-04T08:45:12Z</time>
      </trkpt>
      <trkpt lat="44.43618" lon="5.23603">
        <ele>468</ele>
        <time>2019-05-04T08:45:21Z</time>
      </trkpt>
      <trkpt lat="44.43639" lon="5.23615">
        <ele>471</ele>
        <time>2019-05-04T08:45:27Z</time>
      </trkpt>
      <trkpt lat="44.43649" lon="5.2362">
        <ele>471</ele>
        <time>2019-05-04T08:45:30Z</time>
      </trkpt>
      <trkpt lat="44.43659" lon="5.23624">
        <ele>471</ele>
        <time>2019-05-04T08:45:33Z</time>
      </trkpt>
      <trkpt lat="44.43679" lon="5.23631">
        <ele>473</ele>
        <time>2019-05-04T08:45:39Z</time>
      </trkpt>
      <trkpt lat="44.43688" lon="5.23633">
        <ele>472</ele>
        <time>2019-05-04T08:45:42Z</time>
      </trkpt>
      <trkpt lat="44.43698" lon="5.23635">
        <ele>473</ele>
        <time>2019-05-04T08:45:45Z</time>
      </trkpt>
      <trkpt lat="44.43717" lon="5.23637">
        <ele>473</ele>
        <time>2019-05-04T08:45:51Z</time>
      </trkpt>
      <trkpt lat="44.43727" lon="5.23637">
        <ele>472</ele>
        <time>2019-05-04T08:45:54Z</time>
      </trkpt>
      <trkpt lat="44.43737" lon="5.23638">
        <ele>473</ele>
        <time>2019-05-04T08:45:57Z</time>
      </trkpt>
      <trkpt lat="44.43748" lon="5.23637">
        <ele>473</ele>
        <time>2019-05-04T08:46:00Z</time>
      </trkpt>
      <trkpt lat="44.43759" lon="5.23634">
        <ele>474</ele>
        <time>2019-05-04T08:46:03Z</time>
      </trkpt>
      <trkpt lat="44.4377" lon="5.2363">
        <ele>475</ele>
        <time>2019-05-04T08:46:06Z</time>
      </trkpt>
      <trkpt lat="44.43782" lon="5.23632">
        <ele>475</ele>
        <time>2019-05-04T08:46:09Z</time>
      </trkpt>
      <trkpt lat="44.43793" lon="5.23637">
        <ele>475</ele>
        <time>2019-05-04T08:46:12Z</time>
      </trkpt>
      <trkpt lat="44.43805" lon="5.23639">
        <ele>474</ele>
        <time>2019-05-04T08:46:15Z</time>
      </trkpt>
      <trkpt lat="44.43818" lon="5.2364">
        <ele>473</ele>
        <time>2019-05-04T08:46:18Z</time>
      </trkpt>
      <trkpt lat="44.43831" lon="5.23641">
        <ele>474</ele>
        <time>2019-05-04T08:46:21Z</time>
      </trkpt>
      <trkpt lat="44.43844" lon="5.23641">
        <ele>474</ele>
        <time>2019-05-04T08:46:24Z</time>
      </trkpt>
      <trkpt lat="44.43853" lon="5.23643">
        <ele>473</ele>
        <time>2019-05-04T08:46:26Z</time>
      </trkpt>
      <trkpt lat="44.43901" lon="5.23641">
        <ele>474</ele>
        <time>2019-05-04T08:46:39Z</time>
      </trkpt>
      <trkpt lat="44.4391" lon="5.23639">
        <ele>475</ele>
        <time>2019-05-04T08:46:43Z</time>
      </trkpt>
      <trkpt lat="44.439" lon="5.23657">
        <ele>473</ele>
        <time>2019-05-04T08:46:49Z</time>
      </trkpt>
      <trkpt lat="44.43892" lon="5.23664">
        <ele>471</ele>
        <time>2019-05-04T08:46:51Z</time>
      </trkpt>
      <trkpt lat="44.43877" lon="5.23685">
        <ele>469</ele>
        <time>2019-05-04T08:46:55Z</time>
      </trkpt>
      <trkpt lat="44.43881" lon="5.23713">
        <ele>469</ele>
        <time>2019-05-04T08:46:57Z</time>
      </trkpt>
      <trkpt lat="44.43872" lon="5.23727">
        <ele>469</ele>
        <time>2019-05-04T08:46:59Z</time>
      </trkpt>
      <trkpt lat="44.43862" lon="5.23744">
        <ele>467</ele>
        <time>2019-05-04T08:47:01Z</time>
      </trkpt>
      <trkpt lat="44.43858" lon="5.23761">
        <ele>463</ele>
        <time>2019-05-04T08:47:03Z</time>
      </trkpt>
      <trkpt lat="44.43855" lon="5.23781">
        <ele>463</ele>
        <time>2019-05-04T08:47:05Z</time>
      </trkpt>
      <trkpt lat="44.43854" lon="5.23795">
        <ele>463</ele>
        <time>2019-05-04T08:47:06Z</time>
      </trkpt>
      <trkpt lat="44.43853" lon="5.2381">
        <ele>463</ele>
        <time>2019-05-04T08:47:07Z</time>
      </trkpt>
      <trkpt lat="44.43852" lon="5.23824">
        <ele>462</ele>
        <time>2019-05-04T08:47:08Z</time>
      </trkpt>
      <trkpt lat="44.43851" lon="5.23836">
        <ele>462</ele>
        <time>2019-05-04T08:47:10Z</time>
      </trkpt>
      <trkpt lat="44.43844" lon="5.23859">
        <ele>462</ele>
        <time>2019-05-04T08:47:12Z</time>
      </trkpt>
      <trkpt lat="44.43838" lon="5.23868">
        <ele>461</ele>
        <time>2019-05-04T08:47:14Z</time>
      </trkpt>
      <trkpt lat="44.43831" lon="5.23878">
        <ele>461</ele>
        <time>2019-05-04T08:47:16Z</time>
      </trkpt>
      <trkpt lat="44.43826" lon="5.23894">
        <ele>462</ele>
        <time>2019-05-04T08:47:20Z</time>
      </trkpt>
      <trkpt lat="44.43828" lon="5.23954">
        <ele>466</ele>
        <time>2019-05-04T08:47:33Z</time>
      </trkpt>
      <trkpt lat="44.4383" lon="5.23974">
        <ele>467</ele>
        <time>2019-05-04T08:47:41Z</time>
      </trkpt>
      <trkpt lat="44.43824" lon="5.23987">
        <ele>466</ele>
        <time>2019-05-04T08:47:44Z</time>
      </trkpt>
      <trkpt lat="44.4383" lon="5.23997">
        <ele>469</ele>
        <time>2019-05-04T08:47:48Z</time>
      </trkpt>
      <trkpt lat="44.43837" lon="5.24007">
        <ele>470</ele>
        <time>2019-05-04T08:47:53Z</time>
      </trkpt>
      <trkpt lat="44.43861" lon="5.24045">
        <ele>471</ele>
        <time>2019-05-04T08:48:12Z</time>
      </trkpt>
      <trkpt lat="44.43881" lon="5.2407">
        <ele>480</ele>
        <time>2019-05-04T08:48:35Z</time>
      </trkpt>
      <trkpt lat="44.43905" lon="5.24091">
        <ele>490</ele>
        <time>2019-05-04T08:48:56Z</time>
      </trkpt>
      <trkpt lat="44.43914" lon="5.24097">
        <ele>487</ele>
        <time>2019-05-04T08:49:03Z</time>
      </trkpt>
      <trkpt lat="44.43935" lon="5.24117">
        <ele>490</ele>
        <time>2019-05-04T08:49:21Z</time>
      </trkpt>
      <trkpt lat="44.4394" lon="5.24122">
        <ele>490</ele>
        <time>2019-05-04T08:49:26Z</time>
      </trkpt>
      <trkpt lat="44.43946" lon="5.24132">
        <ele>489</ele>
        <time>2019-05-04T08:49:35Z</time>
      </trkpt>
      <trkpt lat="44.43946" lon="5.24144">
        <ele>489</ele>
        <time>2019-05-04T08:49:41Z</time>
      </trkpt>
      <trkpt lat="44.43956" lon="5.24148">
        <ele>492</ele>
        <time>2019-05-04T08:49:48Z</time>
      </trkpt>
      <trkpt lat="44.43952" lon="5.24163">
        <ele>496</ele>
        <time>2019-05-04T08:49:56Z</time>
      </trkpt>
      <trkpt lat="44.43945" lon="5.24169">
        <ele>495</ele>
        <time>2019-05-04T08:50:02Z</time>
      </trkpt>
      <trkpt lat="44.43936" lon="5.24161">
        <ele>494</ele>
        <time>2019-05-04T08:50:14Z</time>
      </trkpt>
      <trkpt lat="44.43928" lon="5.24154">
        <ele>493</ele>
        <time>2019-05-04T08:50:21Z</time>
      </trkpt>
      <trkpt lat="44.4392" lon="5.24148">
        <ele>494</ele>
        <time>2019-05-04T08:50:29Z</time>
      </trkpt>
      <trkpt lat="44.43911" lon="5.24141">
        <ele>494</ele>
        <time>2019-05-04T08:50:35Z</time>
      </trkpt>
      <trkpt lat="44.43903" lon="5.24133">
        <ele>496</ele>
        <time>2019-05-04T08:50:43Z</time>
      </trkpt>
      <trkpt lat="44.43895" lon="5.24128">
        <ele>495</ele>
        <time>2019-05-04T08:50:51Z</time>
      </trkpt>
      <trkpt lat="44.43886" lon="5.24127">
        <ele>497</ele>
        <time>2019-05-04T08:50:59Z</time>
      </trkpt>
      <trkpt lat="44.43876" lon="5.24125">
        <ele>497</ele>
        <time>2019-05-04T08:51:06Z</time>
      </trkpt>
      <trkpt lat="44.43856" lon="5.24124">
        <ele>499</ele>
        <time>2019-05-04T08:51:18Z</time>
      </trkpt>
      <trkpt lat="44.43846" lon="5.24128">
        <ele>502</ele>
        <time>2019-05-04T08:51:23Z</time>
      </trkpt>
      <trkpt lat="44.43837" lon="5.24132">
        <ele>502</ele>
        <time>2019-05-04T08:51:28Z</time>
      </trkpt>
      <trkpt lat="44.43818" lon="5.24138">
        <ele>504</ele>
        <time>2019-05-04T08:51:39Z</time>
      </trkpt>
      <trkpt lat="44.43809" lon="5.24136">
        <ele>505</ele>
        <time>2019-05-04T08:51:45Z</time>
      </trkpt>
      <trkpt lat="44.438" lon="5.24138">
        <ele>506</ele>
        <time>2019-05-04T08:51:55Z</time>
      </trkpt>
      <trkpt lat="44.43794" lon="5.24148">
        <ele>508</ele>
        <time>2019-05-04T08:52:03Z</time>
      </trkpt>
      <trkpt lat="44.43786" lon="5.24156">
        <ele>510</ele>
        <time>2019-05-04T08:52:10Z</time>
      </trkpt>
      <trkpt lat="44.43778" lon="5.24163">
        <ele>510</ele>
        <time>2019-05-04T08:52:16Z</time>
      </trkpt>
      <trkpt lat="44.43762" lon="5.24177">
        <ele>512</ele>
        <time>2019-05-04T08:52:28Z</time>
      </trkpt>
      <trkpt lat="44.43766" lon="5.24188">
        <ele>513</ele>
        <time>2019-05-04T08:52:37Z</time>
      </trkpt>
      <trkpt lat="44.43777" lon="5.24184">
        <ele>515</ele>
        <time>2019-05-04T08:52:44Z</time>
      </trkpt>
      <trkpt lat="44.43785" lon="5.24178">
        <ele>516</ele>
        <time>2019-05-04T08:52:52Z</time>
      </trkpt>
      <trkpt lat="44.43794" lon="5.24178">
        <ele>518</ele>
        <time>2019-05-04T08:53:01Z</time>
      </trkpt>
      <trkpt lat="44.43803" lon="5.24182">
        <ele>519</ele>
        <time>2019-05-04T08:53:08Z</time>
      </trkpt>
      <trkpt lat="44.43832" lon="5.24189">
        <ele>525</ele>
        <time>2019-05-04T08:53:30Z</time>
      </trkpt>
      <trkpt lat="44.43841" lon="5.24192">
        <ele>525</ele>
        <time>2019-05-04T08:53:37Z</time>
      </trkpt>
      <trkpt lat="44.43859" lon="5.24196">
        <ele>527</ele>
        <time>2019-05-04T08:53:50Z</time>
      </trkpt>
      <trkpt lat="44.43865" lon="5.24206">
        <ele>527</ele>
        <time>2019-05-04T08:53:59Z</time>
      </trkpt>
      <trkpt lat="44.43857" lon="5.24217">
        <ele>529</ele>
        <time>2019-05-04T08:54:06Z</time>
      </trkpt>
      <trkpt lat="44.43848" lon="5.24214">
        <ele>530</ele>
        <time>2019-05-04T08:54:13Z</time>
      </trkpt>
      <trkpt lat="44.43839" lon="5.24209">
        <ele>531</ele>
        <time>2019-05-04T08:54:19Z</time>
      </trkpt>
      <trkpt lat="44.43829" lon="5.24211">
        <ele>533</ele>
        <time>2019-05-04T08:54:26Z</time>
      </trkpt>
      <trkpt lat="44.43813" lon="5.24222">
        <ele>536</ele>
        <time>2019-05-04T08:54:42Z</time>
      </trkpt>
      <trkpt lat="44.43795" lon="5.2423">
        <ele>538</ele>
        <time>2019-05-04T08:54:54Z</time>
      </trkpt>
      <trkpt lat="44.43789" lon="5.24238">
        <ele>539</ele>
        <time>2019-05-04T08:55:03Z</time>
      </trkpt>
      <trkpt lat="44.43799" lon="5.24241">
        <ele>540</ele>
        <time>2019-05-04T08:55:13Z</time>
      </trkpt>
      <trkpt lat="44.43808" lon="5.24235">
        <ele>540</ele>
        <time>2019-05-04T08:55:19Z</time>
      </trkpt>
      <trkpt lat="44.43816" lon="5.24232">
        <ele>541</ele>
        <time>2019-05-04T08:55:29Z</time>
      </trkpt>
      <trkpt lat="44.43826" lon="5.24237">
        <ele>541</ele>
        <time>2019-05-04T08:55:38Z</time>
      </trkpt>
      <trkpt lat="44.4385" lon="5.2426">
        <ele>544</ele>
        <time>2019-05-04T08:55:58Z</time>
      </trkpt>
      <trkpt lat="44.43856" lon="5.24269">
        <ele>546</ele>
        <time>2019-05-04T08:56:05Z</time>
      </trkpt>
      <trkpt lat="44.43866" lon="5.24276">
        <ele>548</ele>
        <time>2019-05-04T08:56:15Z</time>
      </trkpt>
      <trkpt lat="44.43873" lon="5.2428">
        <ele>548</ele>
        <time>2019-05-04T08:56:22Z</time>
      </trkpt>
      <trkpt lat="44.43892" lon="5.24289">
        <ele>548</ele>
        <time>2019-05-04T08:56:36Z</time>
      </trkpt>
      <trkpt lat="44.43899" lon="5.24298">
        <ele>548</ele>
        <time>2019-05-04T08:56:43Z</time>
      </trkpt>
      <trkpt lat="44.43915" lon="5.24313">
        <ele>548</ele>
        <time>2019-05-04T08:56:58Z</time>
      </trkpt>
      <trkpt lat="44.43912" lon="5.24327">
        <ele>551</ele>
        <time>2019-05-04T08:57:08Z</time>
      </trkpt>
      <trkpt lat="44.43903" lon="5.24323">
        <ele>552</ele>
        <time>2019-05-04T08:57:13Z</time>
      </trkpt>
      <trkpt lat="44.4389" lon="5.24323">
        <ele>553</ele>
        <time>2019-05-04T08:57:24Z</time>
      </trkpt>
      <trkpt lat="44.43873" lon="5.24314">
        <ele>555</ele>
        <time>2019-05-04T08:57:35Z</time>
      </trkpt>
      <trkpt lat="44.43865" lon="5.24321">
        <ele>557</ele>
        <time>2019-05-04T08:57:42Z</time>
      </trkpt>
      <trkpt lat="44.43871" lon="5.2433">
        <ele>560</ele>
        <time>2019-05-04T08:57:50Z</time>
      </trkpt>
      <trkpt lat="44.4389" lon="5.24334">
        <ele>561</ele>
        <time>2019-05-04T08:58:03Z</time>
      </trkpt>
      <trkpt lat="44.43903" lon="5.24339">
        <ele>562</ele>
        <time>2019-05-04T08:58:20Z</time>
      </trkpt>
      <trkpt lat="44.43903" lon="5.24355">
        <ele>563</ele>
        <time>2019-05-04T08:58:26Z</time>
      </trkpt>
      <trkpt lat="44.43905" lon="5.24381">
        <ele>566</ele>
        <time>2019-05-04T08:58:38Z</time>
      </trkpt>
      <trkpt lat="44.43906" lon="5.24395">
        <ele>566</ele>
        <time>2019-05-04T08:58:46Z</time>
      </trkpt>
      <trkpt lat="44.4391" lon="5.24406">
        <ele>567</ele>
        <time>2019-05-04T08:58:54Z</time>
      </trkpt>
      <trkpt lat="44.43918" lon="5.24415">
        <ele>569</ele>
        <time>2019-05-04T08:59:02Z</time>
      </trkpt>
      <trkpt lat="44.43922" lon="5.24427">
        <ele>569</ele>
        <time>2019-05-04T08:59:08Z</time>
      </trkpt>
      <trkpt lat="44.43914" lon="5.24437">
        <ele>573</ele>
        <time>2019-05-04T08:59:17Z</time>
      </trkpt>
      <trkpt lat="44.43907" lon="5.24426">
        <ele>573</ele>
        <time>2019-05-04T08:59:23Z</time>
      </trkpt>
      <trkpt lat="44.43898" lon="5.24412">
        <ele>574</ele>
        <time>2019-05-04T08:59:33Z</time>
      </trkpt>
      <trkpt lat="44.43889" lon="5.24389">
        <ele>574</ele>
        <time>2019-05-04T08:59:45Z</time>
      </trkpt>
      <trkpt lat="44.4388" lon="5.24384">
        <ele>575</ele>
        <time>2019-05-04T08:59:52Z</time>
      </trkpt>
      <trkpt lat="44.4387" lon="5.24387">
        <ele>577</ele>
        <time>2019-05-04T08:59:59Z</time>
      </trkpt>
      <trkpt lat="44.43853" lon="5.244">
        <ele>583</ele>
        <time>2019-05-04T09:00:13Z</time>
      </trkpt>
      <trkpt lat="44.43844" lon="5.24407">
        <ele>583</ele>
        <time>2019-05-04T09:00:20Z</time>
      </trkpt>
      <trkpt lat="44.43827" lon="5.24423">
        <ele>585</ele>
        <time>2019-05-04T09:00:34Z</time>
      </trkpt>
      <trkpt lat="44.43821" lon="5.24433">
        <ele>585</ele>
        <time>2019-05-04T09:00:41Z</time>
      </trkpt>
      <trkpt lat="44.43816" lon="5.24444">
        <ele>585</ele>
        <time>2019-05-04T09:00:47Z</time>
      </trkpt>
      <trkpt lat="44.43813" lon="5.24458">
        <ele>585</ele>
        <time>2019-05-04T09:00:55Z</time>
      </trkpt>
      <trkpt lat="44.43809" lon="5.2447">
        <ele>587</ele>
        <time>2019-05-04T09:01:00Z</time>
      </trkpt>
      <trkpt lat="44.43788" lon="5.24501">
        <ele>592</ele>
        <time>2019-05-04T09:01:21Z</time>
      </trkpt>
      <trkpt lat="44.4379" lon="5.24513">
        <ele>592</ele>
        <time>2019-05-04T09:01:28Z</time>
      </trkpt>
      <trkpt lat="44.438" lon="5.24513">
        <ele>595</ele>
        <time>2019-05-04T09:01:36Z</time>
      </trkpt>
      <trkpt lat="44.43808" lon="5.24506">
        <ele>595</ele>
        <time>2019-05-04T09:01:46Z</time>
      </trkpt>
      <trkpt lat="44.43816" lon="5.24494">
        <ele>597</ele>
        <time>2019-05-04T09:01:56Z</time>
      </trkpt>
      <trkpt lat="44.43825" lon="5.24494">
        <ele>599</ele>
        <time>2019-05-04T09:02:04Z</time>
      </trkpt>
      <trkpt lat="44.43833" lon="5.24501">
        <ele>600</ele>
        <time>2019-05-04T09:02:11Z</time>
      </trkpt>
      <trkpt lat="44.43835" lon="5.24515">
        <ele>602</ele>
        <time>2019-05-04T09:02:18Z</time>
      </trkpt>
      <trkpt lat="44.43828" lon="5.24525">
        <ele>603</ele>
        <time>2019-05-04T09:02:25Z</time>
      </trkpt>
      <trkpt lat="44.4382" lon="5.24533">
        <ele>604</ele>
        <time>2019-05-04T09:02:31Z</time>
      </trkpt>
      <trkpt lat="44.43814" lon="5.24558">
        <ele>607</ele>
        <time>2019-05-04T09:02:47Z</time>
      </trkpt>
      <trkpt lat="44.43793" lon="5.24588">
        <ele>611</ele>
        <time>2019-05-04T09:03:09Z</time>
      </trkpt>
      <trkpt lat="44.43796" lon="5.246">
        <ele>611</ele>
        <time>2019-05-04T09:03:16Z</time>
      </trkpt>
      <trkpt lat="44.43806" lon="5.24601">
        <ele>614</ele>
        <time>2019-05-04T09:03:24Z</time>
      </trkpt>
      <trkpt lat="44.43813" lon="5.24591">
        <ele>614</ele>
        <time>2019-05-04T09:03:31Z</time>
      </trkpt>
      <trkpt lat="44.43827" lon="5.24582">
        <ele>615</ele>
        <time>2019-05-04T09:03:43Z</time>
      </trkpt>
      <trkpt lat="44.43837" lon="5.2457">
        <ele>617</ele>
        <time>2019-05-04T09:03:57Z</time>
      </trkpt>
      <trkpt lat="44.43847" lon="5.24567">
        <ele>617</ele>
        <time>2019-05-04T09:04:05Z</time>
      </trkpt>
      <trkpt lat="44.43856" lon="5.24578">
        <ele>618</ele>
        <time>2019-05-04T09:04:11Z</time>
      </trkpt>
      <trkpt lat="44.43848" lon="5.24588">
        <ele>620</ele>
        <time>2019-05-04T09:04:21Z</time>
      </trkpt>
      <trkpt lat="44.43843" lon="5.24599">
        <ele>620</ele>
        <time>2019-05-04T09:04:28Z</time>
      </trkpt>
      <trkpt lat="44.43842" lon="5.24612">
        <ele>621</ele>
        <time>2019-05-04T09:04:34Z</time>
      </trkpt>
      <trkpt lat="44.43836" lon="5.24623">
        <ele>622</ele>
        <time>2019-05-04T09:04:41Z</time>
      </trkpt>
      <trkpt lat="44.43831" lon="5.24633">
        <ele>623</ele>
        <time>2019-05-04T09:04:48Z</time>
      </trkpt>
      <trkpt lat="44.4382" lon="5.24659">
        <ele>625</ele>
        <time>2019-05-04T09:05:02Z</time>
      </trkpt>
      <trkpt lat="44.43814" lon="5.24671">
        <ele>626</ele>
        <time>2019-05-04T09:05:08Z</time>
      </trkpt>
      <trkpt lat="44.43809" lon="5.24682">
        <ele>626</ele>
        <time>2019-05-04T09:05:14Z</time>
      </trkpt>
      <trkpt lat="44.43804" lon="5.24693">
        <ele>627</ele>
        <time>2019-05-04T09:05:21Z</time>
      </trkpt>
      <trkpt lat="44.43795" lon="5.24745">
        <ele>630</ele>
        <time>2019-05-04T09:05:48Z</time>
      </trkpt>
      <trkpt lat="44.43782" lon="5.2478">
        <ele>632</ele>
        <time>2019-05-04T09:06:06Z</time>
      </trkpt>
      <trkpt lat="44.43782" lon="5.24806">
        <ele>634</ele>
        <time>2019-05-04T09:06:20Z</time>
      </trkpt>
      <trkpt lat="44.43782" lon="5.24822">
        <ele>634</ele>
        <time>2019-05-04T09:06:25Z</time>
      </trkpt>
      <trkpt lat="44.43785" lon="5.24835">
        <ele>635</ele>
        <time>2019-05-04T09:06:30Z</time>
      </trkpt>
      <trkpt lat="44.43797" lon="5.24858">
        <ele>635</ele>
        <time>2019-05-04T09:06:39Z</time>
      </trkpt>
      <trkpt lat="44.43841" lon="5.24919">
        <ele>638</ele>
        <time>2019-05-04T09:06:59Z</time>
      </trkpt>
      <trkpt lat="44.43845" lon="5.24923">
        <ele>647</ele>
        <time>2019-05-04T09:12:16Z</time>
      </trkpt>
      <trkpt lat="44.43848" lon="5.24932">
        <ele>648</ele>
        <time>2019-05-04T09:15:06Z</time>
      </trkpt>
      <trkpt lat="44.43847" lon="5.24951">
        <ele>647</ele>
        <time>2019-05-04T09:23:12Z</time>
      </trkpt>
      <trkpt lat="44.43848" lon="5.2497">
        <ele>647</ele>
        <time>2019-05-04T09:23:32Z</time>
      </trkpt>
      <trkpt lat="44.43848" lon="5.24983">
        <ele>646</ele>
        <time>2019-05-04T09:23:36Z</time>
      </trkpt>
      <trkpt lat="44.43848" lon="5.24996">
        <ele>646</ele>
        <time>2019-05-04T09:23:40Z</time>
      </trkpt>
      <trkpt lat="44.43855" lon="5.2501">
        <ele>646</ele>
        <time>2019-05-04T09:23:44Z</time>
      </trkpt>
      <trkpt lat="44.43877" lon="5.2502">
        <ele>647</ele>
        <time>2019-05-04T09:23:50Z</time>
      </trkpt>
      <trkpt lat="44.43887" lon="5.25028">
        <ele>648</ele>
        <time>2019-05-04T09:23:53Z</time>
      </trkpt>
      <trkpt lat="44.43891" lon="5.25044">
        <ele>648</ele>
        <time>2019-05-04T09:23:56Z</time>
      </trkpt>
      <trkpt lat="44.43889" lon="5.25058">
        <ele>647</ele>
        <time>2019-05-04T09:23:59Z</time>
      </trkpt>
      <trkpt lat="44.43879" lon="5.25075">
        <ele>647</ele>
        <time>2019-05-04T09:24:06Z</time>
      </trkpt>
      <trkpt lat="44.43869" lon="5.2508">
        <ele>647</ele>
        <time>2019-05-04T09:24:11Z</time>
      </trkpt>
      <trkpt lat="44.43858" lon="5.25102">
        <ele>651</ele>
        <time>2019-05-04T09:24:25Z</time>
      </trkpt>
      <trkpt lat="44.43835" lon="5.25103">
        <ele>659</ele>
        <time>2019-05-04T09:24:52Z</time>
      </trkpt>
      <trkpt lat="44.43826" lon="5.25103">
        <ele>658</ele>
        <time>2019-05-04T09:25:01Z</time>
      </trkpt>
      <trkpt lat="44.43815" lon="5.25102">
        <ele>659</ele>
        <time>2019-05-04T09:25:07Z</time>
      </trkpt>
      <trkpt lat="44.43798" lon="5.25093">
        <ele>661</ele>
        <time>2019-05-04T09:25:23Z</time>
      </trkpt>
      <trkpt lat="44.4379" lon="5.25088">
        <ele>663</ele>
        <time>2019-05-04T09:25:30Z</time>
      </trkpt>
      <trkpt lat="44.43775" lon="5.25071">
        <ele>667</ele>
        <time>2019-05-04T09:25:46Z</time>
      </trkpt>
      <trkpt lat="44.43768" lon="5.25062">
        <ele>666</ele>
        <time>2019-05-04T09:25:53Z</time>
      </trkpt>
      <trkpt lat="44.43759" lon="5.25054">
        <ele>665</ele>
        <time>2019-05-04T09:25:59Z</time>
      </trkpt>
      <trkpt lat="44.43742" lon="5.25045">
        <ele>666</ele>
        <time>2019-05-04T09:26:15Z</time>
      </trkpt>
      <trkpt lat="44.43734" lon="5.2504">
        <ele>667</ele>
        <time>2019-05-04T09:26:21Z</time>
      </trkpt>
      <trkpt lat="44.43727" lon="5.2503">
        <ele>668</ele>
        <time>2019-05-04T09:26:28Z</time>
      </trkpt>
      <trkpt lat="44.43707" lon="5.25009">
        <ele>668</ele>
        <time>2019-05-04T09:26:38Z</time>
      </trkpt>
      <trkpt lat="44.43699" lon="5.25001">
        <ele>669</ele>
        <time>2019-05-04T09:26:42Z</time>
      </trkpt>
      <trkpt lat="44.43682" lon="5.24984">
        <ele>669</ele>
        <time>2019-05-04T09:26:49Z</time>
      </trkpt>
      <trkpt lat="44.43675" lon="5.24975">
        <ele>669</ele>
        <time>2019-05-04T09:26:52Z</time>
      </trkpt>
      <trkpt lat="44.4366" lon="5.24955">
        <ele>669</ele>
        <time>2019-05-04T09:26:58Z</time>
      </trkpt>
      <trkpt lat="44.43651" lon="5.24949">
        <ele>669</ele>
        <time>2019-05-04T09:27:02Z</time>
      </trkpt>
      <trkpt lat="44.43635" lon="5.24936">
        <ele>669</ele>
        <time>2019-05-04T09:27:09Z</time>
      </trkpt>
      <trkpt lat="44.43626" lon="5.24931">
        <ele>669</ele>
        <time>2019-05-04T09:27:16Z</time>
      </trkpt>
      <trkpt lat="44.43615" lon="5.2493">
        <ele>669</ele>
        <time>2019-05-04T09:27:21Z</time>
      </trkpt>
      <trkpt lat="44.43599" lon="5.24938">
        <ele>670</ele>
        <time>2019-05-04T09:27:32Z</time>
      </trkpt>
      <trkpt lat="44.43587" lon="5.24939">
        <ele>673</ele>
        <time>2019-05-04T09:27:45Z</time>
      </trkpt>
      <trkpt lat="44.43575" lon="5.24936">
        <ele>672</ele>
        <time>2019-05-04T09:28:02Z</time>
      </trkpt>
      <trkpt lat="44.43566" lon="5.24943">
        <ele>673</ele>
        <time>2019-05-04T09:28:09Z</time>
      </trkpt>
      <trkpt lat="44.43575" lon="5.24966">
        <ele>676</ele>
        <time>2019-05-04T09:28:40Z</time>
      </trkpt>
      <trkpt lat="44.43576" lon="5.2498">
        <ele>678</ele>
        <time>2019-05-04T09:28:54Z</time>
      </trkpt>
      <trkpt lat="44.43574" lon="5.24994">
        <ele>679</ele>
        <time>2019-05-04T09:29:17Z</time>
      </trkpt>
      <trkpt lat="44.43563" lon="5.25019">
        <ele>680</ele>
        <time>2019-05-04T09:29:24Z</time>
      </trkpt>
      <trkpt lat="44.43559" lon="5.25031">
        <ele>682</ele>
        <time>2019-05-04T09:29:28Z</time>
      </trkpt>
      <trkpt lat="44.43555" lon="5.25045">
        <ele>682</ele>
        <time>2019-05-04T09:29:33Z</time>
      </trkpt>
      <trkpt lat="44.4355" lon="5.25061">
        <ele>681</ele>
        <time>2019-05-04T09:29:41Z</time>
      </trkpt>
      <trkpt lat="44.43544" lon="5.25073">
        <ele>682</ele>
        <time>2019-05-04T09:29:48Z</time>
      </trkpt>
      <trkpt lat="44.43539" lon="5.25084">
        <ele>682</ele>
        <time>2019-05-04T09:29:54Z</time>
      </trkpt>
      <trkpt lat="44.43537" lon="5.25098">
        <ele>683</ele>
        <time>2019-05-04T09:30:01Z</time>
      </trkpt>
      <trkpt lat="44.43532" lon="5.25109">
        <ele>684</ele>
        <time>2019-05-04T09:30:07Z</time>
      </trkpt>
      <trkpt lat="44.43528" lon="5.25121">
        <ele>684</ele>
        <time>2019-05-04T09:30:13Z</time>
      </trkpt>
      <trkpt lat="44.43521" lon="5.25131">
        <ele>685</ele>
        <time>2019-05-04T09:30:18Z</time>
      </trkpt>
      <trkpt lat="44.43516" lon="5.25142">
        <ele>686</ele>
        <time>2019-05-04T09:30:25Z</time>
      </trkpt>
      <trkpt lat="44.43495" lon="5.25203">
        <ele>691</ele>
        <time>2019-05-04T09:30:59Z</time>
      </trkpt>
      <trkpt lat="44.4349" lon="5.25214">
        <ele>691</ele>
        <time>2019-05-04T09:31:05Z</time>
      </trkpt>
      <trkpt lat="44.43482" lon="5.25265">
        <ele>696</ele>
        <time>2019-05-04T09:31:36Z</time>
      </trkpt>
      <trkpt lat="44.43474" lon="5.25274">
        <ele>698</ele>
        <time>2019-05-04T09:31:44Z</time>
      </trkpt>
      <trkpt lat="44.43465" lon="5.25278">
        <ele>698</ele>
        <time>2019-05-04T09:31:51Z</time>
      </trkpt>
      <trkpt lat="44.43457" lon="5.25286">
        <ele>699</ele>
        <time>2019-05-04T09:31:59Z</time>
      </trkpt>
      <trkpt lat="44.43428" lon="5.25298">
        <ele>705</ele>
        <time>2019-05-04T09:32:26Z</time>
      </trkpt>
      <trkpt lat="44.43421" lon="5.25309">
        <ele>704</ele>
        <time>2019-05-04T09:32:36Z</time>
      </trkpt>
      <trkpt lat="44.43416" lon="5.25324">
        <ele>709</ele>
        <time>2019-05-04T09:33:00Z</time>
      </trkpt>
      <trkpt lat="44.43423" lon="5.25345">
        <ele>710</ele>
        <time>2019-05-04T09:33:29Z</time>
      </trkpt>
      <trkpt lat="44.4343" lon="5.25357">
        <ele>711</ele>
        <time>2019-05-04T09:33:45Z</time>
      </trkpt>
      <trkpt lat="44.43439" lon="5.25369">
        <ele>714</ele>
        <time>2019-05-04T09:34:03Z</time>
      </trkpt>
      <trkpt lat="44.43448" lon="5.25372">
        <ele>716</ele>
        <time>2019-05-04T09:34:16Z</time>
      </trkpt>
      <trkpt lat="44.43457" lon="5.25398">
        <ele>725</ele>
        <time>2019-05-04T09:34:52Z</time>
      </trkpt>
      <trkpt lat="44.43463" lon="5.25409">
        <ele>725</ele>
        <time>2019-05-04T09:35:10Z</time>
      </trkpt>
      <trkpt lat="44.4347" lon="5.25418">
        <ele>728</ele>
        <time>2019-05-04T09:35:19Z</time>
      </trkpt>
      <trkpt lat="44.4349" lon="5.25431">
        <ele>734</ele>
        <time>2019-05-04T09:35:50Z</time>
      </trkpt>
      <trkpt lat="44.43519" lon="5.25445">
        <ele>736</ele>
        <time>2019-05-04T09:36:19Z</time>
      </trkpt>
      <trkpt lat="44.43528" lon="5.25443">
        <ele>739</ele>
        <time>2019-05-04T09:36:28Z</time>
      </trkpt>
      <trkpt lat="44.43538" lon="5.25448">
        <ele>745</ele>
        <time>2019-05-04T09:37:12Z</time>
      </trkpt>
      <trkpt lat="44.43544" lon="5.25463">
        <ele>746</ele>
        <time>2019-05-04T09:37:27Z</time>
      </trkpt>
      <trkpt lat="44.43553" lon="5.2547">
        <ele>747</ele>
        <time>2019-05-04T09:37:36Z</time>
      </trkpt>
      <trkpt lat="44.43562" lon="5.25473">
        <ele>749</ele>
        <time>2019-05-04T09:37:43Z</time>
      </trkpt>
      <trkpt lat="44.43561" lon="5.25488">
        <ele>750</ele>
        <time>2019-05-04T09:37:55Z</time>
      </trkpt>
      <trkpt lat="44.43557" lon="5.25502">
        <ele>750</ele>
        <time>2019-05-04T09:38:05Z</time>
      </trkpt>
      <trkpt lat="44.43554" lon="5.25517">
        <ele>752</ele>
        <time>2019-05-04T09:38:12Z</time>
      </trkpt>
      <trkpt lat="44.43549" lon="5.25528">
        <ele>753</ele>
        <time>2019-05-04T09:38:18Z</time>
      </trkpt>
      <trkpt lat="44.43545" lon="5.25538">
        <ele>756</ele>
        <time>2019-05-04T09:38:34Z</time>
      </trkpt>
      <trkpt lat="44.43538" lon="5.25553">
        <ele>758</ele>
        <time>2019-05-04T09:38:53Z</time>
      </trkpt>
      <trkpt lat="44.43529" lon="5.25558">
        <ele>759</ele>
        <time>2019-05-04T09:39:03Z</time>
      </trkpt>
      <trkpt lat="44.43521" lon="5.25564">
        <ele>761</ele>
        <time>2019-05-04T09:39:19Z</time>
      </trkpt>
      <trkpt lat="44.43519" lon="5.25581">
        <ele>762</ele>
        <time>2019-05-04T09:39:33Z</time>
      </trkpt>
      <trkpt lat="44.43528" lon="5.25613">
        <ele>765</ele>
        <time>2019-05-04T09:40:02Z</time>
      </trkpt>
      <trkpt lat="44.43523" lon="5.25626">
        <ele>772</ele>
        <time>2019-05-04T09:40:22Z</time>
      </trkpt>
      <trkpt lat="44.43512" lon="5.25631">
        <ele>774</ele>
        <time>2019-05-04T09:40:35Z</time>
      </trkpt>
      <trkpt lat="44.43507" lon="5.25642">
        <ele>774</ele>
        <time>2019-05-04T09:41:00Z</time>
      </trkpt>
      <trkpt lat="44.43497" lon="5.25641">
        <ele>774</ele>
        <time>2019-05-04T09:41:09Z</time>
      </trkpt>
      <trkpt lat="44.43484" lon="5.25645">
        <ele>777</ele>
        <time>2019-05-04T09:41:18Z</time>
      </trkpt>
      <trkpt lat="44.43471" lon="5.25654">
        <ele>778</ele>
        <time>2019-05-04T09:41:36Z</time>
      </trkpt>
      <trkpt lat="44.43461" lon="5.25665">
        <ele>777</ele>
        <time>2019-05-04T09:41:46Z</time>
      </trkpt>
      <trkpt lat="44.43451" lon="5.25667">
        <ele>778</ele>
        <time>2019-05-04T09:41:52Z</time>
      </trkpt>
      <trkpt lat="44.43443" lon="5.25669">
        <ele>778</ele>
        <time>2019-05-04T09:41:58Z</time>
      </trkpt>
      <trkpt lat="44.4343" lon="5.25666">
        <ele>780</ele>
        <time>2019-05-04T09:42:16Z</time>
      </trkpt>
      <trkpt lat="44.4341" lon="5.25681">
        <ele>779</ele>
        <time>2019-05-04T09:42:36Z</time>
      </trkpt>
      <trkpt lat="44.43406" lon="5.2569">
        <ele>783</ele>
        <time>2019-05-04T09:42:44Z</time>
      </trkpt>
      <trkpt lat="44.43396" lon="5.25698">
        <ele>782</ele>
        <time>2019-05-04T09:42:54Z</time>
      </trkpt>
      <trkpt lat="44.43378" lon="5.25711">
        <ele>785</ele>
        <time>2019-05-04T09:43:03Z</time>
      </trkpt>
      <trkpt lat="44.4337" lon="5.25709">
        <ele>786</ele>
        <time>2019-05-04T09:43:12Z</time>
      </trkpt>
      <trkpt lat="44.43363" lon="5.25706">
        <ele>792</ele>
        <time>2019-05-04T09:44:44Z</time>
      </trkpt>
      <trkpt lat="44.43352" lon="5.25696">
        <ele>795</ele>
        <time>2019-05-04T09:45:18Z</time>
      </trkpt>
      <trkpt lat="44.43345" lon="5.25685">
        <ele>795</ele>
        <time>2019-05-04T09:45:21Z</time>
      </trkpt>
      <trkpt lat="44.43339" lon="5.25672">
        <ele>794</ele>
        <time>2019-05-04T09:45:24Z</time>
      </trkpt>
      <trkpt lat="44.43332" lon="5.2566">
        <ele>793</ele>
        <time>2019-05-04T09:45:28Z</time>
      </trkpt>
      <trkpt lat="44.43296" lon="5.25659">
        <ele>790</ele>
        <time>2019-05-04T09:45:37Z</time>
      </trkpt>
      <trkpt lat="44.43253" lon="5.2563">
        <ele>788</ele>
        <time>2019-05-04T09:45:45Z</time>
      </trkpt>
      <trkpt lat="44.43243" lon="5.2563">
        <ele>788</ele>
        <time>2019-05-04T09:45:47Z</time>
      </trkpt>
      <trkpt lat="44.43231" lon="5.25629">
        <ele>787</ele>
        <time>2019-05-04T09:45:52Z</time>
      </trkpt>
      <trkpt lat="44.43221" lon="5.25625">
        <ele>787</ele>
        <time>2019-05-04T09:45:56Z</time>
      </trkpt>
      <trkpt lat="44.4321" lon="5.25623">
        <ele>786</ele>
        <time>2019-05-04T09:45:59Z</time>
      </trkpt>
      <trkpt lat="44.43201" lon="5.25623">
        <ele>786</ele>
        <time>2019-05-04T09:46:02Z</time>
      </trkpt>
      <trkpt lat="44.43196" lon="5.25632">
        <ele>783</ele>
        <time>2019-05-04T09:46:11Z</time>
      </trkpt>
      <trkpt lat="44.43191" lon="5.25643">
        <ele>782</ele>
        <time>2019-05-04T09:46:19Z</time>
      </trkpt>
      <trkpt lat="44.43184" lon="5.25652">
        <ele>783</ele>
        <time>2019-05-04T09:47:04Z</time>
      </trkpt>
      <trkpt lat="44.43195" lon="5.25657">
        <ele>783</ele>
        <time>2019-05-04T09:47:11Z</time>
      </trkpt>
      <trkpt lat="44.43222" lon="5.25668">
        <ele>782</ele>
        <time>2019-05-04T09:47:21Z</time>
      </trkpt>
      <trkpt lat="44.43232" lon="5.25679">
        <ele>782</ele>
        <time>2019-05-04T09:47:25Z</time>
      </trkpt>
      <trkpt lat="44.43242" lon="5.2569">
        <ele>782</ele>
        <time>2019-05-04T09:47:28Z</time>
      </trkpt>
      <trkpt lat="44.43255" lon="5.25727">
        <ele>779</ele>
        <time>2019-05-04T09:47:39Z</time>
      </trkpt>
      <trkpt lat="44.43261" lon="5.25756">
        <ele>776</ele>
        <time>2019-05-04T09:47:47Z</time>
      </trkpt>
      <trkpt lat="44.43265" lon="5.25772">
        <ele>776</ele>
        <time>2019-05-04T09:47:51Z</time>
      </trkpt>
      <trkpt lat="44.43269" lon="5.25843">
        <ele>772</ele>
        <time>2019-05-04T09:48:08Z</time>
      </trkpt>
      <trkpt lat="44.43269" lon="5.25856">
        <ele>771</ele>
        <time>2019-05-04T09:48:11Z</time>
      </trkpt>
      <trkpt lat="44.43276" lon="5.25865">
        <ele>769</ele>
        <time>2019-05-04T09:48:14Z</time>
      </trkpt>
      <trkpt lat="44.43286" lon="5.2587">
        <ele>767</ele>
        <time>2019-05-04T09:48:18Z</time>
      </trkpt>
      <trkpt lat="44.43302" lon="5.25891">
        <ele>766</ele>
        <time>2019-05-04T09:48:26Z</time>
      </trkpt>
      <trkpt lat="44.43325" lon="5.25928">
        <ele>760</ele>
        <time>2019-05-04T09:48:40Z</time>
      </trkpt>
      <trkpt lat="44.43331" lon="5.2594">
        <ele>758</ele>
        <time>2019-05-04T09:48:44Z</time>
      </trkpt>
      <trkpt lat="44.43336" lon="5.25951">
        <ele>760</ele>
        <time>2019-05-04T09:48:48Z</time>
      </trkpt>
      <trkpt lat="44.43342" lon="5.25961">
        <ele>757</ele>
        <time>2019-05-04T09:48:52Z</time>
      </trkpt>
      <trkpt lat="44.43349" lon="5.25971">
        <ele>757</ele>
        <time>2019-05-04T09:48:55Z</time>
      </trkpt>
      <trkpt lat="44.43372" lon="5.25996">
        <ele>753</ele>
        <time>2019-05-04T09:49:04Z</time>
      </trkpt>
      <trkpt lat="44.43384" lon="5.26003">
        <ele>751</ele>
        <time>2019-05-04T09:49:07Z</time>
      </trkpt>
      <trkpt lat="44.43392" lon="5.2601">
        <ele>751</ele>
        <time>2019-05-04T09:49:10Z</time>
      </trkpt>
      <trkpt lat="44.43402" lon="5.2602">
        <ele>750</ele>
        <time>2019-05-04T09:49:14Z</time>
      </trkpt>
      <trkpt lat="44.43411" lon="5.26027">
        <ele>750</ele>
        <time>2019-05-04T09:49:17Z</time>
      </trkpt>
      <trkpt lat="44.43446" lon="5.26042">
        <ele>744</ele>
        <time>2019-05-04T09:49:30Z</time>
      </trkpt>
      <trkpt lat="44.43458" lon="5.26043">
        <ele>743</ele>
        <time>2019-05-04T09:49:36Z</time>
      </trkpt>
      <trkpt lat="44.43466" lon="5.26055">
        <ele>740</ele>
        <time>2019-05-04T09:49:54Z</time>
      </trkpt>
      <trkpt lat="44.43486" lon="5.26073">
        <ele>738</ele>
        <time>2019-05-04T09:50:07Z</time>
      </trkpt>
      <trkpt lat="44.43493" lon="5.26084">
        <ele>735</ele>
        <time>2019-05-04T09:50:13Z</time>
      </trkpt>
      <trkpt lat="44.43501" lon="5.2609">
        <ele>734</ele>
        <time>2019-05-04T09:50:20Z</time>
      </trkpt>
      <trkpt lat="44.43505" lon="5.261">
        <ele>733</ele>
        <time>2019-05-04T09:50:26Z</time>
      </trkpt>
      <trkpt lat="44.43502" lon="5.26114">
        <ele>732</ele>
        <time>2019-05-04T09:50:44Z</time>
      </trkpt>
      <trkpt lat="44.43494" lon="5.26128">
        <ele>729</ele>
        <time>2019-05-04T09:50:55Z</time>
      </trkpt>
      <trkpt lat="44.43495" lon="5.26141">
        <ele>723</ele>
        <time>2019-05-04T09:51:24Z</time>
      </trkpt>
      <trkpt lat="44.43491" lon="5.26154">
        <ele>717</ele>
        <time>2019-05-04T09:51:58Z</time>
      </trkpt>
      <trkpt lat="44.43478" lon="5.26183">
        <ele>715</ele>
        <time>2019-05-04T09:52:14Z</time>
      </trkpt>
      <trkpt lat="44.43473" lon="5.26198">
        <ele>715</ele>
        <time>2019-05-04T09:52:17Z</time>
      </trkpt>
      <trkpt lat="44.4347" lon="5.26212">
        <ele>715</ele>
        <time>2019-05-04T09:52:20Z</time>
      </trkpt>
      <trkpt lat="44.43467" lon="5.26226">
        <ele>716</ele>
        <time>2019-05-04T09:52:24Z</time>
      </trkpt>
      <trkpt lat="44.43455" lon="5.26254">
        <ele>715</ele>
        <time>2019-05-04T09:52:32Z</time>
      </trkpt>
      <trkpt lat="44.43449" lon="5.26268">
        <ele>713</ele>
        <time>2019-05-04T09:52:36Z</time>
      </trkpt>
      <trkpt lat="44.43445" lon="5.26282">
        <ele>711</ele>
        <time>2019-05-04T09:52:40Z</time>
      </trkpt>
      <trkpt lat="44.43444" lon="5.26297">
        <ele>709</ele>
        <time>2019-05-04T09:52:44Z</time>
      </trkpt>
      <trkpt lat="44.43447" lon="5.26311">
        <ele>710</ele>
        <time>2019-05-04T09:52:49Z</time>
      </trkpt>
      <trkpt lat="44.43455" lon="5.26325">
        <ele>708</ele>
        <time>2019-05-04T09:52:55Z</time>
      </trkpt>
      <trkpt lat="44.43464" lon="5.26334">
        <ele>709</ele>
        <time>2019-05-04T09:52:59Z</time>
      </trkpt>
      <trkpt lat="44.43473" lon="5.26341">
        <ele>709</ele>
        <time>2019-05-04T09:53:02Z</time>
      </trkpt>
      <trkpt lat="44.43481" lon="5.26348">
        <ele>706</ele>
        <time>2019-05-04T09:53:05Z</time>
      </trkpt>
      <trkpt lat="44.4349" lon="5.26358">
        <ele>706</ele>
        <time>2019-05-04T09:53:09Z</time>
      </trkpt>
      <trkpt lat="44.43497" lon="5.26367">
        <ele>705</ele>
        <time>2019-05-04T09:53:13Z</time>
      </trkpt>
      <trkpt lat="44.43507" lon="5.26374">
        <ele>703</ele>
        <time>2019-05-04T09:53:17Z</time>
      </trkpt>
      <trkpt lat="44.43517" lon="5.26381">
        <ele>703</ele>
        <time>2019-05-04T09:53:20Z</time>
      </trkpt>
      <trkpt lat="44.43518" lon="5.26396">
        <ele>701</ele>
        <time>2019-05-04T09:53:24Z</time>
      </trkpt>
      <trkpt lat="44.43516" lon="5.2641">
        <ele>701</ele>
        <time>2019-05-04T09:53:28Z</time>
      </trkpt>
      <trkpt lat="44.43516" lon="5.26424">
        <ele>699</ele>
        <time>2019-05-04T09:53:33Z</time>
      </trkpt>
      <trkpt lat="44.43514" lon="5.26472">
        <ele>698</ele>
        <time>2019-05-04T09:53:43Z</time>
      </trkpt>
      <trkpt lat="44.43516" lon="5.26529">
        <ele>696</ele>
        <time>2019-05-04T09:53:56Z</time>
      </trkpt>
      <trkpt lat="44.43511" lon="5.26545">
        <ele>696</ele>
        <time>2019-05-04T09:54:01Z</time>
      </trkpt>
      <trkpt lat="44.4351" lon="5.26559">
        <ele>695</ele>
        <time>2019-05-04T09:54:05Z</time>
      </trkpt>
      <trkpt lat="44.43508" lon="5.26572">
        <ele>693</ele>
        <time>2019-05-04T09:54:09Z</time>
      </trkpt>
      <trkpt lat="44.43508" lon="5.26586">
        <ele>692</ele>
        <time>2019-05-04T09:54:13Z</time>
      </trkpt>
      <trkpt lat="44.43505" lon="5.26622">
        <ele>685</ele>
        <time>2019-05-04T09:54:31Z</time>
      </trkpt>
      <trkpt lat="44.43508" lon="5.26648">
        <ele>686</ele>
        <time>2019-05-04T09:54:38Z</time>
      </trkpt>
      <trkpt lat="44.43521" lon="5.26667">
        <ele>686</ele>
        <time>2019-05-04T09:54:48Z</time>
      </trkpt>
      <trkpt lat="44.43538" lon="5.26684">
        <ele>682</ele>
        <time>2019-05-04T09:54:59Z</time>
      </trkpt>
      <trkpt lat="44.43549" lon="5.26689">
        <ele>682</ele>
        <time>2019-05-04T09:55:04Z</time>
      </trkpt>
      <trkpt lat="44.43559" lon="5.26692">
        <ele>682</ele>
        <time>2019-05-04T09:55:08Z</time>
      </trkpt>
      <trkpt lat="44.43569" lon="5.26694">
        <ele>682</ele>
        <time>2019-05-04T09:55:13Z</time>
      </trkpt>
      <trkpt lat="44.43579" lon="5.26689">
        <ele>681</ele>
        <time>2019-05-04T09:55:16Z</time>
      </trkpt>
      <trkpt lat="44.4359" lon="5.26685">
        <ele>681</ele>
        <time>2019-05-04T09:55:18Z</time>
      </trkpt>
      <trkpt lat="44.43625" lon="5.26686">
        <ele>677</ele>
        <time>2019-05-04T09:55:26Z</time>
      </trkpt>
      <trkpt lat="44.43649" lon="5.26693">
        <ele>677</ele>
        <time>2019-05-04T09:55:27Z</time>
      </trkpt>
      <trkpt lat="44.43653" lon="5.26683">
        <ele>677</ele>
        <time>2019-05-04T09:55:33Z</time>
      </trkpt>
      <trkpt lat="44.43669" lon="5.26685">
        <ele>677</ele>
        <time>2019-05-04T09:55:42Z</time>
      </trkpt>
      <trkpt lat="44.43679" lon="5.26688">
        <ele>676</ele>
        <time>2019-05-04T09:55:44Z</time>
      </trkpt>
      <trkpt lat="44.43707" lon="5.26694">
        <ele>675</ele>
        <time>2019-05-04T09:55:53Z</time>
      </trkpt>
      <trkpt lat="44.43741" lon="5.26699">
        <ele>670</ele>
        <time>2019-05-04T09:56:03Z</time>
      </trkpt>
      <trkpt lat="44.43751" lon="5.26696">
        <ele>665</ele>
        <time>2019-05-04T09:56:07Z</time>
      </trkpt>
      <trkpt lat="44.43762" lon="5.26688">
        <ele>662</ele>
        <time>2019-05-04T09:56:10Z</time>
      </trkpt>
      <trkpt lat="44.43771" lon="5.26681">
        <ele>663</ele>
        <time>2019-05-04T09:56:13Z</time>
      </trkpt>
      <trkpt lat="44.4378" lon="5.2667">
        <ele>662</ele>
        <time>2019-05-04T09:56:17Z</time>
      </trkpt>
      <trkpt lat="44.43788" lon="5.26668">
        <ele>670</ele>
        <time>2019-05-04T09:56:22Z</time>
      </trkpt>
      <trkpt lat="44.43792" lon="5.26688">
        <ele>660</ele>
        <time>2019-05-04T09:56:29Z</time>
      </trkpt>
      <trkpt lat="44.438" lon="5.2671">
        <ele>656</ele>
        <time>2019-05-04T09:56:42Z</time>
      </trkpt>
      <trkpt lat="44.43814" lon="5.26716">
        <ele>653</ele>
        <time>2019-05-04T09:56:51Z</time>
      </trkpt>
      <trkpt lat="44.43819" lon="5.26727">
        <ele>653</ele>
        <time>2019-05-04T09:56:58Z</time>
      </trkpt>
      <trkpt lat="44.43816" lon="5.26741">
        <ele>652</ele>
        <time>2019-05-04T09:57:05Z</time>
      </trkpt>
      <trkpt lat="44.43819" lon="5.26753">
        <ele>651</ele>
        <time>2019-05-04T09:57:08Z</time>
      </trkpt>
      <trkpt lat="44.43821" lon="5.26768">
        <ele>654</ele>
        <time>2019-05-04T09:57:11Z</time>
      </trkpt>
      <trkpt lat="44.43823" lon="5.26784">
        <ele>652</ele>
        <time>2019-05-04T09:57:15Z</time>
      </trkpt>
      <trkpt lat="44.4382" lon="5.26796">
        <ele>649</ele>
        <time>2019-05-04T09:57:19Z</time>
      </trkpt>
      <trkpt lat="44.43817" lon="5.26811">
        <ele>646</ele>
        <time>2019-05-04T09:57:24Z</time>
      </trkpt>
      <trkpt lat="44.43819" lon="5.26828">
        <ele>645</ele>
        <time>2019-05-04T09:57:28Z</time>
      </trkpt>
      <trkpt lat="44.43818" lon="5.26843">
        <ele>644</ele>
        <time>2019-05-04T09:57:31Z</time>
      </trkpt>
      <trkpt lat="44.43817" lon="5.26877">
        <ele>647</ele>
        <time>2019-05-04T09:57:37Z</time>
      </trkpt>
      <trkpt lat="44.43821" lon="5.26906">
        <ele>643</ele>
        <time>2019-05-04T09:57:44Z</time>
      </trkpt>
      <trkpt lat="44.43836" lon="5.26949">
        <ele>629</ele>
        <time>2019-05-04T09:58:00Z</time>
      </trkpt>
      <trkpt lat="44.43852" lon="5.26964">
        <ele>626</ele>
        <time>2019-05-04T09:58:11Z</time>
      </trkpt>
      <trkpt lat="44.43858" lon="5.26975">
        <ele>624</ele>
        <time>2019-05-04T09:58:16Z</time>
      </trkpt>
      <trkpt lat="44.43867" lon="5.26982">
        <ele>622</ele>
        <time>2019-05-04T09:58:20Z</time>
      </trkpt>
      <trkpt lat="44.43876" lon="5.26988">
        <ele>622</ele>
        <time>2019-05-04T09:58:23Z</time>
      </trkpt>
      <trkpt lat="44.43894" lon="5.2699">
        <ele>619</ele>
        <time>2019-05-04T09:58:31Z</time>
      </trkpt>
      <trkpt lat="44.43904" lon="5.2699">
        <ele>620</ele>
        <time>2019-05-04T09:58:35Z</time>
      </trkpt>
      <trkpt lat="44.43913" lon="5.26996">
        <ele>619</ele>
        <time>2019-05-04T09:58:44Z</time>
      </trkpt>
      <trkpt lat="44.4392" lon="5.27007">
        <ele>619</ele>
        <time>2019-05-04T09:58:49Z</time>
      </trkpt>
      <trkpt lat="44.43926" lon="5.27019">
        <ele>619</ele>
        <time>2019-05-04T09:58:54Z</time>
      </trkpt>
      <trkpt lat="44.4393" lon="5.27034">
        <ele>621</ele>
        <time>2019-05-04T09:59:03Z</time>
      </trkpt>
      <trkpt lat="44.4392" lon="5.27046">
        <ele>621</ele>
        <time>2019-05-04T09:59:09Z</time>
      </trkpt>
      <trkpt lat="44.43909" lon="5.27052">
        <ele>620</ele>
        <time>2019-05-04T09:59:13Z</time>
      </trkpt>
      <trkpt lat="44.43905" lon="5.27064">
        <ele>616</ele>
        <time>2019-05-04T09:59:16Z</time>
      </trkpt>
      <trkpt lat="44.43907" lon="5.27087">
        <ele>616</ele>
        <time>2019-05-04T09:59:24Z</time>
      </trkpt>
      <trkpt lat="44.43897" lon="5.27096">
        <ele>615</ele>
        <time>2019-05-04T10:00:46Z</time>
      </trkpt>
      <trkpt lat="44.43891" lon="5.27106">
        <ele>613</ele>
        <time>2019-05-04T10:00:49Z</time>
      </trkpt>
      <trkpt lat="44.43889" lon="5.27119">
        <ele>612</ele>
        <time>2019-05-04T10:00:52Z</time>
      </trkpt>
      <trkpt lat="44.43888" lon="5.27134">
        <ele>614</ele>
        <time>2019-05-04T10:00:56Z</time>
      </trkpt>
      <trkpt lat="44.43885" lon="5.27146">
        <ele>616</ele>
        <time>2019-05-04T10:01:09Z</time>
      </trkpt>
      <trkpt lat="44.43871" lon="5.27175">
        <ele>605</ele>
        <time>2019-05-04T10:01:47Z</time>
      </trkpt>
      <trkpt lat="44.43862" lon="5.272">
        <ele>603</ele>
        <time>2019-05-04T10:01:54Z</time>
      </trkpt>
      <trkpt lat="44.43858" lon="5.27213">
        <ele>604</ele>
        <time>2019-05-04T10:01:58Z</time>
      </trkpt>
      <trkpt lat="44.43852" lon="5.27241">
        <ele>603</ele>
        <time>2019-05-04T10:02:04Z</time>
      </trkpt>
      <trkpt lat="44.43829" lon="5.27287">
        <ele>597</ele>
        <time>2019-05-04T10:02:17Z</time>
      </trkpt>
      <trkpt lat="44.43827" lon="5.27301">
        <ele>596</ele>
        <time>2019-05-04T10:02:20Z</time>
      </trkpt>
      <trkpt lat="44.43825" lon="5.27318">
        <ele>596</ele>
        <time>2019-05-04T10:02:23Z</time>
      </trkpt>
      <trkpt lat="44.43822" lon="5.27346">
        <ele>594</ele>
        <time>2019-05-04T10:02:29Z</time>
      </trkpt>
      <trkpt lat="44.43824" lon="5.27374">
        <ele>592</ele>
        <time>2019-05-04T10:02:36Z</time>
      </trkpt>
      <trkpt lat="44.43828" lon="5.27389">
        <ele>591</ele>
        <time>2019-05-04T10:02:39Z</time>
      </trkpt>
      <trkpt lat="44.4383" lon="5.27404">
        <ele>591</ele>
        <time>2019-05-04T10:02:42Z</time>
      </trkpt>
      <trkpt lat="44.43833" lon="5.2742">
        <ele>591</ele>
        <time>2019-05-04T10:02:46Z</time>
      </trkpt>
      <trkpt lat="44.43849" lon="5.27437">
        <ele>591</ele>
        <time>2019-05-04T10:02:52Z</time>
      </trkpt>
      <trkpt lat="44.43858" lon="5.27444">
        <ele>590</ele>
        <time>2019-05-04T10:02:56Z</time>
      </trkpt>
      <trkpt lat="44.43873" lon="5.27463">
        <ele>589</ele>
        <time>2019-05-04T10:03:02Z</time>
      </trkpt>
      <trkpt lat="44.43899" lon="5.27487">
        <ele>587</ele>
        <time>2019-05-04T10:03:12Z</time>
      </trkpt>
      <trkpt lat="44.43908" lon="5.27527">
        <ele>582</ele>
        <time>2019-05-04T10:03:27Z</time>
      </trkpt>
      <trkpt lat="44.43919" lon="5.27536">
        <ele>581</ele>
        <time>2019-05-04T10:03:34Z</time>
      </trkpt>
      <trkpt lat="44.43925" lon="5.2755">
        <ele>577</ele>
        <time>2019-05-04T10:03:45Z</time>
      </trkpt>
      <trkpt lat="44.43958" lon="5.27571">
        <ele>572</ele>
        <time>2019-05-04T10:04:30Z</time>
      </trkpt>
      <trkpt lat="44.43982" lon="5.2759">
        <ele>562</ele>
        <time>2019-05-04T10:05:05Z</time>
      </trkpt>
      <trkpt lat="44.43984" lon="5.27603">
        <ele>561</ele>
        <time>2019-05-04T10:05:12Z</time>
      </trkpt>
      <trkpt lat="44.43992" lon="5.27611">
        <ele>559</ele>
        <time>2019-05-04T10:05:18Z</time>
      </trkpt>
      <trkpt lat="44.44001" lon="5.27614">
        <ele>557</ele>
        <time>2019-05-04T10:05:22Z</time>
      </trkpt>
      <trkpt lat="44.44007" lon="5.27626">
        <ele>555</ele>
        <time>2019-05-04T10:05:27Z</time>
      </trkpt>
      <trkpt lat="44.44026" lon="5.27641">
        <ele>553</ele>
        <time>2019-05-04T10:05:45Z</time>
      </trkpt>
      <trkpt lat="44.44038" lon="5.27642">
        <ele>550</ele>
        <time>2019-05-04T10:05:50Z</time>
      </trkpt>
      <trkpt lat="44.4406" lon="5.27646">
        <ele>549</ele>
        <time>2019-05-04T10:05:55Z</time>
      </trkpt>
      <trkpt lat="44.44066" lon="5.27663">
        <ele>547</ele>
        <time>2019-05-04T10:06:08Z</time>
      </trkpt>
      <trkpt lat="44.44077" lon="5.27661">
        <ele>540</ele>
        <time>2019-05-04T10:06:35Z</time>
      </trkpt>
      <trkpt lat="44.44087" lon="5.27666">
        <ele>537</ele>
        <time>2019-05-04T10:06:52Z</time>
      </trkpt>
      <trkpt lat="44.44095" lon="5.27673">
        <ele>537</ele>
        <time>2019-05-04T10:06:56Z</time>
      </trkpt>
      <trkpt lat="44.44096" lon="5.27691">
        <ele>535</ele>
        <time>2019-05-04T10:07:04Z</time>
      </trkpt>
      <trkpt lat="44.44094" lon="5.27711">
        <ele>533</ele>
        <time>2019-05-04T10:07:13Z</time>
      </trkpt>
      <trkpt lat="44.44106" lon="5.2773">
        <ele>533</ele>
        <time>2019-05-04T10:07:21Z</time>
      </trkpt>
      <trkpt lat="44.4411" lon="5.27747">
        <ele>530</ele>
        <time>2019-05-04T10:07:30Z</time>
      </trkpt>
      <trkpt lat="44.44106" lon="5.27761">
        <ele>527</ele>
        <time>2019-05-04T10:07:35Z</time>
      </trkpt>
      <trkpt lat="44.44105" lon="5.27782">
        <ele>525</ele>
        <time>2019-05-04T10:07:44Z</time>
      </trkpt>
      <trkpt lat="44.4411" lon="5.27798">
        <ele>523</ele>
        <time>2019-05-04T10:07:49Z</time>
      </trkpt>
      <trkpt lat="44.4411" lon="5.27817">
        <ele>521</ele>
        <time>2019-05-04T10:07:52Z</time>
      </trkpt>
      <trkpt lat="44.44106" lon="5.2783">
        <ele>521</ele>
        <time>2019-05-04T10:07:55Z</time>
      </trkpt>
      <trkpt lat="44.44103" lon="5.27842">
        <ele>509</ele>
        <time>2019-05-04T10:09:35Z</time>
      </trkpt>
      <trkpt lat="44.44098" lon="5.27855">
        <ele>504</ele>
        <time>2019-05-04T10:09:46Z</time>
      </trkpt>
      <trkpt lat="44.44093" lon="5.27872">
        <ele>503</ele>
        <time>2019-05-04T10:09:53Z</time>
      </trkpt>
      <trkpt lat="44.4409" lon="5.27884">
        <ele>504</ele>
        <time>2019-05-04T10:09:56Z</time>
      </trkpt>
      <trkpt lat="44.44083" lon="5.27895">
        <ele>503</ele>
        <time>2019-05-04T10:10:00Z</time>
      </trkpt>
      <trkpt lat="44.44074" lon="5.27922">
        <ele>502</ele>
        <time>2019-05-04T10:10:08Z</time>
      </trkpt>
      <trkpt lat="44.44071" lon="5.27934">
        <ele>501</ele>
        <time>2019-05-04T10:10:12Z</time>
      </trkpt>
      <trkpt lat="44.44072" lon="5.27976">
        <ele>496</ele>
        <time>2019-05-04T10:10:27Z</time>
      </trkpt>
      <trkpt lat="44.44072" lon="5.27991">
        <ele>494</ele>
        <time>2019-05-04T10:10:31Z</time>
      </trkpt>
      <trkpt lat="44.44076" lon="5.28076">
        <ele>488</ele>
        <time>2019-05-04T10:10:57Z</time>
      </trkpt>
      <trkpt lat="44.44066" lon="5.28115">
        <ele>488</ele>
        <time>2019-05-04T10:11:08Z</time>
      </trkpt>
      <trkpt lat="44.44071" lon="5.28138">
        <ele>487</ele>
        <time>2019-05-04T10:11:15Z</time>
      </trkpt>
      <trkpt lat="44.44074" lon="5.28154">
        <ele>484</ele>
        <time>2019-05-04T10:11:20Z</time>
      </trkpt>
      <trkpt lat="44.44074" lon="5.2817">
        <ele>484</ele>
        <time>2019-05-04T10:11:23Z</time>
      </trkpt>
      <trkpt lat="44.44081" lon="5.28212">
        <ele>478</ele>
        <time>2019-05-04T10:11:39Z</time>
      </trkpt>
      <trkpt lat="44.44074" lon="5.28222">
        <ele>473</ele>
        <time>2019-05-04T10:12:21Z</time>
      </trkpt>
      <trkpt lat="44.44085" lon="5.28233">
        <ele>469</ele>
        <time>2019-05-04T10:12:37Z</time>
      </trkpt>
      <trkpt lat="44.44083" lon="5.28249">
        <ele>467</ele>
        <time>2019-05-04T10:12:44Z</time>
      </trkpt>
      <trkpt lat="44.44089" lon="5.2827">
        <ele>463</ele>
        <time>2019-05-04T10:13:04Z</time>
      </trkpt>
      <trkpt lat="44.44085" lon="5.28282">
        <ele>461</ele>
        <time>2019-05-04T10:13:13Z</time>
      </trkpt>
      <trkpt lat="44.44095" lon="5.28311">
        <ele>459</ele>
        <time>2019-05-04T10:13:29Z</time>
      </trkpt>
      <trkpt lat="44.44106" lon="5.28323">
        <ele>456</ele>
        <time>2019-05-04T10:13:41Z</time>
      </trkpt>
      <trkpt lat="44.44111" lon="5.28347">
        <ele>453</ele>
        <time>2019-05-04T10:14:00Z</time>
      </trkpt>
      <trkpt lat="44.44115" lon="5.2836">
        <ele>451</ele>
        <time>2019-05-04T10:14:04Z</time>
      </trkpt>
      <trkpt lat="44.44122" lon="5.28363">
        <ele>436</ele>
        <time>2019-05-04T10:16:10Z</time>
      </trkpt>
      <trkpt lat="44.4413" lon="5.2836">
        <ele>437</ele>
        <time>2019-05-04T10:16:13Z</time>
      </trkpt>
      <trkpt lat="44.44145" lon="5.28373">
        <ele>436</ele>
        <time>2019-05-04T10:16:26Z</time>
      </trkpt>
      <trkpt lat="44.44144" lon="5.28393">
        <ele>435</ele>
        <time>2019-05-04T10:16:47Z</time>
      </trkpt>
      <trkpt lat="44.4414" lon="5.28405">
        <ele>435</ele>
        <time>2019-05-04T10:16:56Z</time>
      </trkpt>
      <trkpt lat="44.44137" lon="5.28416">
        <ele>435</ele>
        <time>2019-05-04T10:17:11Z</time>
      </trkpt>
      <trkpt lat="44.44139" lon="5.28438">
        <ele>435</ele>
        <time>2019-05-04T10:17:37Z</time>
      </trkpt>
      <trkpt lat="44.44131" lon="5.28463">
        <ele>437</ele>
        <time>2019-05-04T10:17:50Z</time>
      </trkpt>
      <trkpt lat="44.44131" lon="5.28478">
        <ele>437</ele>
        <time>2019-05-04T10:17:56Z</time>
      </trkpt>
      <trkpt lat="44.44138" lon="5.28487">
        <ele>437</ele>
        <time>2019-05-04T10:18:01Z</time>
      </trkpt>
      <trkpt lat="44.44148" lon="5.28498">
        <ele>437</ele>
        <time>2019-05-04T10:18:05Z</time>
      </trkpt>
      <trkpt lat="44.44149" lon="5.28511">
        <ele>438</ele>
        <time>2019-05-04T10:18:09Z</time>
      </trkpt>
      <trkpt lat="44.44123" lon="5.28536">
        <ele>441</ele>
        <time>2019-05-04T10:18:40Z</time>
      </trkpt>
      <trkpt lat="44.44115" lon="5.28547">
        <ele>442</ele>
        <time>2019-05-04T10:18:56Z</time>
      </trkpt>
      <trkpt lat="44.44114" lon="5.28578">
        <ele>448</ele>
        <time>2019-05-04T10:19:32Z</time>
      </trkpt>
      <trkpt lat="44.44109" lon="5.28614">
        <ele>452</ele>
        <time>2019-05-04T10:20:06Z</time>
      </trkpt>
      <trkpt lat="44.44107" lon="5.28633">
        <ele>456</ele>
        <time>2019-05-04T10:20:22Z</time>
      </trkpt>
      <trkpt lat="44.44107" lon="5.28652">
        <ele>457</ele>
        <time>2019-05-04T10:20:37Z</time>
      </trkpt>
      <trkpt lat="44.44106" lon="5.28664">
        <ele>458</ele>
        <time>2019-05-04T10:20:47Z</time>
      </trkpt>
      <trkpt lat="44.44128" lon="5.28676">
        <ele>462</ele>
        <time>2019-05-04T10:21:19Z</time>
      </trkpt>
      <trkpt lat="44.44137" lon="5.2868">
        <ele>463</ele>
        <time>2019-05-04T10:21:27Z</time>
      </trkpt>
      <trkpt lat="44.44145" lon="5.28677">
        <ele>466</ele>
        <time>2019-05-04T10:22:28Z</time>
      </trkpt>
      <trkpt lat="44.44159" lon="5.28674">
        <ele>471</ele>
        <time>2019-05-04T10:23:21Z</time>
      </trkpt>
      <trkpt lat="44.44168" lon="5.28668">
        <ele>469</ele>
        <time>2019-05-04T10:23:27Z</time>
      </trkpt>
      <trkpt lat="44.44178" lon="5.28665">
        <ele>469</ele>
        <time>2019-05-04T10:23:32Z</time>
      </trkpt>
      <trkpt lat="44.44186" lon="5.2866">
        <ele>470</ele>
        <time>2019-05-04T10:23:38Z</time>
      </trkpt>
      <trkpt lat="44.44205" lon="5.2866">
        <ele>473</ele>
        <time>2019-05-04T10:23:53Z</time>
      </trkpt>
      <trkpt lat="44.44196" lon="5.28671">
        <ele>474</ele>
        <time>2019-05-04T10:24:01Z</time>
      </trkpt>
      <trkpt lat="44.44187" lon="5.28677">
        <ele>473</ele>
        <time>2019-05-04T10:24:07Z</time>
      </trkpt>
      <trkpt lat="44.44181" lon="5.28686">
        <ele>474</ele>
        <time>2019-05-04T10:24:14Z</time>
      </trkpt>
      <trkpt lat="44.44172" lon="5.28705">
        <ele>473</ele>
        <time>2019-05-04T10:24:24Z</time>
      </trkpt>
      <trkpt lat="44.4418" lon="5.28716">
        <ele>476</ele>
        <time>2019-05-04T10:24:39Z</time>
      </trkpt>
      <trkpt lat="44.44211" lon="5.28728">
        <ele>478</ele>
        <time>2019-05-04T10:24:54Z</time>
      </trkpt>
      <trkpt lat="44.44216" lon="5.28745">
        <ele>479</ele>
        <time>2019-05-04T10:25:02Z</time>
      </trkpt>
      <trkpt lat="44.44229" lon="5.28742">
        <ele>478</ele>
        <time>2019-05-04T10:25:07Z</time>
      </trkpt>
      <trkpt lat="44.44226" lon="5.28723">
        <ele>478</ele>
        <time>2019-05-04T10:25:17Z</time>
      </trkpt>
      <trkpt lat="44.44237" lon="5.28721">
        <ele>477</ele>
        <time>2019-05-04T10:25:22Z</time>
      </trkpt>
      <trkpt lat="44.44245" lon="5.28713">
        <ele>479</ele>
        <time>2019-05-04T10:25:29Z</time>
      </trkpt>
      <trkpt lat="44.44244" lon="5.28698">
        <ele>481</ele>
        <time>2019-05-04T10:25:42Z</time>
      </trkpt>
      <trkpt lat="44.44235" lon="5.28694">
        <ele>484</ele>
        <time>2019-05-04T10:25:50Z</time>
      </trkpt>
      <trkpt lat="44.44234" lon="5.28705">
        <ele>488</ele>
        <time>2019-05-04T10:38:41Z</time>
      </trkpt>
      <trkpt lat="44.44207" lon="5.28735">
        <ele>491</ele>
        <time>2019-05-04T10:39:05Z</time>
      </trkpt>
      <trkpt lat="44.4417" lon="5.28721">
        <ele>488</ele>
        <time>2019-05-04T10:39:23Z</time>
      </trkpt>
      <trkpt lat="44.44168" lon="5.28717">
        <ele>485</ele>
        <time>2019-05-04T10:39:24Z</time>
      </trkpt>
      <trkpt lat="44.44163" lon="5.28704">
        <ele>484</ele>
        <time>2019-05-04T10:39:26Z</time>
      </trkpt>
      <trkpt lat="44.44164" lon="5.28689">
        <ele>484</ele>
        <time>2019-05-04T10:39:28Z</time>
      </trkpt>
      <trkpt lat="44.44173" lon="5.28675">
        <ele>482</ele>
        <time>2019-05-04T10:39:30Z</time>
      </trkpt>
      <trkpt lat="44.44183" lon="5.28666">
        <ele>482</ele>
        <time>2019-05-04T10:39:32Z</time>
      </trkpt>
      <trkpt lat="44.44192" lon="5.28662">
        <ele>482</ele>
        <time>2019-05-04T10:39:35Z</time>
      </trkpt>
      <trkpt lat="44.44203" lon="5.28658">
        <ele>482</ele>
        <time>2019-05-04T10:39:39Z</time>
      </trkpt>
      <trkpt lat="44.44214" lon="5.28634">
        <ele>480</ele>
        <time>2019-05-04T10:40:23Z</time>
      </trkpt>
      <trkpt lat="44.44247" lon="5.28622">
        <ele>480</ele>
        <time>2019-05-04T10:40:35Z</time>
      </trkpt>
      <trkpt lat="44.44263" lon="5.28609">
        <ele>479</ele>
        <time>2019-05-04T10:40:39Z</time>
      </trkpt>
      <trkpt lat="44.44273" lon="5.28603">
        <ele>476</ele>
        <time>2019-05-04T10:40:44Z</time>
      </trkpt>
      <trkpt lat="44.44282" lon="5.28606">
        <ele>476</ele>
        <time>2019-05-04T10:40:48Z</time>
      </trkpt>
      <trkpt lat="44.44291" lon="5.28614">
        <ele>477</ele>
        <time>2019-05-04T10:40:52Z</time>
      </trkpt>
      <trkpt lat="44.44301" lon="5.28622">
        <ele>477</ele>
        <time>2019-05-04T10:41:00Z</time>
      </trkpt>
      <trkpt lat="44.4431" lon="5.28626">
        <ele>477</ele>
        <time>2019-05-04T10:41:05Z</time>
      </trkpt>
      <trkpt lat="44.44318" lon="5.28638">
        <ele>478</ele>
        <time>2019-05-04T10:41:11Z</time>
      </trkpt>
      <trkpt lat="44.44323" lon="5.28654">
        <ele>477</ele>
        <time>2019-05-04T10:41:15Z</time>
      </trkpt>
      <trkpt lat="44.44328" lon="5.28668">
        <ele>478</ele>
        <time>2019-05-04T10:41:21Z</time>
      </trkpt>
      <trkpt lat="44.44336" lon="5.28677">
        <ele>478</ele>
        <time>2019-05-04T10:41:26Z</time>
      </trkpt>
      <trkpt lat="44.44363" lon="5.28691">
        <ele>480</ele>
        <time>2019-05-04T10:41:45Z</time>
      </trkpt>
      <trkpt lat="44.44373" lon="5.28695">
        <ele>480</ele>
        <time>2019-05-04T10:41:51Z</time>
      </trkpt>
      <trkpt lat="44.44381" lon="5.28688">
        <ele>480</ele>
        <time>2019-05-04T10:41:59Z</time>
      </trkpt>
      <trkpt lat="44.44387" lon="5.28677">
        <ele>481</ele>
        <time>2019-05-04T10:42:05Z</time>
      </trkpt>
      <trkpt lat="44.44389" lon="5.28664">
        <ele>481</ele>
        <time>2019-05-04T10:42:12Z</time>
      </trkpt>
      <trkpt lat="44.4439" lon="5.2865">
        <ele>482</ele>
        <time>2019-05-04T10:42:19Z</time>
      </trkpt>
      <trkpt lat="44.4439" lon="5.28638">
        <ele>481</ele>
        <time>2019-05-04T10:42:25Z</time>
      </trkpt>
      <trkpt lat="44.44404" lon="5.28619">
        <ele>482</ele>
        <time>2019-05-04T10:42:38Z</time>
      </trkpt>
      <trkpt lat="44.44409" lon="5.28607">
        <ele>484</ele>
        <time>2019-05-04T10:42:45Z</time>
      </trkpt>
      <trkpt lat="44.44416" lon="5.28595">
        <ele>485</ele>
        <time>2019-05-04T10:42:52Z</time>
      </trkpt>
      <trkpt lat="44.44423" lon="5.28586">
        <ele>484</ele>
        <time>2019-05-04T10:42:59Z</time>
      </trkpt>
      <trkpt lat="44.44429" lon="5.28577">
        <ele>484</ele>
        <time>2019-05-04T10:43:05Z</time>
      </trkpt>
      <trkpt lat="44.44437" lon="5.28569">
        <ele>484</ele>
        <time>2019-05-04T10:43:11Z</time>
      </trkpt>
      <trkpt lat="44.44442" lon="5.28558">
        <ele>484</ele>
        <time>2019-05-04T10:43:21Z</time>
      </trkpt>
      <trkpt lat="44.4445" lon="5.28548">
        <ele>484</ele>
        <time>2019-05-04T10:43:29Z</time>
      </trkpt>
      <trkpt lat="44.44459" lon="5.28535">
        <ele>485</ele>
        <time>2019-05-04T10:43:33Z</time>
      </trkpt>
      <trkpt lat="44.44465" lon="5.2852">
        <ele>486</ele>
        <time>2019-05-04T10:43:36Z</time>
      </trkpt>
      <trkpt lat="44.44479" lon="5.28389">
        <ele>488</ele>
        <time>2019-05-04T10:44:08Z</time>
      </trkpt>
      <trkpt lat="44.44484" lon="5.28376">
        <ele>488</ele>
        <time>2019-05-04T10:44:11Z</time>
      </trkpt>
      <trkpt lat="44.44488" lon="5.28365">
        <ele>488</ele>
        <time>2019-05-04T10:44:14Z</time>
      </trkpt>
      <trkpt lat="44.44494" lon="5.28354">
        <ele>489</ele>
        <time>2019-05-04T10:44:18Z</time>
      </trkpt>
      <trkpt lat="44.44503" lon="5.28348">
        <ele>490</ele>
        <time>2019-05-04T10:44:23Z</time>
      </trkpt>
      <trkpt lat="44.44525" lon="5.28341">
        <ele>494</ele>
        <time>2019-05-04T10:44:38Z</time>
      </trkpt>
      <trkpt lat="44.44535" lon="5.28338">
        <ele>494</ele>
        <time>2019-05-04T10:44:44Z</time>
      </trkpt>
      <trkpt lat="44.44545" lon="5.28332">
        <ele>496</ele>
        <time>2019-05-04T10:44:51Z</time>
      </trkpt>
      <trkpt lat="44.44553" lon="5.28324">
        <ele>498</ele>
        <time>2019-05-04T10:44:57Z</time>
      </trkpt>
      <trkpt lat="44.44564" lon="5.28317">
        <ele>498</ele>
        <time>2019-05-04T10:45:05Z</time>
      </trkpt>
      <trkpt lat="44.4457" lon="5.28305">
        <ele>499</ele>
        <time>2019-05-04T10:45:11Z</time>
      </trkpt>
      <trkpt lat="44.44578" lon="5.28294">
        <ele>500</ele>
        <time>2019-05-04T10:45:17Z</time>
      </trkpt>
      <trkpt lat="44.44587" lon="5.2828">
        <ele>501</ele>
        <time>2019-05-04T10:45:21Z</time>
      </trkpt>
      <trkpt lat="44.44595" lon="5.28274">
        <ele>501</ele>
        <time>2019-05-04T10:45:23Z</time>
      </trkpt>
      <trkpt lat="44.44604" lon="5.28268">
        <ele>499</ele>
        <time>2019-05-04T10:45:25Z</time>
      </trkpt>
      <trkpt lat="44.44613" lon="5.28264">
        <ele>498</ele>
        <time>2019-05-04T10:45:27Z</time>
      </trkpt>
      <trkpt lat="44.44622" lon="5.2826">
        <ele>498</ele>
        <time>2019-05-04T10:45:29Z</time>
      </trkpt>
      <trkpt lat="44.44633" lon="5.28256">
        <ele>498</ele>
        <time>2019-05-04T10:45:32Z</time>
      </trkpt>
      <trkpt lat="44.44644" lon="5.28249">
        <ele>499</ele>
        <time>2019-05-04T10:45:35Z</time>
      </trkpt>
      <trkpt lat="44.4466" lon="5.28225">
        <ele>499</ele>
        <time>2019-05-04T10:45:41Z</time>
      </trkpt>
      <trkpt lat="44.44667" lon="5.28215">
        <ele>501</ele>
        <time>2019-05-04T10:45:44Z</time>
      </trkpt>
      <trkpt lat="44.44677" lon="5.28206">
        <ele>502</ele>
        <time>2019-05-04T10:45:48Z</time>
      </trkpt>
      <trkpt lat="44.44685" lon="5.28201">
        <ele>502</ele>
        <time>2019-05-04T10:45:51Z</time>
      </trkpt>
      <trkpt lat="44.44703" lon="5.28186">
        <ele>501</ele>
        <time>2019-05-04T10:45:58Z</time>
      </trkpt>
      <trkpt lat="44.4472" lon="5.28171">
        <ele>501</ele>
        <time>2019-05-04T10:46:06Z</time>
      </trkpt>
      <trkpt lat="44.44729" lon="5.28164">
        <ele>501</ele>
        <time>2019-05-04T10:46:10Z</time>
      </trkpt>
      <trkpt lat="44.44738" lon="5.28158">
        <ele>501</ele>
        <time>2019-05-04T10:46:14Z</time>
      </trkpt>
      <trkpt lat="44.44771" lon="5.28131">
        <ele>507</ele>
        <time>2019-05-04T10:46:32Z</time>
      </trkpt>
      <trkpt lat="44.44791" lon="5.28117">
        <ele>508</ele>
        <time>2019-05-04T10:46:44Z</time>
      </trkpt>
      <trkpt lat="44.44811" lon="5.28099">
        <ele>513</ele>
        <time>2019-05-04T10:47:29Z</time>
      </trkpt>
      <trkpt lat="44.44834" lon="5.28072">
        <ele>515</ele>
        <time>2019-05-04T10:47:42Z</time>
      </trkpt>
      <trkpt lat="44.44851" lon="5.28054">
        <ele>513</ele>
        <time>2019-05-04T10:47:50Z</time>
      </trkpt>
      <trkpt lat="44.4486" lon="5.28045">
        <ele>513</ele>
        <time>2019-05-04T10:47:55Z</time>
      </trkpt>
      <trkpt lat="44.4487" lon="5.28038">
        <ele>515</ele>
        <time>2019-05-04T10:48:00Z</time>
      </trkpt>
      <trkpt lat="44.4488" lon="5.28033">
        <ele>515</ele>
        <time>2019-05-04T10:48:05Z</time>
      </trkpt>
      <trkpt lat="44.44895" lon="5.28031">
        <ele>518</ele>
        <time>2019-05-04T10:48:14Z</time>
      </trkpt>
      <trkpt lat="44.44905" lon="5.28028">
        <ele>517</ele>
        <time>2019-05-04T10:48:20Z</time>
      </trkpt>
      <trkpt lat="44.44914" lon="5.28023">
        <ele>517</ele>
        <time>2019-05-04T10:48:25Z</time>
      </trkpt>
      <trkpt lat="44.4493" lon="5.28006">
        <ele>517</ele>
        <time>2019-05-04T10:48:35Z</time>
      </trkpt>
      <trkpt lat="44.44937" lon="5.27994">
        <ele>518</ele>
        <time>2019-05-04T10:48:40Z</time>
      </trkpt>
      <trkpt lat="44.44944" lon="5.27985">
        <ele>518</ele>
        <time>2019-05-04T10:48:45Z</time>
      </trkpt>
      <trkpt lat="44.44951" lon="5.27974">
        <ele>518</ele>
        <time>2019-05-04T10:48:50Z</time>
      </trkpt>
      <trkpt lat="44.44959" lon="5.27967">
        <ele>518</ele>
        <time>2019-05-04T10:48:55Z</time>
      </trkpt>
      <trkpt lat="44.44982" lon="5.2795">
        <ele>521</ele>
        <time>2019-05-04T10:49:09Z</time>
      </trkpt>
      <trkpt lat="44.44993" lon="5.27938">
        <ele>521</ele>
        <time>2019-05-04T10:49:18Z</time>
      </trkpt>
      <trkpt lat="44.44998" lon="5.27928">
        <ele>522</ele>
        <time>2019-05-04T10:49:23Z</time>
      </trkpt>
      <trkpt lat="44.45002" lon="5.27914">
        <ele>524</ele>
        <time>2019-05-04T10:49:30Z</time>
      </trkpt>
      <trkpt lat="44.45007" lon="5.27903">
        <ele>524</ele>
        <time>2019-05-04T10:49:35Z</time>
      </trkpt>
      <trkpt lat="44.45013" lon="5.27892">
        <ele>524</ele>
        <time>2019-05-04T10:49:41Z</time>
      </trkpt>
      <trkpt lat="44.45034" lon="5.27862">
        <ele>527</ele>
        <time>2019-05-04T10:49:59Z</time>
      </trkpt>
      <trkpt lat="44.4504" lon="5.27852">
        <ele>527</ele>
        <time>2019-05-04T10:50:05Z</time>
      </trkpt>
      <trkpt lat="44.45053" lon="5.27817">
        <ele>530</ele>
        <time>2019-05-04T10:50:24Z</time>
      </trkpt>
      <trkpt lat="44.4506" lon="5.27807">
        <ele>531</ele>
        <time>2019-05-04T10:50:33Z</time>
      </trkpt>
      <trkpt lat="44.45068" lon="5.278">
        <ele>534</ele>
        <time>2019-05-04T10:50:41Z</time>
      </trkpt>
      <trkpt lat="44.45075" lon="5.27792">
        <ele>534</ele>
        <time>2019-05-04T10:50:46Z</time>
      </trkpt>
      <trkpt lat="44.45082" lon="5.27784">
        <ele>534</ele>
        <time>2019-05-04T10:50:53Z</time>
      </trkpt>
      <trkpt lat="44.4509" lon="5.27776">
        <ele>534</ele>
        <time>2019-05-04T10:51:00Z</time>
      </trkpt>
      <trkpt lat="44.45098" lon="5.27766">
        <ele>536</ele>
        <time>2019-05-04T10:51:06Z</time>
      </trkpt>
      <trkpt lat="44.45103" lon="5.27754">
        <ele>537</ele>
        <time>2019-05-04T10:51:10Z</time>
      </trkpt>
      <trkpt lat="44.45104" lon="5.2774">
        <ele>536</ele>
        <time>2019-05-04T10:51:14Z</time>
      </trkpt>
      <trkpt lat="44.45111" lon="5.2773">
        <ele>537</ele>
        <time>2019-05-04T10:51:19Z</time>
      </trkpt>
      <trkpt lat="44.45115" lon="5.27714">
        <ele>537</ele>
        <time>2019-05-04T10:51:25Z</time>
      </trkpt>
      <trkpt lat="44.45114" lon="5.27701">
        <ele>536</ele>
        <time>2019-05-04T10:51:31Z</time>
      </trkpt>
      <trkpt lat="44.45111" lon="5.27689">
        <ele>537</ele>
        <time>2019-05-04T10:51:38Z</time>
      </trkpt>
      <trkpt lat="44.45122" lon="5.27652">
        <ele>540</ele>
        <time>2019-05-04T10:51:57Z</time>
      </trkpt>
      <trkpt lat="44.45125" lon="5.27618">
        <ele>542</ele>
        <time>2019-05-04T10:52:13Z</time>
      </trkpt>
      <trkpt lat="44.45126" lon="5.27604">
        <ele>542</ele>
        <time>2019-05-04T10:52:19Z</time>
      </trkpt>
      <trkpt lat="44.45123" lon="5.2759">
        <ele>542</ele>
        <time>2019-05-04T10:52:24Z</time>
      </trkpt>
      <trkpt lat="44.4512" lon="5.27576">
        <ele>541</ele>
        <time>2019-05-04T10:52:27Z</time>
      </trkpt>
      <trkpt lat="44.45116" lon="5.2756">
        <ele>542</ele>
        <time>2019-05-04T10:52:30Z</time>
      </trkpt>
      <trkpt lat="44.45113" lon="5.27548">
        <ele>541</ele>
        <time>2019-05-04T10:52:33Z</time>
      </trkpt>
      <trkpt lat="44.45111" lon="5.27522">
        <ele>543</ele>
        <time>2019-05-04T10:52:44Z</time>
      </trkpt>
      <trkpt lat="44.45112" lon="5.27509">
        <ele>542</ele>
        <time>2019-05-04T10:52:50Z</time>
      </trkpt>
      <trkpt lat="44.4512" lon="5.2743">
        <ele>548</ele>
        <time>2019-05-04T10:53:27Z</time>
      </trkpt>
      <trkpt lat="44.45124" lon="5.27397">
        <ele>549</ele>
        <time>2019-05-04T10:53:42Z</time>
      </trkpt>
      <trkpt lat="44.45125" lon="5.27385">
        <ele>550</ele>
        <time>2019-05-04T10:53:48Z</time>
      </trkpt>
      <trkpt lat="44.45127" lon="5.27372">
        <ele>549</ele>
        <time>2019-05-04T10:53:55Z</time>
      </trkpt>
      <trkpt lat="44.45127" lon="5.27331">
        <ele>553</ele>
        <time>2019-05-04T10:54:10Z</time>
      </trkpt>
      <trkpt lat="44.45129" lon="5.27318">
        <ele>554</ele>
        <time>2019-05-04T10:54:14Z</time>
      </trkpt>
      <trkpt lat="44.45142" lon="5.2727">
        <ele>561</ele>
        <time>2019-05-04T10:54:46Z</time>
      </trkpt>
      <trkpt lat="44.4515" lon="5.27245">
        <ele>561</ele>
        <time>2019-05-04T10:54:58Z</time>
      </trkpt>
      <trkpt lat="44.45157" lon="5.27237">
        <ele>562</ele>
        <time>2019-05-04T10:55:08Z</time>
      </trkpt>
      <trkpt lat="44.45167" lon="5.27229">
        <ele>565</ele>
        <time>2019-05-04T10:55:20Z</time>
      </trkpt>
      <trkpt lat="44.45179" lon="5.27227">
        <ele>565</ele>
        <time>2019-05-04T10:55:31Z</time>
      </trkpt>
      <trkpt lat="44.45189" lon="5.27225">
        <ele>568</ele>
        <time>2019-05-04T10:55:39Z</time>
      </trkpt>
      <trkpt lat="44.45197" lon="5.27218">
        <ele>569</ele>
        <time>2019-05-04T10:55:46Z</time>
      </trkpt>
      <trkpt lat="44.45211" lon="5.27219">
        <ele>571</ele>
        <time>2019-05-04T10:56:01Z</time>
      </trkpt>
      <trkpt lat="44.45212" lon="5.27206">
        <ele>574</ele>
        <time>2019-05-04T10:56:10Z</time>
      </trkpt>
      <trkpt lat="44.45208" lon="5.27193">
        <ele>576</ele>
        <time>2019-05-04T10:56:17Z</time>
      </trkpt>
      <trkpt lat="44.45202" lon="5.27183">
        <ele>576</ele>
        <time>2019-05-04T10:56:26Z</time>
      </trkpt>
      <trkpt lat="44.45193" lon="5.27177">
        <ele>575</ele>
        <time>2019-05-04T10:56:33Z</time>
      </trkpt>
      <trkpt lat="44.45171" lon="5.27154">
        <ele>581</ele>
        <time>2019-05-04T10:56:54Z</time>
      </trkpt>
      <trkpt lat="44.4516" lon="5.27153">
        <ele>585</ele>
        <time>2019-05-04T10:57:03Z</time>
      </trkpt>
      <trkpt lat="44.45153" lon="5.27148">
        <ele>585</ele>
        <time>2019-05-04T10:57:11Z</time>
      </trkpt>
      <trkpt lat="44.45146" lon="5.27128">
        <ele>591</ele>
        <time>2019-05-04T10:57:29Z</time>
      </trkpt>
      <trkpt lat="44.45141" lon="5.27076">
        <ele>597</ele>
        <time>2019-05-04T10:58:08Z</time>
      </trkpt>
      <trkpt lat="44.45143" lon="5.27064">
        <ele>599</ele>
        <time>2019-05-04T10:58:18Z</time>
      </trkpt>
      <trkpt lat="44.45146" lon="5.27048">
        <ele>599</ele>
        <time>2019-05-04T10:58:29Z</time>
      </trkpt>
      <trkpt lat="44.45147" lon="5.27035">
        <ele>600</ele>
        <time>2019-05-04T10:58:38Z</time>
      </trkpt>
      <trkpt lat="44.4515" lon="5.27023">
        <ele>602</ele>
        <time>2019-05-04T10:58:48Z</time>
      </trkpt>
      <trkpt lat="44.45159" lon="5.27041">
        <ele>604</ele>
        <time>2019-05-04T10:59:03Z</time>
      </trkpt>
      <trkpt lat="44.45165" lon="5.27053">
        <ele>605</ele>
        <time>2019-05-04T10:59:07Z</time>
      </trkpt>
      <trkpt lat="44.45173" lon="5.27069">
        <ele>607</ele>
        <time>2019-05-04T10:59:23Z</time>
      </trkpt>
      <trkpt lat="44.45178" lon="5.27081">
        <ele>608</ele>
        <time>2019-05-04T10:59:32Z</time>
      </trkpt>
      <trkpt lat="44.4518" lon="5.27095">
        <ele>610</ele>
        <time>2019-05-04T10:59:42Z</time>
      </trkpt>
      <trkpt lat="44.45187" lon="5.27112">
        <ele>611</ele>
        <time>2019-05-04T10:59:59Z</time>
      </trkpt>
      <trkpt lat="44.45198" lon="5.27068">
        <ele>620</ele>
        <time>2019-05-04T11:00:28Z</time>
      </trkpt>
      <trkpt lat="44.45196" lon="5.27055">
        <ele>619</ele>
        <time>2019-05-04T11:00:35Z</time>
      </trkpt>
      <trkpt lat="44.45197" lon="5.27042">
        <ele>619</ele>
        <time>2019-05-04T11:00:42Z</time>
      </trkpt>
      <trkpt lat="44.45193" lon="5.27013">
        <ele>622</ele>
        <time>2019-05-04T11:01:01Z</time>
      </trkpt>
      <trkpt lat="44.45195" lon="5.26999">
        <ele>625</ele>
        <time>2019-05-04T11:01:09Z</time>
      </trkpt>
      <trkpt lat="44.45196" lon="5.26986">
        <ele>624</ele>
        <time>2019-05-04T11:01:16Z</time>
      </trkpt>
      <trkpt lat="44.45202" lon="5.26975">
        <ele>627</ele>
        <time>2019-05-04T11:01:25Z</time>
      </trkpt>
      <trkpt lat="44.45202" lon="5.2696">
        <ele>627</ele>
        <time>2019-05-04T11:01:37Z</time>
      </trkpt>
      <trkpt lat="44.45201" lon="5.26947">
        <ele>628</ele>
        <time>2019-05-04T11:01:45Z</time>
      </trkpt>
      <trkpt lat="44.45198" lon="5.26935">
        <ele>630</ele>
        <time>2019-05-04T11:01:52Z</time>
      </trkpt>
      <trkpt lat="44.45187" lon="5.26915">
        <ele>633</ele>
        <time>2019-05-04T11:02:09Z</time>
      </trkpt>
      <trkpt lat="44.45178" lon="5.26907">
        <ele>635</ele>
        <time>2019-05-04T11:02:19Z</time>
      </trkpt>
      <trkpt lat="44.45186" lon="5.26893">
        <ele>639</ele>
        <time>2019-05-04T11:02:35Z</time>
      </trkpt>
      <trkpt lat="44.45196" lon="5.26893">
        <ele>639</ele>
        <time>2019-05-04T11:02:43Z</time>
      </trkpt>
      <trkpt lat="44.45205" lon="5.26894">
        <ele>641</ele>
        <time>2019-05-04T11:02:50Z</time>
      </trkpt>
      <trkpt lat="44.45213" lon="5.26898">
        <ele>642</ele>
        <time>2019-05-04T11:02:57Z</time>
      </trkpt>
      <trkpt lat="44.45218" lon="5.26911">
        <ele>643</ele>
        <time>2019-05-04T11:03:04Z</time>
      </trkpt>
      <trkpt lat="44.45225" lon="5.26919">
        <ele>644</ele>
        <time>2019-05-04T11:03:11Z</time>
      </trkpt>
      <trkpt lat="44.4524" lon="5.26921">
        <ele>648</ele>
        <time>2019-05-04T11:03:24Z</time>
      </trkpt>
      <trkpt lat="44.4524" lon="5.26909">
        <ele>649</ele>
        <time>2019-05-04T11:03:31Z</time>
      </trkpt>
      <trkpt lat="44.4524" lon="5.26895">
        <ele>650</ele>
        <time>2019-05-04T11:03:39Z</time>
      </trkpt>
      <trkpt lat="44.45246" lon="5.26871">
        <ele>653</ele>
        <time>2019-05-04T11:03:56Z</time>
      </trkpt>
      <trkpt lat="44.45247" lon="5.26858">
        <ele>653</ele>
        <time>2019-05-04T11:04:04Z</time>
      </trkpt>
      <trkpt lat="44.4524" lon="5.26833">
        <ele>655</ele>
        <time>2019-05-04T11:04:19Z</time>
      </trkpt>
      <trkpt lat="44.45235" lon="5.26823">
        <ele>657</ele>
        <time>2019-05-04T11:04:28Z</time>
      </trkpt>
      <trkpt lat="44.45227" lon="5.26815">
        <ele>659</ele>
        <time>2019-05-04T11:04:36Z</time>
      </trkpt>
      <trkpt lat="44.45219" lon="5.26806">
        <ele>659</ele>
        <time>2019-05-04T11:04:45Z</time>
      </trkpt>
      <trkpt lat="44.45214" lon="5.26796">
        <ele>661</ele>
        <time>2019-05-04T11:04:52Z</time>
      </trkpt>
      <trkpt lat="44.45212" lon="5.26783">
        <ele>662</ele>
        <time>2019-05-04T11:05:02Z</time>
      </trkpt>
      <trkpt lat="44.45214" lon="5.26768">
        <ele>663</ele>
        <time>2019-05-04T11:05:14Z</time>
      </trkpt>
      <trkpt lat="44.45213" lon="5.26751">
        <ele>664</ele>
        <time>2019-05-04T11:05:25Z</time>
      </trkpt>
      <trkpt lat="44.4522" lon="5.26743">
        <ele>666</ele>
        <time>2019-05-04T11:05:33Z</time>
      </trkpt>
      <trkpt lat="44.45232" lon="5.26783">
        <ele>670</ele>
        <time>2019-05-04T11:05:57Z</time>
      </trkpt>
      <trkpt lat="44.45238" lon="5.26791">
        <ele>670</ele>
        <time>2019-05-04T11:06:03Z</time>
      </trkpt>
      <trkpt lat="44.45247" lon="5.26792">
        <ele>672</ele>
        <time>2019-05-04T11:06:12Z</time>
      </trkpt>
      <trkpt lat="44.45265" lon="5.26777">
        <ele>675</ele>
        <time>2019-05-04T11:06:25Z</time>
      </trkpt>
      <trkpt lat="44.45274" lon="5.26775">
        <ele>676</ele>
        <time>2019-05-04T11:06:33Z</time>
      </trkpt>
      <trkpt lat="44.45293" lon="5.2678">
        <ele>679</ele>
        <time>2019-05-04T11:06:47Z</time>
      </trkpt>
      <trkpt lat="44.45302" lon="5.26786">
        <ele>679</ele>
        <time>2019-05-04T11:06:54Z</time>
      </trkpt>
      <trkpt lat="44.45304" lon="5.26773">
        <ele>682</ele>
        <time>2019-05-04T11:07:07Z</time>
      </trkpt>
      <trkpt lat="44.45296" lon="5.26765">
        <ele>683</ele>
        <time>2019-05-04T11:07:15Z</time>
      </trkpt>
      <trkpt lat="44.45289" lon="5.26758">
        <ele>683</ele>
        <time>2019-05-04T11:07:21Z</time>
      </trkpt>
      <trkpt lat="44.45275" lon="5.26741">
        <ele>686</ele>
        <time>2019-05-04T11:07:38Z</time>
      </trkpt>
      <trkpt lat="44.45271" lon="5.26728">
        <ele>687</ele>
        <time>2019-05-04T11:07:46Z</time>
      </trkpt>
      <trkpt lat="44.45279" lon="5.2672">
        <ele>688</ele>
        <time>2019-05-04T11:07:55Z</time>
      </trkpt>
      <trkpt lat="44.45287" lon="5.26734">
        <ele>690</ele>
        <time>2019-05-04T11:08:06Z</time>
      </trkpt>
      <trkpt lat="44.45295" lon="5.26742">
        <ele>690</ele>
        <time>2019-05-04T11:08:12Z</time>
      </trkpt>
      <trkpt lat="44.45322" lon="5.26758">
        <ele>694</ele>
        <time>2019-05-04T11:08:36Z</time>
      </trkpt>
      <trkpt lat="44.4533" lon="5.26766">
        <ele>695</ele>
        <time>2019-05-04T11:08:45Z</time>
      </trkpt>
      <trkpt lat="44.45337" lon="5.26776">
        <ele>696</ele>
        <time>2019-05-04T11:08:53Z</time>
      </trkpt>
      <trkpt lat="44.45337" lon="5.2679">
        <ele>695</ele>
        <time>2019-05-04T11:09:00Z</time>
      </trkpt>
      <trkpt lat="44.45349" lon="5.26809">
        <ele>698</ele>
        <time>2019-05-04T11:09:16Z</time>
      </trkpt>
      <trkpt lat="44.45351" lon="5.26823">
        <ele>699</ele>
        <time>2019-05-04T11:09:24Z</time>
      </trkpt>
      <trkpt lat="44.45349" lon="5.26835">
        <ele>700</ele>
        <time>2019-05-04T11:09:33Z</time>
      </trkpt>
      <trkpt lat="44.4535" lon="5.26848">
        <ele>702</ele>
        <time>2019-05-04T11:09:41Z</time>
      </trkpt>
      <trkpt lat="44.45368" lon="5.26895">
        <ele>708</ele>
        <time>2019-05-04T11:10:12Z</time>
      </trkpt>
      <trkpt lat="44.45373" lon="5.26924">
        <ele>712</ele>
        <time>2019-05-04T11:10:32Z</time>
      </trkpt>
      <trkpt lat="44.45372" lon="5.26937">
        <ele>713</ele>
        <time>2019-05-04T11:10:40Z</time>
      </trkpt>
      <trkpt lat="44.45375" lon="5.26951">
        <ele>714</ele>
        <time>2019-05-04T11:10:47Z</time>
      </trkpt>
      <trkpt lat="44.45383" lon="5.26938">
        <ele>718</ele>
        <time>2019-05-04T11:11:02Z</time>
      </trkpt>
      <trkpt lat="44.45383" lon="5.26924">
        <ele>719</ele>
        <time>2019-05-04T11:11:09Z</time>
      </trkpt>
      <trkpt lat="44.45394" lon="5.26886">
        <ele>722</ele>
        <time>2019-05-04T11:11:32Z</time>
      </trkpt>
      <trkpt lat="44.45394" lon="5.26875">
        <ele>724</ele>
        <time>2019-05-04T11:11:48Z</time>
      </trkpt>
      <trkpt lat="44.45394" lon="5.26857">
        <ele>733</ele>
        <time>2019-05-04T11:13:54Z</time>
      </trkpt>
      <trkpt lat="44.45397" lon="5.26843">
        <ele>734</ele>
        <time>2019-05-04T11:14:01Z</time>
      </trkpt>
      <trkpt lat="44.45399" lon="5.2683">
        <ele>734</ele>
        <time>2019-05-04T11:14:07Z</time>
      </trkpt>
      <trkpt lat="44.45398" lon="5.26817">
        <ele>732</ele>
        <time>2019-05-04T11:14:15Z</time>
      </trkpt>
      <trkpt lat="44.454" lon="5.26803">
        <ele>732</ele>
        <time>2019-05-04T11:14:24Z</time>
      </trkpt>
      <trkpt lat="44.45421" lon="5.26748">
        <ele>737</ele>
        <time>2019-05-04T11:15:05Z</time>
      </trkpt>
      <trkpt lat="44.45426" lon="5.26733">
        <ele>740</ele>
        <time>2019-05-04T11:15:23Z</time>
      </trkpt>
      <trkpt lat="44.45426" lon="5.2672">
        <ele>741</ele>
        <time>2019-05-04T11:15:35Z</time>
      </trkpt>
      <trkpt lat="44.45427" lon="5.26704">
        <ele>743</ele>
        <time>2019-05-04T11:15:53Z</time>
      </trkpt>
      <trkpt lat="44.45432" lon="5.26689">
        <ele>745</ele>
        <time>2019-05-04T11:16:07Z</time>
      </trkpt>
      <trkpt lat="44.45436" lon="5.26673">
        <ele>744</ele>
        <time>2019-05-04T11:16:25Z</time>
      </trkpt>
      <trkpt lat="44.45441" lon="5.26663">
        <ele>746</ele>
        <time>2019-05-04T11:16:35Z</time>
      </trkpt>
      <trkpt lat="44.45447" lon="5.26642">
        <ele>750</ele>
        <time>2019-05-04T11:16:53Z</time>
      </trkpt>
      <trkpt lat="44.45455" lon="5.26627">
        <ele>751</ele>
        <time>2019-05-04T11:17:13Z</time>
      </trkpt>
      <trkpt lat="44.45458" lon="5.26616">
        <ele>752</ele>
        <time>2019-05-04T11:17:25Z</time>
      </trkpt>
      <trkpt lat="44.45479" lon="5.26595">
        <ele>762</ele>
        <time>2019-05-04T11:18:05Z</time>
      </trkpt>
      <trkpt lat="44.455" lon="5.26572">
        <ele>766</ele>
        <time>2019-05-04T11:18:27Z</time>
      </trkpt>
      <trkpt lat="44.45517" lon="5.26538">
        <ele>768</ele>
        <time>2019-05-04T11:18:44Z</time>
      </trkpt>
      <trkpt lat="44.45521" lon="5.26524">
        <ele>769</ele>
        <time>2019-05-04T11:18:49Z</time>
      </trkpt>
      <trkpt lat="44.45526" lon="5.26496">
        <ele>768</ele>
        <time>2019-05-04T11:18:55Z</time>
      </trkpt>
      <trkpt lat="44.45528" lon="5.26437">
        <ele>770</ele>
        <time>2019-05-04T11:19:07Z</time>
      </trkpt>
      <trkpt lat="44.45529" lon="5.26404">
        <ele>769</ele>
        <time>2019-05-04T11:19:12Z</time>
      </trkpt>
      <trkpt lat="44.45532" lon="5.26357">
        <ele>769</ele>
        <time>2019-05-04T11:19:20Z</time>
      </trkpt>
      <trkpt lat="44.45546" lon="5.26314">
        <ele>770</ele>
        <time>2019-05-04T11:19:29Z</time>
      </trkpt>
      <trkpt lat="44.45548" lon="5.26281">
        <ele>771</ele>
        <time>2019-05-04T11:19:36Z</time>
      </trkpt>
      <trkpt lat="44.45553" lon="5.26266">
        <ele>771</ele>
        <time>2019-05-04T11:19:40Z</time>
      </trkpt>
      <trkpt lat="44.45556" lon="5.26253">
        <ele>772</ele>
        <time>2019-05-04T11:19:43Z</time>
      </trkpt>
      <trkpt lat="44.45555" lon="5.26239">
        <ele>771</ele>
        <time>2019-05-04T11:19:46Z</time>
      </trkpt>
      <trkpt lat="44.45551" lon="5.26224">
        <ele>771</ele>
        <time>2019-05-04T11:19:49Z</time>
      </trkpt>
      <trkpt lat="44.45545" lon="5.26211">
        <ele>772</ele>
        <time>2019-05-04T11:19:52Z</time>
      </trkpt>
      <trkpt lat="44.45539" lon="5.26198">
        <ele>770</ele>
        <time>2019-05-04T11:19:55Z</time>
      </trkpt>
      <trkpt lat="44.45536" lon="5.26185">
        <ele>769</ele>
        <time>2019-05-04T11:19:58Z</time>
      </trkpt>
      <trkpt lat="44.45545" lon="5.2616">
        <ele>768</ele>
        <time>2019-05-04T11:20:06Z</time>
      </trkpt>
      <trkpt lat="44.45551" lon="5.26149">
        <ele>768</ele>
        <time>2019-05-04T11:20:10Z</time>
      </trkpt>
      <trkpt lat="44.45558" lon="5.26139">
        <ele>769</ele>
        <time>2019-05-04T11:20:16Z</time>
      </trkpt>
      <trkpt lat="44.45581" lon="5.2613">
        <ele>774</ele>
        <time>2019-05-04T11:20:30Z</time>
      </trkpt>
      <trkpt lat="44.45591" lon="5.26126">
        <ele>774</ele>
        <time>2019-05-04T11:20:37Z</time>
      </trkpt>
      <trkpt lat="44.4562" lon="5.26127">
        <ele>778</ele>
        <time>2019-05-04T11:20:57Z</time>
      </trkpt>
      <trkpt lat="44.4563" lon="5.26122">
        <ele>780</ele>
        <time>2019-05-04T11:21:02Z</time>
      </trkpt>
      <trkpt lat="44.45639" lon="5.26106">
        <ele>780</ele>
        <time>2019-05-04T11:21:16Z</time>
      </trkpt>
      <trkpt lat="44.4564" lon="5.26093">
        <ele>781</ele>
        <time>2019-05-04T11:21:21Z</time>
      </trkpt>
      <trkpt lat="44.45643" lon="5.2608">
        <ele>781</ele>
        <time>2019-05-04T11:21:27Z</time>
      </trkpt>
      <trkpt lat="44.45647" lon="5.26067">
        <ele>783</ele>
        <time>2019-05-04T11:21:35Z</time>
      </trkpt>
      <trkpt lat="44.45651" lon="5.26056">
        <ele>783</ele>
        <time>2019-05-04T11:21:42Z</time>
      </trkpt>
      <trkpt lat="44.45659" lon="5.26048">
        <ele>783</ele>
        <time>2019-05-04T11:21:48Z</time>
      </trkpt>
      <trkpt lat="44.45673" lon="5.26028">
        <ele>785</ele>
        <time>2019-05-04T11:22:02Z</time>
      </trkpt>
      <trkpt lat="44.45679" lon="5.26016">
        <ele>787</ele>
        <time>2019-05-04T11:22:09Z</time>
      </trkpt>
      <trkpt lat="44.45686" lon="5.26009">
        <ele>790</ele>
        <time>2019-05-04T11:22:16Z</time>
      </trkpt>
      <trkpt lat="44.45695" lon="5.26004">
        <ele>792</ele>
        <time>2019-05-04T11:22:22Z</time>
      </trkpt>
      <trkpt lat="44.45705" lon="5.25999">
        <ele>792</ele>
        <time>2019-05-04T11:22:30Z</time>
      </trkpt>
      <trkpt lat="44.45715" lon="5.26">
        <ele>792</ele>
        <time>2019-05-04T11:22:36Z</time>
      </trkpt>
      <trkpt lat="44.45723" lon="5.25994">
        <ele>792</ele>
        <time>2019-05-04T11:22:42Z</time>
      </trkpt>
      <trkpt lat="44.4573" lon="5.26005">
        <ele>793</ele>
        <time>2019-05-04T11:22:50Z</time>
      </trkpt>
      <trkpt lat="44.45721" lon="5.26011">
        <ele>792</ele>
        <time>2019-05-04T11:22:56Z</time>
      </trkpt>
      <trkpt lat="44.45713" lon="5.26016">
        <ele>792</ele>
        <time>2019-05-04T11:23:02Z</time>
      </trkpt>
      <trkpt lat="44.45707" lon="5.26027">
        <ele>793</ele>
        <time>2019-05-04T11:23:08Z</time>
      </trkpt>
      <trkpt lat="44.45696" lon="5.26066">
        <ele>799</ele>
        <time>2019-05-04T11:23:28Z</time>
      </trkpt>
      <trkpt lat="44.45692" lon="5.26077">
        <ele>798</ele>
        <time>2019-05-04T11:23:35Z</time>
      </trkpt>
      <trkpt lat="44.45689" lon="5.26091">
        <ele>799</ele>
        <time>2019-05-04T11:23:41Z</time>
      </trkpt>
      <trkpt lat="44.45687" lon="5.26103">
        <ele>799</ele>
        <time>2019-05-04T11:23:46Z</time>
      </trkpt>
      <trkpt lat="44.45688" lon="5.26118">
        <ele>799</ele>
        <time>2019-05-04T11:23:52Z</time>
      </trkpt>
      <trkpt lat="44.45688" lon="5.26165">
        <ele>805</ele>
        <time>2019-05-04T11:24:12Z</time>
      </trkpt>
      <trkpt lat="44.45684" lon="5.26183">
        <ele>805</ele>
        <time>2019-05-04T11:24:25Z</time>
      </trkpt>
      <trkpt lat="44.4568" lon="5.26196">
        <ele>807</ele>
        <time>2019-05-04T11:24:31Z</time>
      </trkpt>
      <trkpt lat="44.45681" lon="5.26209">
        <ele>808</ele>
        <time>2019-05-04T11:24:36Z</time>
      </trkpt>
      <trkpt lat="44.4568" lon="5.26223">
        <ele>808</ele>
        <time>2019-05-04T11:24:42Z</time>
      </trkpt>
      <trkpt lat="44.45672" lon="5.26233">
        <ele>809</ele>
        <time>2019-05-04T11:24:47Z</time>
      </trkpt>
      <trkpt lat="44.45665" lon="5.26228">
        <ele>809</ele>
        <time>2019-05-04T11:26:21Z</time>
      </trkpt>
      <trkpt lat="44.45675" lon="5.26213">
        <ele>811</ele>
        <time>2019-05-04T11:26:54Z</time>
      </trkpt>
      <trkpt lat="44.45681" lon="5.262">
        <ele>810</ele>
        <time>2019-05-04T11:26:56Z</time>
      </trkpt>
      <trkpt lat="44.45687" lon="5.26141">
        <ele>811</ele>
        <time>2019-05-04T11:27:03Z</time>
      </trkpt>
      <trkpt lat="44.45699" lon="5.26069">
        <ele>807</ele>
        <time>2019-05-04T11:27:09Z</time>
      </trkpt>
      <trkpt lat="44.45722" lon="5.26009">
        <ele>804</ele>
        <time>2019-05-04T11:27:15Z</time>
      </trkpt>
      <trkpt lat="44.45711" lon="5.26">
        <ele>798</ele>
        <time>2019-05-04T11:27:23Z</time>
      </trkpt>
      <trkpt lat="44.45697" lon="5.26003">
        <ele>793</ele>
        <time>2019-05-04T11:27:25Z</time>
      </trkpt>
      <trkpt lat="44.45686" lon="5.26011">
        <ele>792</ele>
        <time>2019-05-04T11:27:27Z</time>
      </trkpt>
      <trkpt lat="44.45672" lon="5.26024">
        <ele>791</ele>
        <time>2019-05-04T11:27:29Z</time>
      </trkpt>
      <trkpt lat="44.45661" lon="5.26037">
        <ele>791</ele>
        <time>2019-05-04T11:27:31Z</time>
      </trkpt>
      <trkpt lat="44.45652" lon="5.2605">
        <ele>790</ele>
        <time>2019-05-04T11:27:33Z</time>
      </trkpt>
      <trkpt lat="44.45636" lon="5.26101">
        <ele>788</ele>
        <time>2019-05-04T11:27:37Z</time>
      </trkpt>
      <trkpt lat="44.45629" lon="5.26117">
        <ele>787</ele>
        <time>2019-05-04T11:27:39Z</time>
      </trkpt>
      <trkpt lat="44.45618" lon="5.26128">
        <ele>787</ele>
        <time>2019-05-04T11:27:40Z</time>
      </trkpt>
      <trkpt lat="44.45605" lon="5.2613">
        <ele>787</ele>
        <time>2019-05-04T11:27:41Z</time>
      </trkpt>
      <trkpt lat="44.45583" lon="5.26133">
        <ele>786</ele>
        <time>2019-05-04T11:27:43Z</time>
      </trkpt>
      <trkpt lat="44.45574" lon="5.26136">
        <ele>785</ele>
        <time>2019-05-04T11:27:44Z</time>
      </trkpt>
      <trkpt lat="44.45563" lon="5.26142">
        <ele>781</ele>
        <time>2019-05-04T11:27:46Z</time>
      </trkpt>
      <trkpt lat="44.45542" lon="5.2617">
        <ele>776</ele>
        <time>2019-05-04T11:27:49Z</time>
      </trkpt>
      <trkpt lat="44.45531" lon="5.26175">
        <ele>774</ele>
        <time>2019-05-04T11:27:51Z</time>
      </trkpt>
      <trkpt lat="44.45522" lon="5.26129">
        <ele>769</ele>
        <time>2019-05-04T11:27:57Z</time>
      </trkpt>
      <trkpt lat="44.45518" lon="5.26115">
        <ele>769</ele>
        <time>2019-05-04T11:27:59Z</time>
      </trkpt>
      <trkpt lat="44.45511" lon="5.261">
        <ele>769</ele>
        <time>2019-05-04T11:28:01Z</time>
      </trkpt>
      <trkpt lat="44.455" lon="5.26087">
        <ele>767</ele>
        <time>2019-05-04T11:28:03Z</time>
      </trkpt>
      <trkpt lat="44.45493" lon="5.26078">
        <ele>767</ele>
        <time>2019-05-04T11:28:05Z</time>
      </trkpt>
      <trkpt lat="44.4547" lon="5.26046">
        <ele>765</ele>
        <time>2019-05-04T11:28:10Z</time>
      </trkpt>
      <trkpt lat="44.45452" lon="5.26081">
        <ele>762</ele>
        <time>2019-05-04T11:28:23Z</time>
      </trkpt>
      <trkpt lat="44.45445" lon="5.2608">
        <ele>761</ele>
        <time>2019-05-04T11:28:27Z</time>
      </trkpt>
      <trkpt lat="44.45416" lon="5.26072">
        <ele>759</ele>
        <time>2019-05-04T11:28:52Z</time>
      </trkpt>
      <trkpt lat="44.4541" lon="5.26062">
        <ele>759</ele>
        <time>2019-05-04T11:29:00Z</time>
      </trkpt>
      <trkpt lat="44.45396" lon="5.26059">
        <ele>761</ele>
        <time>2019-05-04T11:29:17Z</time>
      </trkpt>
      <trkpt lat="44.45387" lon="5.26063">
        <ele>762</ele>
        <time>2019-05-04T11:29:27Z</time>
      </trkpt>
      <trkpt lat="44.45377" lon="5.26063">
        <ele>765</ele>
        <time>2019-05-04T11:30:05Z</time>
      </trkpt>
      <trkpt lat="44.45367" lon="5.26063">
        <ele>765</ele>
        <time>2019-05-04T11:30:23Z</time>
      </trkpt>
      <trkpt lat="44.45356" lon="5.26065">
        <ele>766</ele>
        <time>2019-05-04T11:30:38Z</time>
      </trkpt>
      <trkpt lat="44.45346" lon="5.26069">
        <ele>769</ele>
        <time>2019-05-04T11:30:54Z</time>
      </trkpt>
      <trkpt lat="44.45323" lon="5.26072">
        <ele>775</ele>
        <time>2019-05-04T11:31:36Z</time>
      </trkpt>
      <trkpt lat="44.45312" lon="5.26076">
        <ele>778</ele>
        <time>2019-05-04T11:32:00Z</time>
      </trkpt>
      <trkpt lat="44.45301" lon="5.26082">
        <ele>779</ele>
        <time>2019-05-04T11:32:19Z</time>
      </trkpt>
      <trkpt lat="44.4529" lon="5.26085">
        <ele>783</ele>
        <time>2019-05-04T11:32:49Z</time>
      </trkpt>
      <trkpt lat="44.45281" lon="5.26082">
        <ele>790</ele>
        <time>2019-05-04T11:33:19Z</time>
      </trkpt>
      <trkpt lat="44.45269" lon="5.26078">
        <ele>794</ele>
        <time>2019-05-04T11:34:04Z</time>
      </trkpt>
      <trkpt lat="44.45258" lon="5.26085">
        <ele>798</ele>
        <time>2019-05-04T11:34:45Z</time>
      </trkpt>
      <trkpt lat="44.45249" lon="5.26083">
        <ele>801</ele>
        <time>2019-05-04T11:34:58Z</time>
      </trkpt>
      <trkpt lat="44.45242" lon="5.26093">
        <ele>804</ele>
        <time>2019-05-04T11:35:40Z</time>
      </trkpt>
      <trkpt lat="44.45231" lon="5.26095">
        <ele>807</ele>
        <time>2019-05-04T11:36:10Z</time>
      </trkpt>
      <trkpt lat="44.45218" lon="5.26094">
        <ele>809</ele>
        <time>2019-05-04T11:36:24Z</time>
      </trkpt>
      <trkpt lat="44.45198" lon="5.26097">
        <ele>817</ele>
        <time>2019-05-04T11:37:56Z</time>
      </trkpt>
      <trkpt lat="44.45189" lon="5.26101">
        <ele>822</ele>
        <time>2019-05-04T11:38:14Z</time>
      </trkpt>
      <trkpt lat="44.45177" lon="5.26109">
        <ele>827</ele>
        <time>2019-05-04T11:38:46Z</time>
      </trkpt>
      <trkpt lat="44.45165" lon="5.26116">
        <ele>836</ele>
        <time>2019-05-04T11:40:14Z</time>
      </trkpt>
      <trkpt lat="44.45155" lon="5.26116">
        <ele>838</ele>
        <time>2019-05-04T11:40:25Z</time>
      </trkpt>
      <trkpt lat="44.45146" lon="5.26119">
        <ele>839</ele>
        <time>2019-05-04T11:40:33Z</time>
      </trkpt>
      <trkpt lat="44.45135" lon="5.26124">
        <ele>840</ele>
        <time>2019-05-04T11:40:51Z</time>
      </trkpt>
      <trkpt lat="44.45127" lon="5.26129">
        <ele>844</ele>
        <time>2019-05-04T11:41:21Z</time>
      </trkpt>
      <trkpt lat="44.4511" lon="5.26133">
        <ele>845</ele>
        <time>2019-05-04T11:41:44Z</time>
      </trkpt>
      <trkpt lat="44.45106" lon="5.26122">
        <ele>850</ele>
        <time>2019-05-04T11:42:07Z</time>
      </trkpt>
      <trkpt lat="44.45096" lon="5.26115">
        <ele>851</ele>
        <time>2019-05-04T11:42:37Z</time>
      </trkpt>
      <trkpt lat="44.45089" lon="5.26106">
        <ele>854</ele>
        <time>2019-05-04T11:43:07Z</time>
      </trkpt>
      <trkpt lat="44.45078" lon="5.26102">
        <ele>857</ele>
        <time>2019-05-04T11:43:25Z</time>
      </trkpt>
      <trkpt lat="44.45057" lon="5.26103">
        <ele>858</ele>
        <time>2019-05-04T11:43:38Z</time>
      </trkpt>
      <trkpt lat="44.45048" lon="5.26108">
        <ele>858</ele>
        <time>2019-05-04T11:43:45Z</time>
      </trkpt>
      <trkpt lat="44.45046" lon="5.26094">
        <ele>860</ele>
        <time>2019-05-04T11:44:05Z</time>
      </trkpt>
      <trkpt lat="44.45035" lon="5.26097">
        <ele>864</ele>
        <time>2019-05-04T11:44:19Z</time>
      </trkpt>
      <trkpt lat="44.45019" lon="5.26088">
        <ele>864</ele>
        <time>2019-05-04T11:44:43Z</time>
      </trkpt>
      <trkpt lat="44.45013" lon="5.26076">
        <ele>868</ele>
        <time>2019-05-04T11:45:03Z</time>
      </trkpt>
      <trkpt lat="44.44999" lon="5.26085">
        <ele>867</ele>
        <time>2019-05-04T11:45:20Z</time>
      </trkpt>
      <trkpt lat="44.44991" lon="5.26071">
        <ele>867</ele>
        <time>2019-05-04T11:45:40Z</time>
      </trkpt>
      <trkpt lat="44.44982" lon="5.26068">
        <ele>885</ele>
        <time>2019-05-04T11:46:40Z</time>
      </trkpt>
      <trkpt lat="44.4497" lon="5.26066">
        <ele>887</ele>
        <time>2019-05-04T11:46:57Z</time>
      </trkpt>
      <trkpt lat="44.44961" lon="5.26058">
        <ele>889</ele>
        <time>2019-05-04T11:47:21Z</time>
      </trkpt>
      <trkpt lat="44.4495" lon="5.26059">
        <ele>895</ele>
        <time>2019-05-04T11:47:51Z</time>
      </trkpt>
      <trkpt lat="44.44939" lon="5.26062">
        <ele>896</ele>
        <time>2019-05-04T11:48:02Z</time>
      </trkpt>
      <trkpt lat="44.44931" lon="5.26053">
        <ele>898</ele>
        <time>2019-05-04T11:48:26Z</time>
      </trkpt>
      <trkpt lat="44.44936" lon="5.26038">
        <ele>900</ele>
        <time>2019-05-04T11:48:51Z</time>
      </trkpt>
      <trkpt lat="44.44925" lon="5.26033">
        <ele>901</ele>
        <time>2019-05-04T11:49:09Z</time>
      </trkpt>
      <trkpt lat="44.44915" lon="5.26032">
        <ele>901</ele>
        <time>2019-05-04T11:49:19Z</time>
      </trkpt>
      <trkpt lat="44.44918" lon="5.26045">
        <ele>858</ele>
        <time>2019-05-04T12:56:14Z</time>
      </trkpt>
      <trkpt lat="44.44921" lon="5.26041">
        <ele>902</ele>
        <time>2019-05-04T12:56:20Z</time>
      </trkpt>
      <trkpt lat="44.44923" lon="5.26032">
        <ele>903</ele>
        <time>2019-05-04T12:56:39Z</time>
      </trkpt>
      <trkpt lat="44.44912" lon="5.26033">
        <ele>903</ele>
        <time>2019-05-04T12:59:53Z</time>
      </trkpt>
      <trkpt lat="44.44904" lon="5.26042">
        <ele>908</ele>
        <time>2019-05-04T13:01:01Z</time>
      </trkpt>
      <trkpt lat="44.44898" lon="5.2603">
        <ele>908</ele>
        <time>2019-05-04T13:02:09Z</time>
      </trkpt>
      <trkpt lat="44.44882" lon="5.26038">
        <ele>911</ele>
        <time>2019-05-04T13:03:08Z</time>
      </trkpt>
      <trkpt lat="44.44893" lon="5.26047">
        <ele>910</ele>
        <time>2019-05-04T13:03:25Z</time>
      </trkpt>
      <trkpt lat="44.44874" lon="5.2605">
        <ele>910</ele>
        <time>2019-05-04T13:04:00Z</time>
      </trkpt>
      <trkpt lat="44.44865" lon="5.26049">
        <ele>911</ele>
        <time>2019-05-04T13:04:05Z</time>
      </trkpt>
      <trkpt lat="44.44857" lon="5.26047">
        <ele>912</ele>
        <time>2019-05-04T13:04:13Z</time>
      </trkpt>
      <trkpt lat="44.44844" lon="5.26057">
        <ele>911</ele>
        <time>2019-05-04T13:04:38Z</time>
      </trkpt>
      <trkpt lat="44.44833" lon="5.26062">
        <ele>911</ele>
        <time>2019-05-04T13:04:47Z</time>
      </trkpt>
      <trkpt lat="44.44825" lon="5.26067">
        <ele>913</ele>
        <time>2019-05-04T13:04:57Z</time>
      </trkpt>
      <trkpt lat="44.44809" lon="5.26091">
        <ele>915</ele>
        <time>2019-05-04T13:05:20Z</time>
      </trkpt>
      <trkpt lat="44.44801" lon="5.26094">
        <ele>916</ele>
        <time>2019-05-04T13:05:26Z</time>
      </trkpt>
      <trkpt lat="44.44794" lon="5.26103">
        <ele>916</ele>
        <time>2019-05-04T13:05:32Z</time>
      </trkpt>
      <trkpt lat="44.44789" lon="5.26115">
        <ele>916</ele>
        <time>2019-05-04T13:05:38Z</time>
      </trkpt>
      <trkpt lat="44.44784" lon="5.2614">
        <ele>919</ele>
        <time>2019-05-04T13:05:58Z</time>
      </trkpt>
      <trkpt lat="44.44783" lon="5.26163">
        <ele>919</ele>
        <time>2019-05-04T13:06:31Z</time>
      </trkpt>
      <trkpt lat="44.44782" lon="5.26177">
        <ele>920</ele>
        <time>2019-05-04T13:06:38Z</time>
      </trkpt>
      <trkpt lat="44.44777" lon="5.26193">
        <ele>920</ele>
        <time>2019-05-04T13:06:44Z</time>
      </trkpt>
      <trkpt lat="44.44772" lon="5.26206">
        <ele>920</ele>
        <time>2019-05-04T13:06:50Z</time>
      </trkpt>
      <trkpt lat="44.44759" lon="5.26224">
        <ele>920</ele>
        <time>2019-05-04T13:07:00Z</time>
      </trkpt>
      <trkpt lat="44.44752" lon="5.26233">
        <ele>921</ele>
        <time>2019-05-04T13:07:05Z</time>
      </trkpt>
      <trkpt lat="44.44752" lon="5.26246">
        <ele>922</ele>
        <time>2019-05-04T13:08:19Z</time>
      </trkpt>
      <trkpt lat="44.44736" lon="5.26265">
        <ele>924</ele>
        <time>2019-05-04T13:08:30Z</time>
      </trkpt>
      <trkpt lat="44.44729" lon="5.26273">
        <ele>925</ele>
        <time>2019-05-04T13:08:33Z</time>
      </trkpt>
      <trkpt lat="44.44723" lon="5.26283">
        <ele>924</ele>
        <time>2019-05-04T13:08:36Z</time>
      </trkpt>
      <trkpt lat="44.44722" lon="5.26297">
        <ele>925</ele>
        <time>2019-05-04T13:08:42Z</time>
      </trkpt>
      <trkpt lat="44.44723" lon="5.26309">
        <ele>926</ele>
        <time>2019-05-04T13:08:48Z</time>
      </trkpt>
      <trkpt lat="44.44715" lon="5.26321">
        <ele>926</ele>
        <time>2019-05-04T13:08:52Z</time>
      </trkpt>
      <trkpt lat="44.44714" lon="5.26342">
        <ele>926</ele>
        <time>2019-05-04T13:09:04Z</time>
      </trkpt>
      <trkpt lat="44.44706" lon="5.26353">
        <ele>926</ele>
        <time>2019-05-04T13:09:09Z</time>
      </trkpt>
      <trkpt lat="44.44699" lon="5.26367">
        <ele>926</ele>
        <time>2019-05-04T13:09:14Z</time>
      </trkpt>
      <trkpt lat="44.44691" lon="5.2638">
        <ele>926</ele>
        <time>2019-05-04T13:09:19Z</time>
      </trkpt>
      <trkpt lat="44.44685" lon="5.2639">
        <ele>927</ele>
        <time>2019-05-04T13:09:23Z</time>
      </trkpt>
      <trkpt lat="44.44675" lon="5.26408">
        <ele>925</ele>
        <time>2019-05-04T13:09:32Z</time>
      </trkpt>
      <trkpt lat="44.44668" lon="5.26428">
        <ele>925</ele>
        <time>2019-05-04T13:09:40Z</time>
      </trkpt>
      <trkpt lat="44.44656" lon="5.26439">
        <ele>925</ele>
        <time>2019-05-04T13:09:47Z</time>
      </trkpt>
      <trkpt lat="44.4465" lon="5.26486">
        <ele>924</ele>
        <time>2019-05-04T13:10:05Z</time>
      </trkpt>
      <trkpt lat="44.44642" lon="5.26508">
        <ele>923</ele>
        <time>2019-05-04T13:10:22Z</time>
      </trkpt>
      <trkpt lat="44.44635" lon="5.26517">
        <ele>922</ele>
        <time>2019-05-04T13:10:30Z</time>
      </trkpt>
      <trkpt lat="44.44625" lon="5.26538">
        <ele>922</ele>
        <time>2019-05-04T13:10:38Z</time>
      </trkpt>
      <trkpt lat="44.44619" lon="5.26548">
        <ele>922</ele>
        <time>2019-05-04T13:10:44Z</time>
      </trkpt>
      <trkpt lat="44.4461" lon="5.26567">
        <ele>923</ele>
        <time>2019-05-04T13:10:56Z</time>
      </trkpt>
      <trkpt lat="44.446" lon="5.26577">
        <ele>924</ele>
        <time>2019-05-04T13:11:20Z</time>
      </trkpt>
      <trkpt lat="44.4459" lon="5.26588">
        <ele>924</ele>
        <time>2019-05-04T13:11:28Z</time>
      </trkpt>
      <trkpt lat="44.44582" lon="5.26596">
        <ele>925</ele>
        <time>2019-05-04T13:11:32Z</time>
      </trkpt>
      <trkpt lat="44.44575" lon="5.2661">
        <ele>924</ele>
        <time>2019-05-04T13:11:38Z</time>
      </trkpt>
      <trkpt lat="44.44568" lon="5.26616">
        <ele>924</ele>
        <time>2019-05-04T13:11:47Z</time>
      </trkpt>
      <trkpt lat="44.44557" lon="5.26616">
        <ele>921</ele>
        <time>2019-05-04T13:14:21Z</time>
      </trkpt>
      <trkpt lat="44.44547" lon="5.26614">
        <ele>922</ele>
        <time>2019-05-04T13:14:25Z</time>
      </trkpt>
      <trkpt lat="44.44538" lon="5.26612">
        <ele>920</ele>
        <time>2019-05-04T13:14:29Z</time>
      </trkpt>
      <trkpt lat="44.44526" lon="5.26615">
        <ele>919</ele>
        <time>2019-05-04T13:14:38Z</time>
      </trkpt>
      <trkpt lat="44.44516" lon="5.2661">
        <ele>919</ele>
        <time>2019-05-04T13:14:43Z</time>
      </trkpt>
      <trkpt lat="44.44508" lon="5.26604">
        <ele>918</ele>
        <time>2019-05-04T13:14:47Z</time>
      </trkpt>
      <trkpt lat="44.44497" lon="5.26602">
        <ele>915</ele>
        <time>2019-05-04T13:14:56Z</time>
      </trkpt>
      <trkpt lat="44.44488" lon="5.26598">
        <ele>913</ele>
        <time>2019-05-04T13:15:01Z</time>
      </trkpt>
      <trkpt lat="44.44475" lon="5.26595">
        <ele>913</ele>
        <time>2019-05-04T13:15:08Z</time>
      </trkpt>
      <trkpt lat="44.44443" lon="5.26575">
        <ele>910</ele>
        <time>2019-05-04T13:15:39Z</time>
      </trkpt>
      <trkpt lat="44.44431" lon="5.26578">
        <ele>909</ele>
        <time>2019-05-04T13:15:45Z</time>
      </trkpt>
      <trkpt lat="44.4442" lon="5.26576">
        <ele>908</ele>
        <time>2019-05-04T13:15:49Z</time>
      </trkpt>
      <trkpt lat="44.4441" lon="5.26579">
        <ele>907</ele>
        <time>2019-05-04T13:15:55Z</time>
      </trkpt>
      <trkpt lat="44.44401" lon="5.26586">
        <ele>905</ele>
        <time>2019-05-04T13:16:00Z</time>
      </trkpt>
      <trkpt lat="44.4438" lon="5.26585">
        <ele>905</ele>
        <time>2019-05-04T13:16:06Z</time>
      </trkpt>
      <trkpt lat="44.44369" lon="5.26588">
        <ele>905</ele>
        <time>2019-05-04T13:16:09Z</time>
      </trkpt>
      <trkpt lat="44.4436" lon="5.26594">
        <ele>904</ele>
        <time>2019-05-04T13:16:13Z</time>
      </trkpt>
      <trkpt lat="44.4435" lon="5.26598">
        <ele>901</ele>
        <time>2019-05-04T13:16:18Z</time>
      </trkpt>
      <trkpt lat="44.4434" lon="5.26595">
        <ele>901</ele>
        <time>2019-05-04T13:16:21Z</time>
      </trkpt>
      <trkpt lat="44.44331" lon="5.26589">
        <ele>900</ele>
        <time>2019-05-04T13:16:25Z</time>
      </trkpt>
      <trkpt lat="44.44323" lon="5.26576">
        <ele>899</ele>
        <time>2019-05-04T13:16:29Z</time>
      </trkpt>
      <trkpt lat="44.44314" lon="5.26569">
        <ele>897</ele>
        <time>2019-05-04T13:16:34Z</time>
      </trkpt>
      <trkpt lat="44.44304" lon="5.26563">
        <ele>897</ele>
        <time>2019-05-04T13:16:38Z</time>
      </trkpt>
      <trkpt lat="44.44294" lon="5.26559">
        <ele>898</ele>
        <time>2019-05-04T13:16:42Z</time>
      </trkpt>
      <trkpt lat="44.44283" lon="5.2656">
        <ele>896</ele>
        <time>2019-05-04T13:16:47Z</time>
      </trkpt>
      <trkpt lat="44.44272" lon="5.2656">
        <ele>896</ele>
        <time>2019-05-04T13:16:54Z</time>
      </trkpt>
      <trkpt lat="44.44263" lon="5.26558">
        <ele>895</ele>
        <time>2019-05-04T13:16:58Z</time>
      </trkpt>
      <trkpt lat="44.4421" lon="5.26519">
        <ele>890</ele>
        <time>2019-05-04T13:17:26Z</time>
      </trkpt>
      <trkpt lat="44.44193" lon="5.26482">
        <ele>888</ele>
        <time>2019-05-04T13:17:40Z</time>
      </trkpt>
      <trkpt lat="44.44185" lon="5.26473">
        <ele>886</ele>
        <time>2019-05-04T13:17:44Z</time>
      </trkpt>
      <trkpt lat="44.44179" lon="5.26462">
        <ele>884</ele>
        <time>2019-05-04T13:17:48Z</time>
      </trkpt>
      <trkpt lat="44.44163" lon="5.26442">
        <ele>880</ele>
        <time>2019-05-04T13:17:57Z</time>
      </trkpt>
      <trkpt lat="44.44133" lon="5.26398">
        <ele>878</ele>
        <time>2019-05-04T13:18:10Z</time>
      </trkpt>
      <trkpt lat="44.44124" lon="5.26391">
        <ele>874</ele>
        <time>2019-05-04T13:18:14Z</time>
      </trkpt>
      <trkpt lat="44.44115" lon="5.26382">
        <ele>872</ele>
        <time>2019-05-04T13:18:18Z</time>
      </trkpt>
      <trkpt lat="44.44105" lon="5.26375">
        <ele>872</ele>
        <time>2019-05-04T13:18:22Z</time>
      </trkpt>
      <trkpt lat="44.44048" lon="5.26336">
        <ele>863</ele>
        <time>2019-05-04T13:18:43Z</time>
      </trkpt>
      <trkpt lat="44.44038" lon="5.26325">
        <ele>862</ele>
        <time>2019-05-04T13:18:50Z</time>
      </trkpt>
      <trkpt lat="44.44019" lon="5.26315">
        <ele>859</ele>
        <time>2019-05-04T13:18:59Z</time>
      </trkpt>
      <trkpt lat="44.44002" lon="5.263">
        <ele>858</ele>
        <time>2019-05-04T13:19:11Z</time>
      </trkpt>
      <trkpt lat="44.43995" lon="5.26291">
        <ele>856</ele>
        <time>2019-05-04T13:19:16Z</time>
      </trkpt>
      <trkpt lat="44.43989" lon="5.26278">
        <ele>857</ele>
        <time>2019-05-04T13:19:22Z</time>
      </trkpt>
      <trkpt lat="44.43984" lon="5.26268">
        <ele>854</ele>
        <time>2019-05-04T13:19:49Z</time>
      </trkpt>
      <trkpt lat="44.43974" lon="5.26244">
        <ele>847</ele>
        <time>2019-05-04T13:20:27Z</time>
      </trkpt>
      <trkpt lat="44.43969" lon="5.26233">
        <ele>848</ele>
        <time>2019-05-04T13:20:31Z</time>
      </trkpt>
      <trkpt lat="44.43964" lon="5.26218">
        <ele>849</ele>
        <time>2019-05-04T13:20:35Z</time>
      </trkpt>
      <trkpt lat="44.43957" lon="5.26207">
        <ele>848</ele>
        <time>2019-05-04T13:20:38Z</time>
      </trkpt>
      <trkpt lat="44.4395" lon="5.26199">
        <ele>849</ele>
        <time>2019-05-04T13:20:41Z</time>
      </trkpt>
      <trkpt lat="44.4392" lon="5.26176">
        <ele>851</ele>
        <time>2019-05-04T13:20:54Z</time>
      </trkpt>
      <trkpt lat="44.43895" lon="5.26169">
        <ele>852</ele>
        <time>2019-05-04T13:21:08Z</time>
      </trkpt>
      <trkpt lat="44.43875" lon="5.26168">
        <ele>854</ele>
        <time>2019-05-04T13:21:21Z</time>
      </trkpt>
      <trkpt lat="44.43866" lon="5.26166">
        <ele>854</ele>
        <time>2019-05-04T13:21:26Z</time>
      </trkpt>
      <trkpt lat="44.43857" lon="5.2616">
        <ele>855</ele>
        <time>2019-05-04T13:21:33Z</time>
      </trkpt>
      <trkpt lat="44.43834" lon="5.26153">
        <ele>856</ele>
        <time>2019-05-04T13:21:46Z</time>
      </trkpt>
      <trkpt lat="44.43796" lon="5.2613">
        <ele>857</ele>
        <time>2019-05-04T13:22:06Z</time>
      </trkpt>
      <trkpt lat="44.43792" lon="5.26118">
        <ele>857</ele>
        <time>2019-05-04T13:22:10Z</time>
      </trkpt>
      <trkpt lat="44.43787" lon="5.26106">
        <ele>856</ele>
        <time>2019-05-04T13:22:13Z</time>
      </trkpt>
      <trkpt lat="44.43778" lon="5.26098">
        <ele>856</ele>
        <time>2019-05-04T13:22:16Z</time>
      </trkpt>
      <trkpt lat="44.43756" lon="5.26088">
        <ele>855</ele>
        <time>2019-05-04T13:22:22Z</time>
      </trkpt>
      <trkpt lat="44.43706" lon="5.25999">
        <ele>846</ele>
        <time>2019-05-04T13:22:47Z</time>
      </trkpt>
      <trkpt lat="44.43695" lon="5.25971">
        <ele>843</ele>
        <time>2019-05-04T13:22:53Z</time>
      </trkpt>
      <trkpt lat="44.43628" lon="5.25871">
        <ele>829</ele>
        <time>2019-05-04T13:23:21Z</time>
      </trkpt>
      <trkpt lat="44.43624" lon="5.2586">
        <ele>828</ele>
        <time>2019-05-04T13:23:25Z</time>
      </trkpt>
      <trkpt lat="44.43619" lon="5.25843">
        <ele>826</ele>
        <time>2019-05-04T13:23:31Z</time>
      </trkpt>
      <trkpt lat="44.43614" lon="5.25832">
        <ele>825</ele>
        <time>2019-05-04T13:23:34Z</time>
      </trkpt>
      <trkpt lat="44.43603" lon="5.25826">
        <ele>824</ele>
        <time>2019-05-04T13:23:38Z</time>
      </trkpt>
      <trkpt lat="44.43592" lon="5.25822">
        <ele>824</ele>
        <time>2019-05-04T13:23:41Z</time>
      </trkpt>
      <trkpt lat="44.4358" lon="5.25817">
        <ele>821</ele>
        <time>2019-05-04T13:23:44Z</time>
      </trkpt>
      <trkpt lat="44.43573" lon="5.25809">
        <ele>822</ele>
        <time>2019-05-04T13:23:46Z</time>
      </trkpt>
      <trkpt lat="44.43565" lon="5.25802">
        <ele>820</ele>
        <time>2019-05-04T13:23:48Z</time>
      </trkpt>
      <trkpt lat="44.43552" lon="5.258">
        <ele>821</ele>
        <time>2019-05-04T13:23:51Z</time>
      </trkpt>
      <trkpt lat="44.43541" lon="5.25806">
        <ele>821</ele>
        <time>2019-05-04T13:23:54Z</time>
      </trkpt>
      <trkpt lat="44.43533" lon="5.25801">
        <ele>820</ele>
        <time>2019-05-04T13:23:56Z</time>
      </trkpt>
      <trkpt lat="44.4352" lon="5.25795">
        <ele>819</ele>
        <time>2019-05-04T13:23:59Z</time>
      </trkpt>
      <trkpt lat="44.43511" lon="5.25792">
        <ele>819</ele>
        <time>2019-05-04T13:24:01Z</time>
      </trkpt>
      <trkpt lat="44.43494" lon="5.2578">
        <ele>821</ele>
        <time>2019-05-04T13:24:06Z</time>
      </trkpt>
      <trkpt lat="44.43485" lon="5.2577">
        <ele>821</ele>
        <time>2019-05-04T13:24:09Z</time>
      </trkpt>
      <trkpt lat="44.43466" lon="5.25762">
        <ele>819</ele>
        <time>2019-05-04T13:24:15Z</time>
      </trkpt>
      <trkpt lat="44.43443" lon="5.25755">
        <ele>818</ele>
        <time>2019-05-04T13:24:22Z</time>
      </trkpt>
      <trkpt lat="44.43434" lon="5.2575">
        <ele>817</ele>
        <time>2019-05-04T13:24:24Z</time>
      </trkpt>
      <trkpt lat="44.43426" lon="5.2574">
        <ele>817</ele>
        <time>2019-05-04T13:24:25Z</time>
      </trkpt>
      <trkpt lat="44.43407" lon="5.25728">
        <ele>816</ele>
        <time>2019-05-04T13:24:29Z</time>
      </trkpt>
      <trkpt lat="44.434" lon="5.25719">
        <ele>813</ele>
        <time>2019-05-04T13:24:32Z</time>
      </trkpt>
      <trkpt lat="44.43387" lon="5.25714">
        <ele>813</ele>
        <time>2019-05-04T13:24:35Z</time>
      </trkpt>
      <trkpt lat="44.43375" lon="5.25711">
        <ele>812</ele>
        <time>2019-05-04T13:24:38Z</time>
      </trkpt>
      <trkpt lat="44.43363" lon="5.25712">
        <ele>811</ele>
        <time>2019-05-04T13:24:41Z</time>
      </trkpt>
      <trkpt lat="44.43353" lon="5.2571">
        <ele>808</ele>
        <time>2019-05-04T13:24:44Z</time>
      </trkpt>
      <trkpt lat="44.43322" lon="5.25663">
        <ele>800</ele>
        <time>2019-05-04T13:24:54Z</time>
      </trkpt>
      <trkpt lat="44.43291" lon="5.25665">
        <ele>793</ele>
        <time>2019-05-04T13:25:01Z</time>
      </trkpt>
      <trkpt lat="44.43277" lon="5.2566">
        <ele>793</ele>
        <time>2019-05-04T13:25:04Z</time>
      </trkpt>
      <trkpt lat="44.43251" lon="5.25633">
        <ele>788</ele>
        <time>2019-05-04T13:25:10Z</time>
      </trkpt>
      <trkpt lat="44.4324" lon="5.25632">
        <ele>787</ele>
        <time>2019-05-04T13:25:13Z</time>
      </trkpt>
      <trkpt lat="44.43227" lon="5.25631">
        <ele>787</ele>
        <time>2019-05-04T13:25:16Z</time>
      </trkpt>
      <trkpt lat="44.43216" lon="5.25626">
        <ele>787</ele>
        <time>2019-05-04T13:25:19Z</time>
      </trkpt>
      <trkpt lat="44.43205" lon="5.25622">
        <ele>786</ele>
        <time>2019-05-04T13:25:22Z</time>
      </trkpt>
      <trkpt lat="44.43194" lon="5.25623">
        <ele>786</ele>
        <time>2019-05-04T13:25:25Z</time>
      </trkpt>
      <trkpt lat="44.43183" lon="5.25626">
        <ele>786</ele>
        <time>2019-05-04T13:25:26Z</time>
      </trkpt>
      <trkpt lat="44.43177" lon="5.2563">
        <ele>780</ele>
        <time>2019-05-04T13:26:15Z</time>
      </trkpt>
      <trkpt lat="44.43161" lon="5.25629">
        <ele>780</ele>
        <time>2019-05-04T13:26:22Z</time>
      </trkpt>
      <trkpt lat="44.4315" lon="5.25634">
        <ele>781</ele>
        <time>2019-05-04T13:26:26Z</time>
      </trkpt>
      <trkpt lat="44.4314" lon="5.25637">
        <ele>780</ele>
        <time>2019-05-04T13:26:28Z</time>
      </trkpt>
      <trkpt lat="44.4312" lon="5.25645">
        <ele>781</ele>
        <time>2019-05-04T13:26:32Z</time>
      </trkpt>
      <trkpt lat="44.4311" lon="5.25649">
        <ele>782</ele>
        <time>2019-05-04T13:26:34Z</time>
      </trkpt>
      <trkpt lat="44.43098" lon="5.25654">
        <ele>782</ele>
        <time>2019-05-04T13:26:36Z</time>
      </trkpt>
      <trkpt lat="44.43062" lon="5.25686">
        <ele>782</ele>
        <time>2019-05-04T13:26:46Z</time>
      </trkpt>
      <trkpt lat="44.43052" lon="5.25687">
        <ele>781</ele>
        <time>2019-05-04T13:26:49Z</time>
      </trkpt>
      <trkpt lat="44.43036" lon="5.25699">
        <ele>783</ele>
        <time>2019-05-04T13:26:58Z</time>
      </trkpt>
      <trkpt lat="44.43011" lon="5.25722">
        <ele>791</ele>
        <time>2019-05-04T13:27:21Z</time>
      </trkpt>
      <trkpt lat="44.43005" lon="5.25732">
        <ele>791</ele>
        <time>2019-05-04T13:27:29Z</time>
      </trkpt>
      <trkpt lat="44.42986" lon="5.25742">
        <ele>797</ele>
        <time>2019-05-04T13:28:02Z</time>
      </trkpt>
      <trkpt lat="44.42977" lon="5.25743">
        <ele>799</ele>
        <time>2019-05-04T13:28:09Z</time>
      </trkpt>
      <trkpt lat="44.42966" lon="5.25752">
        <ele>800</ele>
        <time>2019-05-04T13:28:26Z</time>
      </trkpt>
      <trkpt lat="44.42954" lon="5.25761">
        <ele>798</ele>
        <time>2019-05-04T13:28:46Z</time>
      </trkpt>
      <trkpt lat="44.42964" lon="5.25767">
        <ele>798</ele>
        <time>2019-05-04T13:29:37Z</time>
      </trkpt>
      <trkpt lat="44.42952" lon="5.25789">
        <ele>797</ele>
        <time>2019-05-04T13:29:57Z</time>
      </trkpt>
      <trkpt lat="44.42935" lon="5.25809">
        <ele>798</ele>
        <time>2019-05-04T13:30:05Z</time>
      </trkpt>
      <trkpt lat="44.42927" lon="5.25817">
        <ele>797</ele>
        <time>2019-05-04T13:30:08Z</time>
      </trkpt>
      <trkpt lat="44.42907" lon="5.2583">
        <ele>795</ele>
        <time>2019-05-04T13:30:15Z</time>
      </trkpt>
      <trkpt lat="44.42888" lon="5.25835">
        <ele>794</ele>
        <time>2019-05-04T13:30:22Z</time>
      </trkpt>
      <trkpt lat="44.42857" lon="5.25844">
        <ele>792</ele>
        <time>2019-05-04T13:30:31Z</time>
      </trkpt>
      <trkpt lat="44.42849" lon="5.25854">
        <ele>791</ele>
        <time>2019-05-04T13:30:34Z</time>
      </trkpt>
      <trkpt lat="44.42805" lon="5.25865">
        <ele>785</ele>
        <time>2019-05-04T13:30:44Z</time>
      </trkpt>
      <trkpt lat="44.42799" lon="5.25851">
        <ele>785</ele>
        <time>2019-05-04T13:30:47Z</time>
      </trkpt>
      <trkpt lat="44.42804" lon="5.25792">
        <ele>778</ele>
        <time>2019-05-04T13:30:58Z</time>
      </trkpt>
      <trkpt lat="44.42807" lon="5.25779">
        <ele>776</ele>
        <time>2019-05-04T13:31:01Z</time>
      </trkpt>
      <trkpt lat="44.42807" lon="5.25763">
        <ele>774</ele>
        <time>2019-05-04T13:31:04Z</time>
      </trkpt>
      <trkpt lat="44.42803" lon="5.2573">
        <ele>771</ele>
        <time>2019-05-04T13:31:10Z</time>
      </trkpt>
      <trkpt lat="44.42801" lon="5.25712">
        <ele>770</ele>
        <time>2019-05-04T13:31:13Z</time>
      </trkpt>
      <trkpt lat="44.42802" lon="5.25698">
        <ele>768</ele>
        <time>2019-05-04T13:31:15Z</time>
      </trkpt>
      <trkpt lat="44.428" lon="5.25668">
        <ele>764</ele>
        <time>2019-05-04T13:31:19Z</time>
      </trkpt>
      <trkpt lat="44.42796" lon="5.25641">
        <ele>765</ele>
        <time>2019-05-04T13:31:23Z</time>
      </trkpt>
      <trkpt lat="44.42792" lon="5.25627">
        <ele>765</ele>
        <time>2019-05-04T13:31:25Z</time>
      </trkpt>
      <trkpt lat="44.42786" lon="5.25616">
        <ele>765</ele>
        <time>2019-05-04T13:31:28Z</time>
      </trkpt>
      <trkpt lat="44.42783" lon="5.25598">
        <ele>763</ele>
        <time>2019-05-04T13:31:31Z</time>
      </trkpt>
      <trkpt lat="44.42771" lon="5.2556">
        <ele>763</ele>
        <time>2019-05-04T13:31:37Z</time>
      </trkpt>
      <trkpt lat="44.42761" lon="5.25534">
        <ele>759</ele>
        <time>2019-05-04T13:32:12Z</time>
      </trkpt>
      <trkpt lat="44.42755" lon="5.25524">
        <ele>759</ele>
        <time>2019-05-04T13:32:14Z</time>
      </trkpt>
      <trkpt lat="44.42745" lon="5.2551">
        <ele>758</ele>
        <time>2019-05-04T13:32:16Z</time>
      </trkpt>
      <trkpt lat="44.42733" lon="5.25495">
        <ele>756</ele>
        <time>2019-05-04T13:32:18Z</time>
      </trkpt>
      <trkpt lat="44.42726" lon="5.25478">
        <ele>757</ele>
        <time>2019-05-04T13:32:20Z</time>
      </trkpt>
      <trkpt lat="44.42709" lon="5.25454">
        <ele>755</ele>
        <time>2019-05-04T13:32:24Z</time>
      </trkpt>
      <trkpt lat="44.42693" lon="5.25436">
        <ele>756</ele>
        <time>2019-05-04T13:32:28Z</time>
      </trkpt>
      <trkpt lat="44.42686" lon="5.25427">
        <ele>756</ele>
        <time>2019-05-04T13:32:30Z</time>
      </trkpt>
      <trkpt lat="44.4268" lon="5.25414">
        <ele>755</ele>
        <time>2019-05-04T13:32:32Z</time>
      </trkpt>
      <trkpt lat="44.42676" lon="5.25402">
        <ele>754</ele>
        <time>2019-05-04T13:32:35Z</time>
      </trkpt>
      <trkpt lat="44.42672" lon="5.25389">
        <ele>754</ele>
        <time>2019-05-04T13:32:38Z</time>
      </trkpt>
      <trkpt lat="44.42668" lon="5.25376">
        <ele>753</ele>
        <time>2019-05-04T13:32:41Z</time>
      </trkpt>
      <trkpt lat="44.42661" lon="5.25366">
        <ele>753</ele>
        <time>2019-05-04T13:32:45Z</time>
      </trkpt>
      <trkpt lat="44.42656" lon="5.25352">
        <ele>752</ele>
        <time>2019-05-04T13:32:49Z</time>
      </trkpt>
      <trkpt lat="44.42655" lon="5.25339">
        <ele>751</ele>
        <time>2019-05-04T13:32:52Z</time>
      </trkpt>
      <trkpt lat="44.42656" lon="5.25323">
        <ele>751</ele>
        <time>2019-05-04T13:32:56Z</time>
      </trkpt>
      <trkpt lat="44.42664" lon="5.25312">
        <ele>750</ele>
        <time>2019-05-04T13:32:59Z</time>
      </trkpt>
      <trkpt lat="44.4267" lon="5.25303">
        <ele>750</ele>
        <time>2019-05-04T13:33:01Z</time>
      </trkpt>
      <trkpt lat="44.42678" lon="5.25288">
        <ele>750</ele>
        <time>2019-05-04T13:33:04Z</time>
      </trkpt>
      <trkpt lat="44.42696" lon="5.25277">
        <ele>745</ele>
        <time>2019-05-04T13:33:10Z</time>
      </trkpt>
      <trkpt lat="44.42704" lon="5.2527">
        <ele>744</ele>
        <time>2019-05-04T13:33:13Z</time>
      </trkpt>
      <trkpt lat="44.42716" lon="5.25241">
        <ele>741</ele>
        <time>2019-05-04T13:33:19Z</time>
      </trkpt>
      <trkpt lat="44.42725" lon="5.25232">
        <ele>739</ele>
        <time>2019-05-04T13:33:22Z</time>
      </trkpt>
      <trkpt lat="44.42731" lon="5.25221">
        <ele>737</ele>
        <time>2019-05-04T13:33:25Z</time>
      </trkpt>
      <trkpt lat="44.42734" lon="5.25208">
        <ele>736</ele>
        <time>2019-05-04T13:33:28Z</time>
      </trkpt>
      <trkpt lat="44.4274" lon="5.25195">
        <ele>735</ele>
        <time>2019-05-04T13:33:31Z</time>
      </trkpt>
      <trkpt lat="44.42755" lon="5.25184">
        <ele>731</ele>
        <time>2019-05-04T13:33:34Z</time>
      </trkpt>
      <trkpt lat="44.42779" lon="5.25134">
        <ele>722</ele>
        <time>2019-05-04T13:33:42Z</time>
      </trkpt>
      <trkpt lat="44.42797" lon="5.25114">
        <ele>717</ele>
        <time>2019-05-04T13:33:46Z</time>
      </trkpt>
      <trkpt lat="44.42821" lon="5.25079">
        <ele>713</ele>
        <time>2019-05-04T13:33:52Z</time>
      </trkpt>
      <trkpt lat="44.42835" lon="5.25051">
        <ele>711</ele>
        <time>2019-05-04T13:33:55Z</time>
      </trkpt>
      <trkpt lat="44.42842" lon="5.25034">
        <ele>710</ele>
        <time>2019-05-04T13:33:57Z</time>
      </trkpt>
      <trkpt lat="44.42847" lon="5.25018">
        <ele>706</ele>
        <time>2019-05-04T13:33:59Z</time>
      </trkpt>
      <trkpt lat="44.42848" lon="5.25">
        <ele>702</ele>
        <time>2019-05-04T13:34:02Z</time>
      </trkpt>
      <trkpt lat="44.4285" lon="5.24986">
        <ele>699</ele>
        <time>2019-05-04T13:34:05Z</time>
      </trkpt>
      <trkpt lat="44.42854" lon="5.2497">
        <ele>698</ele>
        <time>2019-05-04T13:34:08Z</time>
      </trkpt>
      <trkpt lat="44.42857" lon="5.24954">
        <ele>697</ele>
        <time>2019-05-04T13:34:11Z</time>
      </trkpt>
      <trkpt lat="44.42869" lon="5.24925">
        <ele>693</ele>
        <time>2019-05-04T13:34:16Z</time>
      </trkpt>
      <trkpt lat="44.42878" lon="5.24886">
        <ele>688</ele>
        <time>2019-05-04T13:34:24Z</time>
      </trkpt>
      <trkpt lat="44.42891" lon="5.24865">
        <ele>687</ele>
        <time>2019-05-04T13:34:31Z</time>
      </trkpt>
      <trkpt lat="44.42897" lon="5.2485">
        <ele>686</ele>
        <time>2019-05-04T13:34:35Z</time>
      </trkpt>
      <trkpt lat="44.42897" lon="5.2483">
        <ele>685</ele>
        <time>2019-05-04T13:34:37Z</time>
      </trkpt>
      <trkpt lat="44.42901" lon="5.2481">
        <ele>680</ele>
        <time>2019-05-04T13:34:39Z</time>
      </trkpt>
      <trkpt lat="44.42922" lon="5.24744">
        <ele>671</ele>
        <time>2019-05-04T13:34:49Z</time>
      </trkpt>
      <trkpt lat="44.42921" lon="5.24729">
        <ele>669</ele>
        <time>2019-05-04T13:34:52Z</time>
      </trkpt>
      <trkpt lat="44.42915" lon="5.24717">
        <ele>668</ele>
        <time>2019-05-04T13:35:00Z</time>
      </trkpt>
      <trkpt lat="44.42917" lon="5.24703">
        <ele>663</ele>
        <time>2019-05-04T13:35:07Z</time>
      </trkpt>
      <trkpt lat="44.42924" lon="5.24688">
        <ele>658</ele>
        <time>2019-05-04T13:35:11Z</time>
      </trkpt>
      <trkpt lat="44.42927" lon="5.24672">
        <ele>658</ele>
        <time>2019-05-04T13:35:14Z</time>
      </trkpt>
      <trkpt lat="44.42913" lon="5.24657">
        <ele>659</ele>
        <time>2019-05-04T13:35:17Z</time>
      </trkpt>
      <trkpt lat="44.42904" lon="5.24644">
        <ele>658</ele>
        <time>2019-05-04T13:35:19Z</time>
      </trkpt>
      <trkpt lat="44.42898" lon="5.24631">
        <ele>656</ele>
        <time>2019-05-04T13:35:21Z</time>
      </trkpt>
      <trkpt lat="44.42896" lon="5.24617">
        <ele>654</ele>
        <time>2019-05-04T13:35:23Z</time>
      </trkpt>
      <trkpt lat="44.42894" lon="5.24602">
        <ele>654</ele>
        <time>2019-05-04T13:35:25Z</time>
      </trkpt>
      <trkpt lat="44.42891" lon="5.2459">
        <ele>652</ele>
        <time>2019-05-04T13:35:27Z</time>
      </trkpt>
      <trkpt lat="44.42888" lon="5.24572">
        <ele>651</ele>
        <time>2019-05-04T13:35:29Z</time>
      </trkpt>
      <trkpt lat="44.42888" lon="5.24556">
        <ele>649</ele>
        <time>2019-05-04T13:35:31Z</time>
      </trkpt>
      <trkpt lat="44.42892" lon="5.24524">
        <ele>644</ele>
        <time>2019-05-04T13:35:37Z</time>
      </trkpt>
      <trkpt lat="44.42902" lon="5.24473">
        <ele>642</ele>
        <time>2019-05-04T13:35:46Z</time>
      </trkpt>
      <trkpt lat="44.42914" lon="5.24449">
        <ele>640</ele>
        <time>2019-05-04T13:35:50Z</time>
      </trkpt>
      <trkpt lat="44.42921" lon="5.24441">
        <ele>639</ele>
        <time>2019-05-04T13:35:52Z</time>
      </trkpt>
      <trkpt lat="44.42929" lon="5.24432">
        <ele>640</ele>
        <time>2019-05-04T13:35:54Z</time>
      </trkpt>
      <trkpt lat="44.42988" lon="5.24374">
        <ele>629</ele>
        <time>2019-05-04T13:36:09Z</time>
      </trkpt>
      <trkpt lat="44.43145" lon="5.24306">
        <ele>601</ele>
        <time>2019-05-04T13:36:39Z</time>
      </trkpt>
      <trkpt lat="44.43155" lon="5.24305">
        <ele>600</ele>
        <time>2019-05-04T13:36:41Z</time>
      </trkpt>
      <trkpt lat="44.43167" lon="5.24308">
        <ele>599</ele>
        <time>2019-05-04T13:36:44Z</time>
      </trkpt>
      <trkpt lat="44.43176" lon="5.24313">
        <ele>598</ele>
        <time>2019-05-04T13:36:48Z</time>
      </trkpt>
      <trkpt lat="44.43186" lon="5.24316">
        <ele>592</ele>
        <time>2019-05-04T13:37:15Z</time>
      </trkpt>
      <trkpt lat="44.43185" lon="5.24299">
        <ele>590</ele>
        <time>2019-05-04T13:38:04Z</time>
      </trkpt>
      <trkpt lat="44.43175" lon="5.243">
        <ele>582</ele>
        <time>2019-05-04T13:48:04Z</time>
      </trkpt>
      <trkpt lat="44.43156" lon="5.2429">
        <ele>588</ele>
        <time>2019-05-04T13:48:13Z</time>
      </trkpt>
      <trkpt lat="44.43147" lon="5.24287">
        <ele>589</ele>
        <time>2019-05-04T13:48:16Z</time>
      </trkpt>
      <trkpt lat="44.43115" lon="5.24279">
        <ele>587</ele>
        <time>2019-05-04T13:48:25Z</time>
      </trkpt>
      <trkpt lat="44.43075" lon="5.24271">
        <ele>587</ele>
        <time>2019-05-04T13:48:35Z</time>
      </trkpt>
      <trkpt lat="44.43024" lon="5.24255">
        <ele>583</ele>
        <time>2019-05-04T13:48:46Z</time>
      </trkpt>
      <trkpt lat="44.42999" lon="5.24246">
        <ele>584</ele>
        <time>2019-05-04T13:48:52Z</time>
      </trkpt>
      <trkpt lat="44.4299" lon="5.24245">
        <ele>586</ele>
        <time>2019-05-04T13:48:54Z</time>
      </trkpt>
      <trkpt lat="44.42981" lon="5.24241">
        <ele>585</ele>
        <time>2019-05-04T13:48:56Z</time>
      </trkpt>
      <trkpt lat="44.42936" lon="5.24226">
        <ele>583</ele>
        <time>2019-05-04T13:49:04Z</time>
      </trkpt>
      <trkpt lat="44.42903" lon="5.24196">
        <ele>580</ele>
        <time>2019-05-04T13:49:12Z</time>
      </trkpt>
      <trkpt lat="44.4288" lon="5.24188">
        <ele>578</ele>
        <time>2019-05-04T13:49:16Z</time>
      </trkpt>
      <trkpt lat="44.42871" lon="5.2418">
        <ele>579</ele>
        <time>2019-05-04T13:49:19Z</time>
      </trkpt>
      <trkpt lat="44.42861" lon="5.24167">
        <ele>578</ele>
        <time>2019-05-04T13:49:22Z</time>
      </trkpt>
      <trkpt lat="44.42857" lon="5.24153">
        <ele>577</ele>
        <time>2019-05-04T13:49:24Z</time>
      </trkpt>
      <trkpt lat="44.42861" lon="5.24124">
        <ele>574</ele>
        <time>2019-05-04T13:49:28Z</time>
      </trkpt>
      <trkpt lat="44.42858" lon="5.24111">
        <ele>573</ele>
        <time>2019-05-04T13:49:30Z</time>
      </trkpt>
      <trkpt lat="44.42839" lon="5.24094">
        <ele>573</ele>
        <time>2019-05-04T13:49:32Z</time>
      </trkpt>
      <trkpt lat="44.42833" lon="5.24068">
        <ele>571</ele>
        <time>2019-05-04T13:49:35Z</time>
      </trkpt>
      <trkpt lat="44.42822" lon="5.24047">
        <ele>570</ele>
        <time>2019-05-04T13:49:38Z</time>
      </trkpt>
      <trkpt lat="44.42793" lon="5.23967">
        <ele>569</ele>
        <time>2019-05-04T13:49:46Z</time>
      </trkpt>
      <trkpt lat="44.42773" lon="5.23935">
        <ele>566</ele>
        <time>2019-05-04T13:49:51Z</time>
      </trkpt>
      <trkpt lat="44.42723" lon="5.23899">
        <ele>564</ele>
        <time>2019-05-04T13:49:59Z</time>
      </trkpt>
      <trkpt lat="44.42639" lon="5.23861">
        <ele>560</ele>
        <time>2019-05-04T13:50:09Z</time>
      </trkpt>
      <trkpt lat="44.42617" lon="5.23839">
        <ele>560</ele>
        <time>2019-05-04T13:50:12Z</time>
      </trkpt>
      <trkpt lat="44.42601" lon="5.23808">
        <ele>560</ele>
        <time>2019-05-04T13:50:15Z</time>
      </trkpt>
      <trkpt lat="44.42585" lon="5.23774">
        <ele>558</ele>
        <time>2019-05-04T13:50:18Z</time>
      </trkpt>
      <trkpt lat="44.42553" lon="5.23729">
        <ele>555</ele>
        <time>2019-05-04T13:50:23Z</time>
      </trkpt>
      <trkpt lat="44.42535" lon="5.23713">
        <ele>555</ele>
        <time>2019-05-04T13:50:25Z</time>
      </trkpt>
      <trkpt lat="44.42511" lon="5.23705">
        <ele>555</ele>
        <time>2019-05-04T13:50:29Z</time>
      </trkpt>
      <trkpt lat="44.42467" lon="5.23697">
        <ele>552</ele>
        <time>2019-05-04T13:50:34Z</time>
      </trkpt>
      <trkpt lat="44.42448" lon="5.23693">
        <ele>553</ele>
        <time>2019-05-04T13:50:36Z</time>
      </trkpt>
      <trkpt lat="44.42397" lon="5.23679">
        <ele>551</ele>
        <time>2019-05-04T13:50:42Z</time>
      </trkpt>
      <trkpt lat="44.42382" lon="5.23675">
        <ele>551</ele>
        <time>2019-05-04T13:50:44Z</time>
      </trkpt>
      <trkpt lat="44.42368" lon="5.23671">
        <ele>551</ele>
        <time>2019-05-04T13:50:46Z</time>
      </trkpt>
      <trkpt lat="44.42357" lon="5.2367">
        <ele>552</ele>
        <time>2019-05-04T13:50:48Z</time>
      </trkpt>
      <trkpt lat="44.42303" lon="5.23671">
        <ele>551</ele>
        <time>2019-05-04T13:50:56Z</time>
      </trkpt>
      <trkpt lat="44.42272" lon="5.23676">
        <ele>548</ele>
        <time>2019-05-04T13:51:00Z</time>
      </trkpt>
      <trkpt lat="44.42255" lon="5.23675">
        <ele>547</ele>
        <time>2019-05-04T13:51:02Z</time>
      </trkpt>
      <trkpt lat="44.42245" lon="5.23672">
        <ele>545</ele>
        <time>2019-05-04T13:51:03Z</time>
      </trkpt>
      <trkpt lat="44.42115" lon="5.23587">
        <ele>541</ele>
        <time>2019-05-04T13:51:19Z</time>
      </trkpt>
      <trkpt lat="44.42091" lon="5.2357">
        <ele>543</ele>
        <time>2019-05-04T13:51:23Z</time>
      </trkpt>
      <trkpt lat="44.42081" lon="5.23561">
        <ele>541</ele>
        <time>2019-05-04T13:51:26Z</time>
      </trkpt>
      <trkpt lat="44.42068" lon="5.2354">
        <ele>540</ele>
        <time>2019-05-04T13:51:27Z</time>
      </trkpt>
      <trkpt lat="44.4204" lon="5.23534">
        <ele>539</ele>
        <time>2019-05-04T13:51:30Z</time>
      </trkpt>
      <trkpt lat="44.42032" lon="5.23533">
        <ele>538</ele>
        <time>2019-05-04T13:51:32Z</time>
      </trkpt>
      <trkpt lat="44.42013" lon="5.23529">
        <ele>539</ele>
        <time>2019-05-04T13:51:34Z</time>
      </trkpt>
      <trkpt lat="44.41995" lon="5.23524">
        <ele>538</ele>
        <time>2019-05-04T13:51:36Z</time>
      </trkpt>
      <trkpt lat="44.41981" lon="5.23516">
        <ele>538</ele>
        <time>2019-05-04T13:51:38Z</time>
      </trkpt>
      <trkpt lat="44.41972" lon="5.23508">
        <ele>538</ele>
        <time>2019-05-04T13:51:39Z</time>
      </trkpt>
      <trkpt lat="44.41903" lon="5.23371">
        <ele>542</ele>
        <time>2019-05-04T13:51:56Z</time>
      </trkpt>
      <trkpt lat="44.41891" lon="5.2335">
        <ele>540</ele>
        <time>2019-05-04T13:52:00Z</time>
      </trkpt>
      <trkpt lat="44.41882" lon="5.23334">
        <ele>539</ele>
        <time>2019-05-04T13:52:03Z</time>
      </trkpt>
      <trkpt lat="44.41879" lon="5.23319">
        <ele>539</ele>
        <time>2019-05-04T13:52:10Z</time>
      </trkpt>
      <trkpt lat="44.41887" lon="5.23279">
        <ele>538</ele>
        <time>2019-05-04T13:52:23Z</time>
      </trkpt>
      <trkpt lat="44.41895" lon="5.23258">
        <ele>540</ele>
        <time>2019-05-04T13:52:29Z</time>
      </trkpt>
      <trkpt lat="44.41902" lon="5.23214">
        <ele>541</ele>
        <time>2019-05-04T13:52:39Z</time>
      </trkpt>
      <trkpt lat="44.41902" lon="5.23203">
        <ele>541</ele>
        <time>2019-05-04T13:52:42Z</time>
      </trkpt>
      <trkpt lat="44.41903" lon="5.2319">
        <ele>541</ele>
        <time>2019-05-04T13:52:45Z</time>
      </trkpt>
      <trkpt lat="44.41904" lon="5.23176">
        <ele>540</ele>
        <time>2019-05-04T13:52:49Z</time>
      </trkpt>
      <trkpt lat="44.41881" lon="5.23158">
        <ele>541</ele>
        <time>2019-05-04T13:52:54Z</time>
      </trkpt>
      <trkpt lat="44.41882" lon="5.23128">
        <ele>543</ele>
        <time>2019-05-04T13:53:04Z</time>
      </trkpt>
      <trkpt lat="44.41884" lon="5.23145">
        <ele>544</ele>
        <time>2019-05-04T13:53:09Z</time>
      </trkpt>
      <trkpt lat="44.41874" lon="5.23143">
        <ele>546</ele>
        <time>2019-05-04T13:53:14Z</time>
      </trkpt>
      <trkpt lat="44.41874" lon="5.23129">
        <ele>546</ele>
        <time>2019-05-04T13:53:19Z</time>
      </trkpt>
      <trkpt lat="44.4188" lon="5.23104">
        <ele>550</ele>
        <time>2019-05-04T13:53:29Z</time>
      </trkpt>
      <trkpt lat="44.41874" lon="5.23079">
        <ele>553</ele>
        <time>2019-05-04T13:53:42Z</time>
      </trkpt>
      <trkpt lat="44.41868" lon="5.23069">
        <ele>554</ele>
        <time>2019-05-04T13:53:51Z</time>
      </trkpt>
      <trkpt lat="44.41857" lon="5.23047">
        <ele>556</ele>
        <time>2019-05-04T13:54:05Z</time>
      </trkpt>
      <trkpt lat="44.4182" lon="5.23009">
        <ele>561</ele>
        <time>2019-05-04T13:54:30Z</time>
      </trkpt>
      <trkpt lat="44.41812" lon="5.22999">
        <ele>561</ele>
        <time>2019-05-04T13:54:36Z</time>
      </trkpt>
      <trkpt lat="44.41805" lon="5.22987">
        <ele>561</ele>
        <time>2019-05-04T13:54:41Z</time>
      </trkpt>
      <trkpt lat="44.41799" lon="5.22977">
        <ele>562</ele>
        <time>2019-05-04T13:54:45Z</time>
      </trkpt>
      <trkpt lat="44.41791" lon="5.22964">
        <ele>563</ele>
        <time>2019-05-04T13:54:49Z</time>
      </trkpt>
      <trkpt lat="44.41769" lon="5.22916">
        <ele>566</ele>
        <time>2019-05-04T13:55:04Z</time>
      </trkpt>
      <trkpt lat="44.41763" lon="5.2289">
        <ele>564</ele>
        <time>2019-05-04T13:55:10Z</time>
      </trkpt>
      <trkpt lat="44.41762" lon="5.22877">
        <ele>564</ele>
        <time>2019-05-04T13:55:13Z</time>
      </trkpt>
      <trkpt lat="44.41771" lon="5.22852">
        <ele>564</ele>
        <time>2019-05-04T13:55:22Z</time>
      </trkpt>
      <trkpt lat="44.41767" lon="5.22841">
        <ele>562</ele>
        <time>2019-05-04T13:56:06Z</time>
      </trkpt>
      <trkpt lat="44.41732" lon="5.22868">
        <ele>558</ele>
        <time>2019-05-04T13:56:23Z</time>
      </trkpt>
      <trkpt lat="44.41719" lon="5.22898">
        <ele>558</ele>
        <time>2019-05-04T13:56:27Z</time>
      </trkpt>
      <trkpt lat="44.41713" lon="5.22907">
        <ele>556</ele>
        <time>2019-05-04T13:56:29Z</time>
      </trkpt>
      <trkpt lat="44.4171" lon="5.22928">
        <ele>555</ele>
        <time>2019-05-04T13:56:31Z</time>
      </trkpt>
      <trkpt lat="44.4171" lon="5.22945">
        <ele>554</ele>
        <time>2019-05-04T13:56:33Z</time>
      </trkpt>
      <trkpt lat="44.41717" lon="5.22979">
        <ele>556</ele>
        <time>2019-05-04T13:56:36Z</time>
      </trkpt>
      <trkpt lat="44.41728" lon="5.2301">
        <ele>553</ele>
        <time>2019-05-04T13:56:39Z</time>
      </trkpt>
      <trkpt lat="44.41736" lon="5.23032">
        <ele>553</ele>
        <time>2019-05-04T13:56:41Z</time>
      </trkpt>
      <trkpt lat="44.41741" lon="5.23047">
        <ele>551</ele>
        <time>2019-05-04T13:56:43Z</time>
      </trkpt>
      <trkpt lat="44.4175" lon="5.23079">
        <ele>550</ele>
        <time>2019-05-04T13:56:47Z</time>
      </trkpt>
      <trkpt lat="44.41748" lon="5.23108">
        <ele>548</ele>
        <time>2019-05-04T13:56:50Z</time>
      </trkpt>
      <trkpt lat="44.41748" lon="5.23123">
        <ele>549</ele>
        <time>2019-05-04T13:56:52Z</time>
      </trkpt>
      <trkpt lat="44.41748" lon="5.23138">
        <ele>547</ele>
        <time>2019-05-04T13:56:54Z</time>
      </trkpt>
      <trkpt lat="44.41748" lon="5.2316">
        <ele>546</ele>
        <time>2019-05-04T13:56:56Z</time>
      </trkpt>
      <trkpt lat="44.41747" lon="5.2318">
        <ele>546</ele>
        <time>2019-05-04T13:56:58Z</time>
      </trkpt>
      <trkpt lat="44.41743" lon="5.23245">
        <ele>544</ele>
        <time>2019-05-04T13:57:04Z</time>
      </trkpt>
      <trkpt lat="44.4174" lon="5.2327">
        <ele>541</ele>
        <time>2019-05-04T13:57:06Z</time>
      </trkpt>
      <trkpt lat="44.41739" lon="5.23283">
        <ele>541</ele>
        <time>2019-05-04T13:57:07Z</time>
      </trkpt>
      <trkpt lat="44.41734" lon="5.2334">
        <ele>540</ele>
        <time>2019-05-04T13:57:11Z</time>
      </trkpt>
      <trkpt lat="44.4175" lon="5.23529">
        <ele>534</ele>
        <time>2019-05-04T13:57:23Z</time>
      </trkpt>
      <trkpt lat="44.41749" lon="5.23548">
        <ele>533</ele>
        <time>2019-05-04T13:57:24Z</time>
      </trkpt>
      <trkpt lat="44.41744" lon="5.23578">
        <ele>533</ele>
        <time>2019-05-04T13:57:26Z</time>
      </trkpt>
      <trkpt lat="44.41738" lon="5.23611">
        <ele>532</ele>
        <time>2019-05-04T13:57:28Z</time>
      </trkpt>
      <trkpt lat="44.41733" lon="5.23644">
        <ele>531</ele>
        <time>2019-05-04T13:57:30Z</time>
      </trkpt>
      <trkpt lat="44.41728" lon="5.23674">
        <ele>528</ele>
        <time>2019-05-04T13:57:32Z</time>
      </trkpt>
      <trkpt lat="44.41713" lon="5.23716">
        <ele>525</ele>
        <time>2019-05-04T13:57:35Z</time>
      </trkpt>
      <trkpt lat="44.41708" lon="5.23738">
        <ele>523</ele>
        <time>2019-05-04T13:57:37Z</time>
      </trkpt>
      <trkpt lat="44.4172" lon="5.23746">
        <ele>519</ele>
        <time>2019-05-04T13:57:41Z</time>
      </trkpt>
      <trkpt lat="44.41731" lon="5.23758">
        <ele>519</ele>
        <time>2019-05-04T13:57:43Z</time>
      </trkpt>
      <trkpt lat="44.41747" lon="5.23774">
        <ele>516</ele>
        <time>2019-05-04T13:57:54Z</time>
      </trkpt>
      <trkpt lat="44.41743" lon="5.23825">
        <ele>513</ele>
        <time>2019-05-04T13:58:05Z</time>
      </trkpt>
      <trkpt lat="44.41742" lon="5.23852">
        <ele>515</ele>
        <time>2019-05-04T13:58:14Z</time>
      </trkpt>
      <trkpt lat="44.41742" lon="5.23868">
        <ele>514</ele>
        <time>2019-05-04T13:58:19Z</time>
      </trkpt>
      <trkpt lat="44.41743" lon="5.23882">
        <ele>514</ele>
        <time>2019-05-04T13:58:23Z</time>
      </trkpt>
      <trkpt lat="44.41746" lon="5.23915">
        <ele>517</ele>
        <time>2019-05-04T13:58:36Z</time>
      </trkpt>
      <trkpt lat="44.41748" lon="5.23937">
        <ele>517</ele>
        <time>2019-05-04T13:58:44Z</time>
      </trkpt>
      <trkpt lat="44.41748" lon="5.23955">
        <ele>519</ele>
        <time>2019-05-04T13:58:51Z</time>
      </trkpt>
      <trkpt lat="44.41745" lon="5.23982">
        <ele>520</ele>
        <time>2019-05-04T13:59:07Z</time>
      </trkpt>
      <trkpt lat="44.41742" lon="5.23995">
        <ele>520</ele>
        <time>2019-05-04T13:59:15Z</time>
      </trkpt>
      <trkpt lat="44.41734" lon="5.24032">
        <ele>525</ele>
        <time>2019-05-04T13:59:34Z</time>
      </trkpt>
      <trkpt lat="44.41733" lon="5.24043">
        <ele>529</ele>
        <time>2019-05-04T13:59:48Z</time>
      </trkpt>
      <trkpt lat="44.41737" lon="5.24057">
        <ele>529</ele>
        <time>2019-05-04T13:59:55Z</time>
      </trkpt>
      <trkpt lat="44.41756" lon="5.24101">
        <ele>532</ele>
        <time>2019-05-04T14:00:20Z</time>
      </trkpt>
      <trkpt lat="44.41761" lon="5.2413">
        <ele>534</ele>
        <time>2019-05-04T14:00:34Z</time>
      </trkpt>
      <trkpt lat="44.41762" lon="5.24142">
        <ele>532</ele>
        <time>2019-05-04T14:00:42Z</time>
      </trkpt>
      <trkpt lat="44.41764" lon="5.24157">
        <ele>534</ele>
        <time>2019-05-04T14:00:49Z</time>
      </trkpt>
      <trkpt lat="44.41765" lon="5.2417">
        <ele>533</ele>
        <time>2019-05-04T14:00:55Z</time>
      </trkpt>
      <trkpt lat="44.4177" lon="5.24254">
        <ele>542</ele>
        <time>2019-05-04T14:01:26Z</time>
      </trkpt>
      <trkpt lat="44.41773" lon="5.24266">
        <ele>545</ele>
        <time>2019-05-04T14:01:31Z</time>
      </trkpt>
      <trkpt lat="44.41775" lon="5.24281">
        <ele>545</ele>
        <time>2019-05-04T14:01:38Z</time>
      </trkpt>
      <trkpt lat="44.41778" lon="5.24293">
        <ele>544</ele>
        <time>2019-05-04T14:01:43Z</time>
      </trkpt>
      <trkpt lat="44.41781" lon="5.24305">
        <ele>543</ele>
        <time>2019-05-04T14:01:47Z</time>
      </trkpt>
      <trkpt lat="44.4179" lon="5.24329">
        <ele>546</ele>
        <time>2019-05-04T14:01:56Z</time>
      </trkpt>
      <trkpt lat="44.41794" lon="5.24344">
        <ele>545</ele>
        <time>2019-05-04T14:01:59Z</time>
      </trkpt>
      <trkpt lat="44.41797" lon="5.24372">
        <ele>547</ele>
        <time>2019-05-04T14:02:05Z</time>
      </trkpt>
      <trkpt lat="44.41799" lon="5.24388">
        <ele>546</ele>
        <time>2019-05-04T14:02:09Z</time>
      </trkpt>
      <trkpt lat="44.41802" lon="5.244">
        <ele>546</ele>
        <time>2019-05-04T14:02:13Z</time>
      </trkpt>
      <trkpt lat="44.41811" lon="5.24409">
        <ele>547</ele>
        <time>2019-05-04T14:02:18Z</time>
      </trkpt>
      <trkpt lat="44.41814" lon="5.24426">
        <ele>548</ele>
        <time>2019-05-04T14:02:24Z</time>
      </trkpt>
      <trkpt lat="44.41817" lon="5.24441">
        <ele>548</ele>
        <time>2019-05-04T14:02:29Z</time>
      </trkpt>
      <trkpt lat="44.41818" lon="5.24456">
        <ele>549</ele>
        <time>2019-05-04T14:02:34Z</time>
      </trkpt>
      <trkpt lat="44.41824" lon="5.24477">
        <ele>550</ele>
        <time>2019-05-04T14:02:43Z</time>
      </trkpt>
      <trkpt lat="44.41827" lon="5.24489">
        <ele>550</ele>
        <time>2019-05-04T14:02:48Z</time>
      </trkpt>
      <trkpt lat="44.41831" lon="5.245">
        <ele>550</ele>
        <time>2019-05-04T14:02:54Z</time>
      </trkpt>
      <trkpt lat="44.41837" lon="5.24511">
        <ele>552</ele>
        <time>2019-05-04T14:03:02Z</time>
      </trkpt>
      <trkpt lat="44.41844" lon="5.24522">
        <ele>552</ele>
        <time>2019-05-04T14:03:08Z</time>
      </trkpt>
      <trkpt lat="44.41849" lon="5.24532">
        <ele>551</ele>
        <time>2019-05-04T14:03:14Z</time>
      </trkpt>
      <trkpt lat="44.41852" lon="5.24545">
        <ele>551</ele>
        <time>2019-05-04T14:03:22Z</time>
      </trkpt>
      <trkpt lat="44.4184" lon="5.24567">
        <ele>554</ele>
        <time>2019-05-04T14:03:38Z</time>
      </trkpt>
      <trkpt lat="44.41832" lon="5.24574">
        <ele>555</ele>
        <time>2019-05-04T14:03:44Z</time>
      </trkpt>
      <trkpt lat="44.41823" lon="5.24574">
        <ele>555</ele>
        <time>2019-05-04T14:03:49Z</time>
      </trkpt>
      <trkpt lat="44.41814" lon="5.24576">
        <ele>556</ele>
        <time>2019-05-04T14:03:57Z</time>
      </trkpt>
      <trkpt lat="44.41815" lon="5.24579">
        <ele>556</ele>
        <time>2019-05-04T14:04:25Z</time>
      </trkpt>
      <trkpt lat="44.41809" lon="5.24568">
        <ele>557</ele>
        <time>2019-05-04T14:04:39Z</time>
      </trkpt>
      <trkpt lat="44.41801" lon="5.24561">
        <ele>558</ele>
        <time>2019-05-04T14:04:42Z</time>
      </trkpt>
      <trkpt lat="44.41763" lon="5.24529">
        <ele>557</ele>
        <time>2019-05-04T14:04:51Z</time>
      </trkpt>
      <trkpt lat="44.41736" lon="5.24503">
        <ele>559</ele>
        <time>2019-05-04T14:05:00Z</time>
      </trkpt>
      <trkpt lat="44.41726" lon="5.24499">
        <ele>559</ele>
        <time>2019-05-04T14:05:04Z</time>
      </trkpt>
      <trkpt lat="44.41694" lon="5.24505">
        <ele>562</ele>
        <time>2019-05-04T14:05:15Z</time>
      </trkpt>
      <trkpt lat="44.41642" lon="5.2453">
        <ele>562</ele>
        <time>2019-05-04T14:05:30Z</time>
      </trkpt>
      <trkpt lat="44.41633" lon="5.24537">
        <ele>563</ele>
        <time>2019-05-04T14:05:33Z</time>
      </trkpt>
      <trkpt lat="44.41613" lon="5.24549">
        <ele>562</ele>
        <time>2019-05-04T14:05:39Z</time>
      </trkpt>
      <trkpt lat="44.41602" lon="5.24552">
        <ele>563</ele>
        <time>2019-05-04T14:05:43Z</time>
      </trkpt>
      <trkpt lat="44.41592" lon="5.24552">
        <ele>564</ele>
        <time>2019-05-04T14:05:46Z</time>
      </trkpt>
      <trkpt lat="44.41581" lon="5.24554">
        <ele>562</ele>
        <time>2019-05-04T14:05:50Z</time>
      </trkpt>
      <trkpt lat="44.41569" lon="5.24556">
        <ele>563</ele>
        <time>2019-05-04T14:05:54Z</time>
      </trkpt>
      <trkpt lat="44.41557" lon="5.24558">
        <ele>563</ele>
        <time>2019-05-04T14:05:58Z</time>
      </trkpt>
      <trkpt lat="44.41548" lon="5.24556">
        <ele>564</ele>
        <time>2019-05-04T14:06:01Z</time>
      </trkpt>
      <trkpt lat="44.41523" lon="5.24542">
        <ele>565</ele>
        <time>2019-05-04T14:06:14Z</time>
      </trkpt>
      <trkpt lat="44.41513" lon="5.24538">
        <ele>567</ele>
        <time>2019-05-04T14:06:21Z</time>
      </trkpt>
      <trkpt lat="44.41469" lon="5.2454">
        <ele>576</ele>
        <time>2019-05-04T14:06:57Z</time>
      </trkpt>
      <trkpt lat="44.4146" lon="5.24541">
        <ele>578</ele>
        <time>2019-05-04T14:07:04Z</time>
      </trkpt>
      <trkpt lat="44.41451" lon="5.24542">
        <ele>577</ele>
        <time>2019-05-04T14:07:13Z</time>
      </trkpt>
      <trkpt lat="44.41432" lon="5.24538">
        <ele>582</ele>
        <time>2019-05-04T14:07:29Z</time>
      </trkpt>
      <trkpt lat="44.41415" lon="5.24527">
        <ele>584</ele>
        <time>2019-05-04T14:07:46Z</time>
      </trkpt>
      <trkpt lat="44.41407" lon="5.2452">
        <ele>586</ele>
        <time>2019-05-04T14:07:55Z</time>
      </trkpt>
      <trkpt lat="44.41398" lon="5.24507">
        <ele>586</ele>
        <time>2019-05-04T14:08:08Z</time>
      </trkpt>
      <trkpt lat="44.41388" lon="5.24497">
        <ele>586</ele>
        <time>2019-05-04T14:08:19Z</time>
      </trkpt>
      <trkpt lat="44.41372" lon="5.24485">
        <ele>589</ele>
        <time>2019-05-04T14:08:31Z</time>
      </trkpt>
      <trkpt lat="44.41351" lon="5.24475">
        <ele>593</ele>
        <time>2019-05-04T14:08:39Z</time>
      </trkpt>
      <trkpt lat="44.4133" lon="5.24475">
        <ele>593</ele>
        <time>2019-05-04T14:08:47Z</time>
      </trkpt>
      <trkpt lat="44.4132" lon="5.24475">
        <ele>592</ele>
        <time>2019-05-04T14:08:51Z</time>
      </trkpt>
      <trkpt lat="44.41283" lon="5.24453">
        <ele>597</ele>
        <time>2019-05-04T14:09:07Z</time>
      </trkpt>
      <trkpt lat="44.41274" lon="5.24447">
        <ele>597</ele>
        <time>2019-05-04T14:09:11Z</time>
      </trkpt>
      <trkpt lat="44.41265" lon="5.2444">
        <ele>598</ele>
        <time>2019-05-04T14:09:15Z</time>
      </trkpt>
      <trkpt lat="44.41258" lon="5.24431">
        <ele>600</ele>
        <time>2019-05-04T14:09:19Z</time>
      </trkpt>
      <trkpt lat="44.41253" lon="5.24417">
        <ele>600</ele>
        <time>2019-05-04T14:09:23Z</time>
      </trkpt>
      <trkpt lat="44.41246" lon="5.24387">
        <ele>602</ele>
        <time>2019-05-04T14:09:31Z</time>
      </trkpt>
      <trkpt lat="44.41238" lon="5.2436">
        <ele>603</ele>
        <time>2019-05-04T14:09:38Z</time>
      </trkpt>
      <trkpt lat="44.41223" lon="5.24305">
        <ele>607</ele>
        <time>2019-05-04T14:09:53Z</time>
      </trkpt>
      <trkpt lat="44.41218" lon="5.24294">
        <ele>606</ele>
        <time>2019-05-04T14:09:56Z</time>
      </trkpt>
      <trkpt lat="44.41211" lon="5.24285">
        <ele>607</ele>
        <time>2019-05-04T14:09:59Z</time>
      </trkpt>
      <trkpt lat="44.41173" lon="5.24259">
        <ele>604</ele>
        <time>2019-05-04T14:10:11Z</time>
      </trkpt>
      <trkpt lat="44.41164" lon="5.24255">
        <ele>604</ele>
        <time>2019-05-04T14:10:13Z</time>
      </trkpt>
      <trkpt lat="44.41154" lon="5.24249">
        <ele>603</ele>
        <time>2019-05-04T14:10:16Z</time>
      </trkpt>
      <trkpt lat="44.41146" lon="5.24241">
        <ele>602</ele>
        <time>2019-05-04T14:10:20Z</time>
      </trkpt>
      <trkpt lat="44.41136" lon="5.24245">
        <ele>600</ele>
        <time>2019-05-04T14:10:27Z</time>
      </trkpt>
      <trkpt lat="44.41113" lon="5.24254">
        <ele>598</ele>
        <time>2019-05-04T14:10:33Z</time>
      </trkpt>
      <trkpt lat="44.41103" lon="5.24247">
        <ele>595</ele>
        <time>2019-05-04T14:11:08Z</time>
      </trkpt>
      <trkpt lat="44.41095" lon="5.24235">
        <ele>596</ele>
        <time>2019-05-04T14:11:12Z</time>
      </trkpt>
      <trkpt lat="44.41088" lon="5.24223">
        <ele>596</ele>
        <time>2019-05-04T14:11:15Z</time>
      </trkpt>
      <trkpt lat="44.41073" lon="5.24199">
        <ele>594</ele>
        <time>2019-05-04T14:11:21Z</time>
      </trkpt>
      <trkpt lat="44.41066" lon="5.24188">
        <ele>595</ele>
        <time>2019-05-04T14:11:25Z</time>
      </trkpt>
      <trkpt lat="44.4106" lon="5.24174">
        <ele>595</ele>
        <time>2019-05-04T14:11:30Z</time>
      </trkpt>
      <trkpt lat="44.41051" lon="5.24127">
        <ele>595</ele>
        <time>2019-05-04T14:11:50Z</time>
      </trkpt>
      <trkpt lat="44.41064" lon="5.24122">
        <ele>594</ele>
        <time>2019-05-04T14:12:04Z</time>
      </trkpt>
      <trkpt lat="44.41085" lon="5.24134">
        <ele>594</ele>
        <time>2019-05-04T14:12:08Z</time>
      </trkpt>
      <trkpt lat="44.41096" lon="5.24132">
        <ele>593</ele>
        <time>2019-05-04T14:12:10Z</time>
      </trkpt>
      <trkpt lat="44.41114" lon="5.2414">
        <ele>589</ele>
        <time>2019-05-04T14:12:14Z</time>
      </trkpt>
      <trkpt lat="44.41126" lon="5.24141">
        <ele>589</ele>
        <time>2019-05-04T14:12:17Z</time>
      </trkpt>
      <trkpt lat="44.41131" lon="5.2413">
        <ele>585</ele>
        <time>2019-05-04T14:12:25Z</time>
      </trkpt>
      <trkpt lat="44.41141" lon="5.24123">
        <ele>579</ele>
        <time>2019-05-04T14:12:50Z</time>
      </trkpt>
      <trkpt lat="44.41145" lon="5.24105">
        <ele>573</ele>
        <time>2019-05-04T14:13:15Z</time>
      </trkpt>
      <trkpt lat="44.41154" lon="5.24105">
        <ele>570</ele>
        <time>2019-05-04T14:13:38Z</time>
      </trkpt>
      <trkpt lat="44.41163" lon="5.24097">
        <ele>566</ele>
        <time>2019-05-04T14:14:11Z</time>
      </trkpt>
      <trkpt lat="44.41173" lon="5.24088">
        <ele>565</ele>
        <time>2019-05-04T14:14:15Z</time>
      </trkpt>
      <trkpt lat="44.41202" lon="5.24034">
        <ele>558</ele>
        <time>2019-05-04T14:14:31Z</time>
      </trkpt>
      <trkpt lat="44.41205" lon="5.24019">
        <ele>558</ele>
        <time>2019-05-04T14:14:35Z</time>
      </trkpt>
      <trkpt lat="44.4121" lon="5.23931">
        <ele>541</ele>
        <time>2019-05-04T14:14:51Z</time>
      </trkpt>
      <trkpt lat="44.41203" lon="5.23886">
        <ele>535</ele>
        <time>2019-05-04T14:15:00Z</time>
      </trkpt>
      <trkpt lat="44.41203" lon="5.2387">
        <ele>530</ele>
        <time>2019-05-04T14:15:03Z</time>
      </trkpt>
      <trkpt lat="44.4121" lon="5.23796">
        <ele>509</ele>
        <time>2019-05-04T14:15:24Z</time>
      </trkpt>
      <trkpt lat="44.41218" lon="5.23782">
        <ele>505</ele>
        <time>2019-05-04T14:15:29Z</time>
      </trkpt>
      <trkpt lat="44.41225" lon="5.23777">
        <ele>502</ele>
        <time>2019-05-04T14:15:35Z</time>
      </trkpt>
      <trkpt lat="44.41236" lon="5.23775">
        <ele>499</ele>
        <time>2019-05-04T14:16:27Z</time>
      </trkpt>
      <trkpt lat="44.41244" lon="5.23781">
        <ele>499</ele>
        <time>2019-05-04T14:16:32Z</time>
      </trkpt>
      <trkpt lat="44.41252" lon="5.23787">
        <ele>499</ele>
        <time>2019-05-04T14:16:37Z</time>
      </trkpt>
      <trkpt lat="44.41303" lon="5.23772">
        <ele>495</ele>
        <time>2019-05-04T14:16:58Z</time>
      </trkpt>
      <trkpt lat="44.41312" lon="5.23765">
        <ele>497</ele>
        <time>2019-05-04T14:17:08Z</time>
      </trkpt>
      <trkpt lat="44.41321" lon="5.23759">
        <ele>496</ele>
        <time>2019-05-04T14:17:15Z</time>
      </trkpt>
      <trkpt lat="44.41322" lon="5.23747">
        <ele>495</ele>
        <time>2019-05-04T14:17:28Z</time>
      </trkpt>
      <trkpt lat="44.41326" lon="5.23744">
        <ele>499</ele>
        <time>2019-05-04T14:19:57Z</time>
      </trkpt>
      <trkpt lat="44.4132" lon="5.23746">
        <ele>500</ele>
        <time>2019-05-04T14:20:12Z</time>
      </trkpt>
      <trkpt lat="44.41318" lon="5.23757">
        <ele>499</ele>
        <time>2019-05-04T14:20:18Z</time>
      </trkpt>
      <trkpt lat="44.41319" lon="5.23769">
        <ele>497</ele>
        <time>2019-05-04T14:20:50Z</time>
      </trkpt>
      <trkpt lat="44.41309" lon="5.23774">
        <ele>496</ele>
        <time>2019-05-04T14:21:00Z</time>
      </trkpt>
      <trkpt lat="44.41301" lon="5.23766">
        <ele>496</ele>
        <time>2019-05-04T14:21:07Z</time>
      </trkpt>
      <trkpt lat="44.41265" lon="5.23747">
        <ele>500</ele>
        <time>2019-05-04T14:21:46Z</time>
      </trkpt>
      <trkpt lat="44.41273" lon="5.23731">
        <ele>500</ele>
        <time>2019-05-04T14:22:13Z</time>
      </trkpt>
      <trkpt lat="44.41273" lon="5.23718">
        <ele>500</ele>
        <time>2019-05-04T14:22:23Z</time>
      </trkpt>
      <trkpt lat="44.41268" lon="5.23708">
        <ele>500</ele>
        <time>2019-05-04T14:22:36Z</time>
      </trkpt>
      <trkpt lat="44.41265" lon="5.23691">
        <ele>500</ele>
        <time>2019-05-04T14:22:51Z</time>
      </trkpt>
      <trkpt lat="44.41259" lon="5.23659">
        <ele>505</ele>
        <time>2019-05-04T14:23:23Z</time>
      </trkpt>
      <trkpt lat="44.41256" lon="5.2363">
        <ele>509</ele>
        <time>2019-05-04T14:23:54Z</time>
      </trkpt>
      <trkpt lat="44.41249" lon="5.2362">
        <ele>510</ele>
        <time>2019-05-04T14:24:02Z</time>
      </trkpt>
      <trkpt lat="44.41234" lon="5.23603">
        <ele>511</ele>
        <time>2019-05-04T14:24:23Z</time>
      </trkpt>
      <trkpt lat="44.41232" lon="5.23586">
        <ele>513</ele>
        <time>2019-05-04T14:24:41Z</time>
      </trkpt>
      <trkpt lat="44.4123" lon="5.2357">
        <ele>515</ele>
        <time>2019-05-04T14:24:59Z</time>
      </trkpt>
      <trkpt lat="44.4122" lon="5.23559">
        <ele>520</ele>
        <time>2019-05-04T14:25:17Z</time>
      </trkpt>
      <trkpt lat="44.41212" lon="5.23555">
        <ele>520</ele>
        <time>2019-05-04T14:25:25Z</time>
      </trkpt>
      <trkpt lat="44.41201" lon="5.23545">
        <ele>522</ele>
        <time>2019-05-04T14:25:43Z</time>
      </trkpt>
      <trkpt lat="44.4119" lon="5.23527">
        <ele>527</ele>
        <time>2019-05-04T14:26:32Z</time>
      </trkpt>
      <trkpt lat="44.41179" lon="5.23516">
        <ele>531</ele>
        <time>2019-05-04T14:26:51Z</time>
      </trkpt>
      <trkpt lat="44.41169" lon="5.23495">
        <ele>533</ele>
        <time>2019-05-04T14:27:13Z</time>
      </trkpt>
      <trkpt lat="44.41165" lon="5.23481">
        <ele>532</ele>
        <time>2019-05-04T14:27:27Z</time>
      </trkpt>
      <trkpt lat="44.41166" lon="5.23467">
        <ele>534</ele>
        <time>2019-05-04T14:27:39Z</time>
      </trkpt>
      <trkpt lat="44.4116" lon="5.23439">
        <ele>536</ele>
        <time>2019-05-04T14:28:03Z</time>
      </trkpt>
      <trkpt lat="44.41158" lon="5.23427">
        <ele>538</ele>
        <time>2019-05-04T14:28:09Z</time>
      </trkpt>
      <trkpt lat="44.41157" lon="5.23414">
        <ele>538</ele>
        <time>2019-05-04T14:28:16Z</time>
      </trkpt>
      <trkpt lat="44.41151" lon="5.23388">
        <ele>542</ele>
        <time>2019-05-04T14:28:28Z</time>
      </trkpt>
      <trkpt lat="44.41148" lon="5.23373">
        <ele>546</ele>
        <time>2019-05-04T14:29:09Z</time>
      </trkpt>
      <trkpt lat="44.41125" lon="5.23373">
        <ele>556</ele>
        <time>2019-05-04T14:29:41Z</time>
      </trkpt>
      <trkpt lat="44.41115" lon="5.23374">
        <ele>557</ele>
        <time>2019-05-04T14:29:45Z</time>
      </trkpt>
      <trkpt lat="44.4108" lon="5.23381">
        <ele>553</ele>
        <time>2019-05-04T14:29:55Z</time>
      </trkpt>
      <trkpt lat="44.4105" lon="5.23383">
        <ele>557</ele>
        <time>2019-05-04T14:30:07Z</time>
      </trkpt>
      <trkpt lat="44.41038" lon="5.23376">
        <ele>557</ele>
        <time>2019-05-04T14:30:16Z</time>
      </trkpt>
      <trkpt lat="44.41032" lon="5.23365">
        <ele>557</ele>
        <time>2019-05-04T14:30:24Z</time>
      </trkpt>
      <trkpt lat="44.41027" lon="5.23355">
        <ele>560</ele>
        <time>2019-05-04T14:30:31Z</time>
      </trkpt>
      <trkpt lat="44.41019" lon="5.23332">
        <ele>561</ele>
        <time>2019-05-04T14:30:48Z</time>
      </trkpt>
      <trkpt lat="44.41015" lon="5.2332">
        <ele>561</ele>
        <time>2019-05-04T14:30:58Z</time>
      </trkpt>
      <trkpt lat="44.41015" lon="5.23306">
        <ele>560</ele>
        <time>2019-05-04T14:31:17Z</time>
      </trkpt>
      <trkpt lat="44.41023" lon="5.23295">
        <ele>561</ele>
        <time>2019-05-04T14:31:31Z</time>
      </trkpt>
      <trkpt lat="44.41027" lon="5.23284">
        <ele>564</ele>
        <time>2019-05-04T14:31:43Z</time>
      </trkpt>
      <trkpt lat="44.41039" lon="5.23243">
        <ele>568</ele>
        <time>2019-05-04T14:32:29Z</time>
      </trkpt>
      <trkpt lat="44.41047" lon="5.23217">
        <ele>571</ele>
        <time>2019-05-04T14:33:06Z</time>
      </trkpt>
      <trkpt lat="44.41051" lon="5.23187">
        <ele>576</ele>
        <time>2019-05-04T14:33:41Z</time>
      </trkpt>
      <trkpt lat="44.41044" lon="5.23169">
        <ele>577</ele>
        <time>2019-05-04T14:34:14Z</time>
      </trkpt>
      <trkpt lat="44.41041" lon="5.23151">
        <ele>581</ele>
        <time>2019-05-04T14:34:32Z</time>
      </trkpt>
      <trkpt lat="44.41042" lon="5.23126">
        <ele>582</ele>
        <time>2019-05-04T14:34:59Z</time>
      </trkpt>
      <trkpt lat="44.41045" lon="5.23114">
        <ele>585</ele>
        <time>2019-05-04T14:35:07Z</time>
      </trkpt>
      <trkpt lat="44.41036" lon="5.23095">
        <ele>591</ele>
        <time>2019-05-04T14:35:57Z</time>
      </trkpt>
      <trkpt lat="44.41035" lon="5.23055">
        <ele>594</ele>
        <time>2019-05-04T14:36:17Z</time>
      </trkpt>
      <trkpt lat="44.41035" lon="5.23042">
        <ele>596</ele>
        <time>2019-05-04T14:36:23Z</time>
      </trkpt>
      <trkpt lat="44.41031" lon="5.23029">
        <ele>597</ele>
        <time>2019-05-04T14:36:30Z</time>
      </trkpt>
      <trkpt lat="44.41026" lon="5.23018">
        <ele>597</ele>
        <time>2019-05-04T14:36:37Z</time>
      </trkpt>
      <trkpt lat="44.41011" lon="5.2299">
        <ele>599</ele>
        <time>2019-05-04T14:36:51Z</time>
      </trkpt>
      <trkpt lat="44.41005" lon="5.22968">
        <ele>601</ele>
        <time>2019-05-04T14:37:02Z</time>
      </trkpt>
      <trkpt lat="44.41008" lon="5.22955">
        <ele>602</ele>
        <time>2019-05-04T14:37:09Z</time>
      </trkpt>
      <trkpt lat="44.41009" lon="5.22942">
        <ele>603</ele>
        <time>2019-05-04T14:37:16Z</time>
      </trkpt>
      <trkpt lat="44.41013" lon="5.22929">
        <ele>602</ele>
        <time>2019-05-04T14:37:23Z</time>
      </trkpt>
      <trkpt lat="44.41011" lon="5.22876">
        <ele>604</ele>
        <time>2019-05-04T14:37:55Z</time>
      </trkpt>
      <trkpt lat="44.41013" lon="5.22862">
        <ele>605</ele>
        <time>2019-05-04T14:38:01Z</time>
      </trkpt>
      <trkpt lat="44.4101" lon="5.22849">
        <ele>606</ele>
        <time>2019-05-04T14:38:08Z</time>
      </trkpt>
      <trkpt lat="44.41011" lon="5.22823">
        <ele>609</ele>
        <time>2019-05-04T14:38:24Z</time>
      </trkpt>
      <trkpt lat="44.41009" lon="5.22797">
        <ele>614</ele>
        <time>2019-05-04T14:38:42Z</time>
      </trkpt>
      <trkpt lat="44.4101" lon="5.22785">
        <ele>614</ele>
        <time>2019-05-04T14:38:51Z</time>
      </trkpt>
      <trkpt lat="44.41003" lon="5.2277">
        <ele>619</ele>
        <time>2019-05-04T14:39:11Z</time>
      </trkpt>
      <trkpt lat="44.40997" lon="5.22757">
        <ele>621</ele>
        <time>2019-05-04T14:39:29Z</time>
      </trkpt>
      <trkpt lat="44.40982" lon="5.22731">
        <ele>626</ele>
        <time>2019-05-04T14:40:09Z</time>
      </trkpt>
      <trkpt lat="44.40978" lon="5.22716">
        <ele>629</ele>
        <time>2019-05-04T14:40:27Z</time>
      </trkpt>
      <trkpt lat="44.40977" lon="5.22701">
        <ele>630</ele>
        <time>2019-05-04T14:40:45Z</time>
      </trkpt>
      <trkpt lat="44.40969" lon="5.22686">
        <ele>635</ele>
        <time>2019-05-04T14:41:04Z</time>
      </trkpt>
      <trkpt lat="44.40965" lon="5.2267">
        <ele>636</ele>
        <time>2019-05-04T14:41:22Z</time>
      </trkpt>
      <trkpt lat="44.40962" lon="5.22659">
        <ele>638</ele>
        <time>2019-05-04T14:41:34Z</time>
      </trkpt>
      <trkpt lat="44.40953" lon="5.22652">
        <ele>640</ele>
        <time>2019-05-04T14:41:46Z</time>
      </trkpt>
      <trkpt lat="44.40958" lon="5.22635">
        <ele>639</ele>
        <time>2019-05-04T14:42:01Z</time>
      </trkpt>
      <trkpt lat="44.40967" lon="5.22618">
        <ele>642</ele>
        <time>2019-05-04T14:42:20Z</time>
      </trkpt>
      <trkpt lat="44.40974" lon="5.22607">
        <ele>640</ele>
        <time>2019-05-04T14:42:32Z</time>
      </trkpt>
      <trkpt lat="44.40978" lon="5.22586">
        <ele>642</ele>
        <time>2019-05-04T14:42:56Z</time>
      </trkpt>
      <trkpt lat="44.40979" lon="5.22574">
        <ele>644</ele>
        <time>2019-05-04T14:43:03Z</time>
      </trkpt>
      <trkpt lat="44.40977" lon="5.22548">
        <ele>649</ele>
        <time>2019-05-04T14:43:17Z</time>
      </trkpt>
      <trkpt lat="44.40979" lon="5.22532">
        <ele>651</ele>
        <time>2019-05-04T14:43:25Z</time>
      </trkpt>
      <trkpt lat="44.40975" lon="5.22521">
        <ele>652</ele>
        <time>2019-05-04T14:43:32Z</time>
      </trkpt>
      <trkpt lat="44.40966" lon="5.22513">
        <ele>654</ele>
        <time>2019-05-04T14:43:41Z</time>
      </trkpt>
      <trkpt lat="44.40958" lon="5.22503">
        <ele>654</ele>
        <time>2019-05-04T14:43:51Z</time>
      </trkpt>
      <trkpt lat="44.40934" lon="5.22477">
        <ele>660</ele>
        <time>2019-05-04T14:44:11Z</time>
      </trkpt>
      <trkpt lat="44.40925" lon="5.22473">
        <ele>659</ele>
        <time>2019-05-04T14:44:15Z</time>
      </trkpt>
      <trkpt lat="44.40917" lon="5.22465">
        <ele>659</ele>
        <time>2019-05-04T14:44:19Z</time>
      </trkpt>
      <trkpt lat="44.40909" lon="5.22458">
        <ele>666</ele>
        <time>2019-05-04T14:46:27Z</time>
      </trkpt>
      <trkpt lat="44.40894" lon="5.22464">
        <ele>667</ele>
        <time>2019-05-04T14:50:52Z</time>
      </trkpt>
      <trkpt lat="44.40889" lon="5.22452">
        <ele>667</ele>
        <time>2019-05-04T14:51:00Z</time>
      </trkpt>
      <trkpt lat="44.40882" lon="5.22423">
        <ele>666</ele>
        <time>2019-05-04T14:51:10Z</time>
      </trkpt>
      <trkpt lat="44.40889" lon="5.22391">
        <ele>667</ele>
        <time>2019-05-04T14:51:17Z</time>
      </trkpt>
      <trkpt lat="44.4089" lon="5.22377">
        <ele>668</ele>
        <time>2019-05-04T14:51:21Z</time>
      </trkpt>
      <trkpt lat="44.40885" lon="5.22367">
        <ele>668</ele>
        <time>2019-05-04T14:51:28Z</time>
      </trkpt>
      <trkpt lat="44.40884" lon="5.22351">
        <ele>668</ele>
        <time>2019-05-04T14:53:35Z</time>
      </trkpt>
      <trkpt lat="44.40878" lon="5.22342">
        <ele>668</ele>
        <time>2019-05-04T14:53:38Z</time>
      </trkpt>
      <trkpt lat="44.40872" lon="5.22333">
        <ele>667</ele>
        <time>2019-05-04T14:53:41Z</time>
      </trkpt>
      <trkpt lat="44.40867" lon="5.2232">
        <ele>667</ele>
        <time>2019-05-04T14:53:43Z</time>
      </trkpt>
      <trkpt lat="44.40869" lon="5.22257">
        <ele>661</ele>
        <time>2019-05-04T14:53:52Z</time>
      </trkpt>
      <trkpt lat="44.40864" lon="5.22245">
        <ele>659</ele>
        <time>2019-05-04T14:53:56Z</time>
      </trkpt>
      <trkpt lat="44.40859" lon="5.22234">
        <ele>659</ele>
        <time>2019-05-04T14:54:00Z</time>
      </trkpt>
      <trkpt lat="44.4086" lon="5.22219">
        <ele>657</ele>
        <time>2019-05-04T14:54:04Z</time>
      </trkpt>
      <trkpt lat="44.40855" lon="5.22206">
        <ele>650</ele>
        <time>2019-05-04T14:54:36Z</time>
      </trkpt>
      <trkpt lat="44.40846" lon="5.22195">
        <ele>649</ele>
        <time>2019-05-04T14:54:39Z</time>
      </trkpt>
      <trkpt lat="44.40838" lon="5.22183">
        <ele>650</ele>
        <time>2019-05-04T14:54:41Z</time>
      </trkpt>
      <trkpt lat="44.40824" lon="5.22164">
        <ele>652</ele>
        <time>2019-05-04T14:54:45Z</time>
      </trkpt>
      <trkpt lat="44.40815" lon="5.22156">
        <ele>652</ele>
        <time>2019-05-04T14:54:48Z</time>
      </trkpt>
      <trkpt lat="44.40806" lon="5.22149">
        <ele>652</ele>
        <time>2019-05-04T14:54:51Z</time>
      </trkpt>
      <trkpt lat="44.40796" lon="5.22145">
        <ele>652</ele>
        <time>2019-05-04T14:54:54Z</time>
      </trkpt>
      <trkpt lat="44.40787" lon="5.22142">
        <ele>653</ele>
        <time>2019-05-04T14:54:57Z</time>
      </trkpt>
      <trkpt lat="44.40777" lon="5.22142">
        <ele>653</ele>
        <time>2019-05-04T14:55:03Z</time>
      </trkpt>
      <trkpt lat="44.40767" lon="5.22148">
        <ele>653</ele>
        <time>2019-05-04T14:55:09Z</time>
      </trkpt>
      <trkpt lat="44.40753" lon="5.22169">
        <ele>652</ele>
        <time>2019-05-04T14:55:19Z</time>
      </trkpt>
      <trkpt lat="44.40742" lon="5.22177">
        <ele>651</ele>
        <time>2019-05-04T14:55:28Z</time>
      </trkpt>
      <trkpt lat="44.40729" lon="5.22183">
        <ele>653</ele>
        <time>2019-05-04T14:55:52Z</time>
      </trkpt>
      <trkpt lat="44.40725" lon="5.22197">
        <ele>656</ele>
        <time>2019-05-04T14:56:05Z</time>
      </trkpt>
      <trkpt lat="44.40714" lon="5.22212">
        <ele>654</ele>
        <time>2019-05-04T14:56:25Z</time>
      </trkpt>
      <trkpt lat="44.40706" lon="5.22221">
        <ele>655</ele>
        <time>2019-05-04T14:56:30Z</time>
      </trkpt>
      <trkpt lat="44.40698" lon="5.22226">
        <ele>655</ele>
        <time>2019-05-04T14:56:35Z</time>
      </trkpt>
      <trkpt lat="44.40692" lon="5.22238">
        <ele>656</ele>
        <time>2019-05-04T14:56:41Z</time>
      </trkpt>
      <trkpt lat="44.40674" lon="5.22251">
        <ele>656</ele>
        <time>2019-05-04T14:56:53Z</time>
      </trkpt>
      <trkpt lat="44.40664" lon="5.22255">
        <ele>657</ele>
        <time>2019-05-04T14:57:00Z</time>
      </trkpt>
      <trkpt lat="44.40655" lon="5.22259">
        <ele>656</ele>
        <time>2019-05-04T14:57:03Z</time>
      </trkpt>
      <trkpt lat="44.40636" lon="5.22254">
        <ele>657</ele>
        <time>2019-05-04T14:57:09Z</time>
      </trkpt>
      <trkpt lat="44.40626" lon="5.22247">
        <ele>656</ele>
        <time>2019-05-04T14:57:12Z</time>
      </trkpt>
      <trkpt lat="44.40615" lon="5.22242">
        <ele>657</ele>
        <time>2019-05-04T14:57:15Z</time>
      </trkpt>
      <trkpt lat="44.40605" lon="5.22232">
        <ele>655</ele>
        <time>2019-05-04T14:57:18Z</time>
      </trkpt>
      <trkpt lat="44.40596" lon="5.22228">
        <ele>654</ele>
        <time>2019-05-04T14:57:20Z</time>
      </trkpt>
      <trkpt lat="44.40577" lon="5.22215">
        <ele>655</ele>
        <time>2019-05-04T14:57:25Z</time>
      </trkpt>
      <trkpt lat="44.40569" lon="5.22208">
        <ele>654</ele>
        <time>2019-05-04T14:57:28Z</time>
      </trkpt>
      <trkpt lat="44.4056" lon="5.22199">
        <ele>654</ele>
        <time>2019-05-04T14:57:31Z</time>
      </trkpt>
      <trkpt lat="44.40551" lon="5.22195">
        <ele>654</ele>
        <time>2019-05-04T14:57:35Z</time>
      </trkpt>
      <trkpt lat="44.40522" lon="5.22183">
        <ele>653</ele>
        <time>2019-05-04T14:57:44Z</time>
      </trkpt>
      <trkpt lat="44.40512" lon="5.22175">
        <ele>653</ele>
        <time>2019-05-04T14:57:47Z</time>
      </trkpt>
      <trkpt lat="44.40502" lon="5.22167">
        <ele>653</ele>
        <time>2019-05-04T14:57:50Z</time>
      </trkpt>
      <trkpt lat="44.40493" lon="5.2216">
        <ele>652</ele>
        <time>2019-05-04T14:57:53Z</time>
      </trkpt>
      <trkpt lat="44.40486" lon="5.2215">
        <ele>651</ele>
        <time>2019-05-04T14:57:57Z</time>
      </trkpt>
      <trkpt lat="44.40477" lon="5.22142">
        <ele>651</ele>
        <time>2019-05-04T14:58:01Z</time>
      </trkpt>
      <trkpt lat="44.40468" lon="5.22134">
        <ele>652</ele>
        <time>2019-05-04T14:58:05Z</time>
      </trkpt>
      <trkpt lat="44.40473" lon="5.22119">
        <ele>655</ele>
        <time>2019-05-04T14:59:08Z</time>
      </trkpt>
      <trkpt lat="44.40482" lon="5.22113">
        <ele>655</ele>
        <time>2019-05-04T14:59:10Z</time>
      </trkpt>
      <trkpt lat="44.40489" lon="5.22106">
        <ele>655</ele>
        <time>2019-05-04T14:59:12Z</time>
      </trkpt>
      <trkpt lat="44.40494" lon="5.22095">
        <ele>653</ele>
        <time>2019-05-04T14:59:15Z</time>
      </trkpt>
      <trkpt lat="44.40493" lon="5.22083">
        <ele>650</ele>
        <time>2019-05-04T14:59:18Z</time>
      </trkpt>
      <trkpt lat="44.40487" lon="5.22073">
        <ele>649</ele>
        <time>2019-05-04T14:59:21Z</time>
      </trkpt>
      <trkpt lat="44.40461" lon="5.22034">
        <ele>648</ele>
        <time>2019-05-04T14:59:29Z</time>
      </trkpt>
      <trkpt lat="44.40453" lon="5.22019">
        <ele>648</ele>
        <time>2019-05-04T14:59:31Z</time>
      </trkpt>
      <trkpt lat="44.4044" lon="5.21992">
        <ele>644</ele>
        <time>2019-05-04T14:59:35Z</time>
      </trkpt>
      <trkpt lat="44.40434" lon="5.21978">
        <ele>644</ele>
        <time>2019-05-04T14:59:37Z</time>
      </trkpt>
      <trkpt lat="44.40414" lon="5.21967">
        <ele>634</ele>
        <time>2019-05-04T15:00:04Z</time>
      </trkpt>
      <trkpt lat="44.40403" lon="5.21961">
        <ele>634</ele>
        <time>2019-05-04T15:00:24Z</time>
      </trkpt>
      <trkpt lat="44.40387" lon="5.21934">
        <ele>632</ele>
        <time>2019-05-04T15:00:31Z</time>
      </trkpt>
      <trkpt lat="44.4038" lon="5.21921">
        <ele>631</ele>
        <time>2019-05-04T15:00:33Z</time>
      </trkpt>
      <trkpt lat="44.40373" lon="5.21907">
        <ele>630</ele>
        <time>2019-05-04T15:00:35Z</time>
      </trkpt>
      <trkpt lat="44.40366" lon="5.21896">
        <ele>631</ele>
        <time>2019-05-04T15:00:37Z</time>
      </trkpt>
      <trkpt lat="44.4034" lon="5.21867">
        <ele>621</ele>
        <time>2019-05-04T15:00:45Z</time>
      </trkpt>
      <trkpt lat="44.40328" lon="5.21837">
        <ele>618</ele>
        <time>2019-05-04T15:00:48Z</time>
      </trkpt>
      <trkpt lat="44.40321" lon="5.21832">
        <ele>616</ele>
        <time>2019-05-04T15:00:53Z</time>
      </trkpt>
      <trkpt lat="44.40316" lon="5.2182">
        <ele>614</ele>
        <time>2019-05-04T15:00:56Z</time>
      </trkpt>
      <trkpt lat="44.40306" lon="5.21774">
        <ele>608</ele>
        <time>2019-05-04T15:01:05Z</time>
      </trkpt>
      <trkpt lat="44.40304" lon="5.21756">
        <ele>608</ele>
        <time>2019-05-04T15:01:08Z</time>
      </trkpt>
      <trkpt lat="44.40302" lon="5.21743">
        <ele>604</ele>
        <time>2019-05-04T15:01:10Z</time>
      </trkpt>
      <trkpt lat="44.403" lon="5.21732">
        <ele>602</ele>
        <time>2019-05-04T15:01:13Z</time>
      </trkpt>
      <trkpt lat="44.40309" lon="5.21722">
        <ele>575</ele>
        <time>2019-05-04T15:01:53Z</time>
      </trkpt>
      <trkpt lat="44.40302" lon="5.2171">
        <ele>569</ele>
        <time>2019-05-04T15:02:46Z</time>
      </trkpt>
      <trkpt lat="44.40288" lon="5.21687">
        <ele>566</ele>
        <time>2019-05-04T15:02:52Z</time>
      </trkpt>
      <trkpt lat="44.40272" lon="5.21664">
        <ele>564</ele>
        <time>2019-05-04T15:02:58Z</time>
      </trkpt>
      <trkpt lat="44.40262" lon="5.21659">
        <ele>564</ele>
        <time>2019-05-04T15:03:01Z</time>
      </trkpt>
      <trkpt lat="44.40239" lon="5.21657">
        <ele>563</ele>
        <time>2019-05-04T15:03:05Z</time>
      </trkpt>
      <trkpt lat="44.4023" lon="5.21655">
        <ele>563</ele>
        <time>2019-05-04T15:03:07Z</time>
      </trkpt>
      <trkpt lat="44.40217" lon="5.21655">
        <ele>562</ele>
        <time>2019-05-04T15:03:20Z</time>
      </trkpt>
      <trkpt lat="44.40219" lon="5.21637">
        <ele>558</ele>
        <time>2019-05-04T15:03:30Z</time>
      </trkpt>
      <trkpt lat="44.40227" lon="5.21624">
        <ele>556</ele>
        <time>2019-05-04T15:03:34Z</time>
      </trkpt>
      <trkpt lat="44.40232" lon="5.2161">
        <ele>554</ele>
        <time>2019-05-04T15:03:37Z</time>
      </trkpt>
      <trkpt lat="44.40233" lon="5.21597">
        <ele>554</ele>
        <time>2019-05-04T15:03:39Z</time>
      </trkpt>
      <trkpt lat="44.40234" lon="5.21578">
        <ele>554</ele>
        <time>2019-05-04T15:03:41Z</time>
      </trkpt>
      <trkpt lat="44.40232" lon="5.21546">
        <ele>550</ele>
        <time>2019-05-04T15:03:46Z</time>
      </trkpt>
      <trkpt lat="44.40238" lon="5.21533">
        <ele>549</ele>
        <time>2019-05-04T15:03:48Z</time>
      </trkpt>
      <trkpt lat="44.40242" lon="5.21521">
        <ele>546</ele>
        <time>2019-05-04T15:03:51Z</time>
      </trkpt>
      <trkpt lat="44.40239" lon="5.21525">
        <ele>540</ele>
        <time>2019-05-04T15:04:14Z</time>
      </trkpt>
      <trkpt lat="44.40261" lon="5.21515">
        <ele>539</ele>
        <time>2019-05-04T15:04:29Z</time>
      </trkpt>
      <trkpt lat="44.4027" lon="5.21512">
        <ele>539</ele>
        <time>2019-05-04T15:04:32Z</time>
      </trkpt>
      <trkpt lat="44.40278" lon="5.21501">
        <ele>538</ele>
        <time>2019-05-04T15:04:35Z</time>
      </trkpt>
      <trkpt lat="44.40272" lon="5.21489">
        <ele>537</ele>
        <time>2019-05-04T15:04:36Z</time>
      </trkpt>
      <trkpt lat="44.40275" lon="5.21475">
        <ele>537</ele>
        <time>2019-05-04T15:04:38Z</time>
      </trkpt>
      <trkpt lat="44.40254" lon="5.21469">
        <ele>536</ele>
        <time>2019-05-04T15:04:40Z</time>
      </trkpt>
      <trkpt lat="44.40245" lon="5.21468">
        <ele>535</ele>
        <time>2019-05-04T15:04:41Z</time>
      </trkpt>
      <trkpt lat="44.40236" lon="5.21465">
        <ele>536</ele>
        <time>2019-05-04T15:04:42Z</time>
      </trkpt>
      <trkpt lat="44.40227" lon="5.21458">
        <ele>531</ele>
        <time>2019-05-04T15:04:47Z</time>
      </trkpt>
      <trkpt lat="44.40237" lon="5.21434">
        <ele>529</ele>
        <time>2019-05-04T15:04:53Z</time>
      </trkpt>
      <trkpt lat="44.40275" lon="5.21392">
        <ele>529</ele>
        <time>2019-05-04T15:05:01Z</time>
      </trkpt>
      <trkpt lat="44.40295" lon="5.21375">
        <ele>528</ele>
        <time>2019-05-04T15:05:06Z</time>
      </trkpt>
      <trkpt lat="44.40316" lon="5.21366">
        <ele>526</ele>
        <time>2019-05-04T15:05:10Z</time>
      </trkpt>
      <trkpt lat="44.40337" lon="5.21365">
        <ele>524</ele>
        <time>2019-05-04T15:05:14Z</time>
      </trkpt>
      <trkpt lat="44.40355" lon="5.21364">
        <ele>523</ele>
        <time>2019-05-04T15:05:16Z</time>
      </trkpt>
      <trkpt lat="44.40379" lon="5.21347">
        <ele>521</ele>
        <time>2019-05-04T15:05:20Z</time>
      </trkpt>
      <trkpt lat="44.40386" lon="5.21341">
        <ele>519</ele>
        <time>2019-05-04T15:05:22Z</time>
      </trkpt>
      <trkpt lat="44.40438" lon="5.2129">
        <ele>512</ele>
        <time>2019-05-04T15:05:32Z</time>
      </trkpt>
      <trkpt lat="44.40443" lon="5.2127">
        <ele>509</ele>
        <time>2019-05-04T15:05:36Z</time>
      </trkpt>
      <trkpt lat="44.40441" lon="5.21257">
        <ele>508</ele>
        <time>2019-05-04T15:05:38Z</time>
      </trkpt>
      <trkpt lat="44.40415" lon="5.21223">
        <ele>505</ele>
        <time>2019-05-04T15:05:43Z</time>
      </trkpt>
      <trkpt lat="44.40386" lon="5.21196">
        <ele>500</ele>
        <time>2019-05-04T15:05:47Z</time>
      </trkpt>
      <trkpt lat="44.4037" lon="5.2118">
        <ele>500</ele>
        <time>2019-05-04T15:05:49Z</time>
      </trkpt>
      <trkpt lat="44.40363" lon="5.21169">
        <ele>498</ele>
        <time>2019-05-04T15:05:51Z</time>
      </trkpt>
      <trkpt lat="44.4036" lon="5.21155">
        <ele>498</ele>
        <time>2019-05-04T15:05:53Z</time>
      </trkpt>
      <trkpt lat="44.40361" lon="5.21141">
        <ele>497</ele>
        <time>2019-05-04T15:05:55Z</time>
      </trkpt>
      <trkpt lat="44.40372" lon="5.21121">
        <ele>497</ele>
        <time>2019-05-04T15:05:57Z</time>
      </trkpt>
      <trkpt lat="44.40389" lon="5.21097">
        <ele>494</ele>
        <time>2019-05-04T15:05:59Z</time>
      </trkpt>
      <trkpt lat="44.40415" lon="5.21074">
        <ele>491</ele>
        <time>2019-05-04T15:06:03Z</time>
      </trkpt>
      <trkpt lat="44.40426" lon="5.21061">
        <ele>489</ele>
        <time>2019-05-04T15:06:05Z</time>
      </trkpt>
      <trkpt lat="44.40422" lon="5.21036">
        <ele>485</ele>
        <time>2019-05-04T15:06:08Z</time>
      </trkpt>
      <trkpt lat="44.40348" lon="5.21023">
        <ele>479</ele>
        <time>2019-05-04T15:06:15Z</time>
      </trkpt>
      <trkpt lat="44.40336" lon="5.2102">
        <ele>477</ele>
        <time>2019-05-04T15:06:16Z</time>
      </trkpt>
      <trkpt lat="44.40326" lon="5.21016">
        <ele>477</ele>
        <time>2019-05-04T15:06:17Z</time>
      </trkpt>
      <trkpt lat="44.40286" lon="5.21007">
        <ele>473</ele>
        <time>2019-05-04T15:06:20Z</time>
      </trkpt>
      <trkpt lat="44.40252" lon="5.2101">
        <ele>470</ele>
        <time>2019-05-04T15:06:23Z</time>
      </trkpt>
      <trkpt lat="44.40241" lon="5.21014">
        <ele>468</ele>
        <time>2019-05-04T15:06:24Z</time>
      </trkpt>
      <trkpt lat="44.40218" lon="5.21035">
        <ele>457</ele>
        <time>2019-05-04T15:06:30Z</time>
      </trkpt>
      <trkpt lat="44.40225" lon="5.21021">
        <ele>455</ele>
        <time>2019-05-04T15:06:50Z</time>
      </trkpt>
      <trkpt lat="44.40232" lon="5.21012">
        <ele>458</ele>
        <time>2019-05-04T15:06:57Z</time>
      </trkpt>
      <trkpt lat="44.4024" lon="5.21">
        <ele>456</ele>
        <time>2019-05-04T15:07:03Z</time>
      </trkpt>
      <trkpt lat="44.40246" lon="5.2101">
        <ele>455</ele>
        <time>2019-05-04T15:08:00Z</time>
      </trkpt>
      <trkpt lat="44.40254" lon="5.21">
        <ele>449</ele>
        <time>2019-05-04T15:08:15Z</time>
      </trkpt>
      <trkpt lat="44.40263" lon="5.20986">
        <ele>449</ele>
        <time>2019-05-04T15:08:18Z</time>
      </trkpt>
      <trkpt lat="44.40275" lon="5.20961">
        <ele>446</ele>
        <time>2019-05-04T15:08:22Z</time>
      </trkpt>
      <trkpt lat="44.40283" lon="5.20949">
        <ele>446</ele>
        <time>2019-05-04T15:08:24Z</time>
      </trkpt>
      <trkpt lat="44.40281" lon="5.20931">
        <ele>445</ele>
        <time>2019-05-04T15:08:27Z</time>
      </trkpt>
      <trkpt lat="44.4028" lon="5.20914">
        <ele>444</ele>
        <time>2019-05-04T15:08:30Z</time>
      </trkpt>
      <trkpt lat="44.40285" lon="5.20902">
        <ele>441</ele>
        <time>2019-05-04T15:08:34Z</time>
      </trkpt>
      <trkpt lat="44.40275" lon="5.2089">
        <ele>440</ele>
        <time>2019-05-04T15:08:38Z</time>
      </trkpt>
      <trkpt lat="44.40268" lon="5.20861">
        <ele>437</ele>
        <time>2019-05-04T15:08:44Z</time>
      </trkpt>
      <trkpt lat="44.40261" lon="5.20845">
        <ele>433</ele>
        <time>2019-05-04T15:08:47Z</time>
      </trkpt>
      <trkpt lat="44.40236" lon="5.20809">
        <ele>427</ele>
        <time>2019-05-04T15:08:53Z</time>
      </trkpt>
      <trkpt lat="44.40227" lon="5.20812">
        <ele>420</ele>
        <time>2019-05-04T15:08:56Z</time>
      </trkpt>
      <trkpt lat="44.40217" lon="5.20799">
        <ele>416</ele>
        <time>2019-05-04T15:08:59Z</time>
      </trkpt>
      <trkpt lat="44.40211" lon="5.20788">
        <ele>413</ele>
        <time>2019-05-04T15:09:04Z</time>
      </trkpt>
      <trkpt lat="44.40216" lon="5.2076">
        <ele>406</ele>
        <time>2019-05-04T15:09:10Z</time>
      </trkpt>
      <trkpt lat="44.40215" lon="5.20746">
        <ele>403</ele>
        <time>2019-05-04T15:09:13Z</time>
      </trkpt>
      <trkpt lat="44.40208" lon="5.20736">
        <ele>400</ele>
        <time>2019-05-04T15:09:20Z</time>
      </trkpt>
      <trkpt lat="44.40216" lon="5.20721">
        <ele>395</ele>
        <time>2019-05-04T15:09:44Z</time>
      </trkpt>
      <trkpt lat="44.40204" lon="5.20714">
        <ele>394</ele>
        <time>2019-05-04T15:09:57Z</time>
      </trkpt>
      <trkpt lat="44.40192" lon="5.20714">
        <ele>392</ele>
        <time>2019-05-04T15:10:00Z</time>
      </trkpt>
      <trkpt lat="44.40182" lon="5.20711">
        <ele>391</ele>
        <time>2019-05-04T15:10:03Z</time>
      </trkpt>
      <trkpt lat="44.40172" lon="5.20704">
        <ele>389</ele>
        <time>2019-05-04T15:10:06Z</time>
      </trkpt>
      <trkpt lat="44.40157" lon="5.20697">
        <ele>388</ele>
        <time>2019-05-04T15:10:14Z</time>
      </trkpt>
      <trkpt lat="44.40143" lon="5.20692">
        <ele>386</ele>
        <time>2019-05-04T15:10:16Z</time>
      </trkpt>
      <trkpt lat="44.40129" lon="5.20674">
        <ele>382</ele>
        <time>2019-05-04T15:10:24Z</time>
      </trkpt>
      <trkpt lat="44.40126" lon="5.20661">
        <ele>379</ele>
        <time>2019-05-04T15:10:40Z</time>
      </trkpt>
      <trkpt lat="44.40131" lon="5.20645">
        <ele>380</ele>
        <time>2019-05-04T15:10:48Z</time>
      </trkpt>
      <trkpt lat="44.40143" lon="5.20599">
        <ele>379</ele>
        <time>2019-05-04T15:10:53Z</time>
      </trkpt>
      <trkpt lat="44.40145" lon="5.20578">
        <ele>377</ele>
        <time>2019-05-04T15:10:55Z</time>
      </trkpt>
      <trkpt lat="44.40142" lon="5.20565">
        <ele>376</ele>
        <time>2019-05-04T15:10:56Z</time>
      </trkpt>
      <trkpt lat="44.40155" lon="5.20485">
        <ele>372</ele>
        <time>2019-05-04T15:11:01Z</time>
      </trkpt>
      <trkpt lat="44.40179" lon="5.20424">
        <ele>369</ele>
        <time>2019-05-04T15:11:04Z</time>
      </trkpt>
      <trkpt lat="44.40185" lon="5.20411">
        <ele>370</ele>
        <time>2019-05-04T15:11:06Z</time>
      </trkpt>
      <trkpt lat="44.40191" lon="5.20396">
        <ele>368</ele>
        <time>2019-05-04T15:11:08Z</time>
      </trkpt>
      <trkpt lat="44.40196" lon="5.20384">
        <ele>368</ele>
        <time>2019-05-04T15:11:09Z</time>
      </trkpt>
      <trkpt lat="44.40206" lon="5.20356">
        <ele>366</ele>
        <time>2019-05-04T15:11:13Z</time>
      </trkpt>
      <trkpt lat="44.40224" lon="5.2034">
        <ele>363</ele>
        <time>2019-05-04T15:11:17Z</time>
      </trkpt>
      <trkpt lat="44.40233" lon="5.20328">
        <ele>363</ele>
        <time>2019-05-04T15:11:19Z</time>
      </trkpt>
      <trkpt lat="44.40236" lon="5.20257">
        <ele>357</ele>
        <time>2019-05-04T15:11:26Z</time>
      </trkpt>
      <trkpt lat="44.40235" lon="5.20244">
        <ele>356</ele>
        <time>2019-05-04T15:11:28Z</time>
      </trkpt>
      <trkpt lat="44.40248" lon="5.20239">
        <ele>357</ele>
        <time>2019-05-04T15:11:29Z</time>
      </trkpt>
      <trkpt lat="44.40259" lon="5.20235">
        <ele>357</ele>
        <time>2019-05-04T15:11:31Z</time>
      </trkpt>
      <trkpt lat="44.4027" lon="5.20231">
        <ele>357</ele>
        <time>2019-05-04T15:11:33Z</time>
      </trkpt>
      <trkpt lat="44.40281" lon="5.20228">
        <ele>358</ele>
        <time>2019-05-04T15:11:36Z</time>
      </trkpt>
      <trkpt lat="44.40291" lon="5.20225">
        <ele>356</ele>
        <time>2019-05-04T15:11:39Z</time>
      </trkpt>
      <trkpt lat="44.40307" lon="5.20224">
        <ele>356</ele>
        <time>2019-05-04T15:11:45Z</time>
      </trkpt>
      <trkpt lat="44.4032" lon="5.20231">
        <ele>356</ele>
        <time>2019-05-04T15:11:49Z</time>
      </trkpt>
      <trkpt lat="44.40327" lon="5.20238">
        <ele>357</ele>
        <time>2019-05-04T15:11:52Z</time>
      </trkpt>
      <trkpt lat="44.40335" lon="5.20248">
        <ele>356</ele>
        <time>2019-05-04T15:11:56Z</time>
      </trkpt>
      <trkpt lat="44.40361" lon="5.20245">
        <ele>354</ele>
        <time>2019-05-04T15:12:00Z</time>
      </trkpt>
      <trkpt lat="44.40374" lon="5.20225">
        <ele>352</ele>
        <time>2019-05-04T15:12:05Z</time>
      </trkpt>
      <trkpt lat="44.40387" lon="5.20227">
        <ele>352</ele>
        <time>2019-05-04T15:12:12Z</time>
      </trkpt>
      <trkpt lat="44.40395" lon="5.20234">
        <ele>351</ele>
        <time>2019-05-04T15:12:14Z</time>
      </trkpt>
      <trkpt lat="44.4042" lon="5.20254">
        <ele>354</ele>
        <time>2019-05-04T15:12:23Z</time>
      </trkpt>
      <trkpt lat="44.40428" lon="5.20261">
        <ele>352</ele>
        <time>2019-05-04T15:12:26Z</time>
      </trkpt>
      <trkpt lat="44.40441" lon="5.20265">
        <ele>351</ele>
        <time>2019-05-04T15:12:29Z</time>
      </trkpt>
      <trkpt lat="44.40451" lon="5.20274">
        <ele>352</ele>
        <time>2019-05-04T15:12:32Z</time>
      </trkpt>
      <trkpt lat="44.40462" lon="5.20281">
        <ele>351</ele>
        <time>2019-05-04T15:12:35Z</time>
      </trkpt>
      <trkpt lat="44.40473" lon="5.20287">
        <ele>351</ele>
        <time>2019-05-04T15:12:38Z</time>
      </trkpt>
      <trkpt lat="44.4053" lon="5.20294">
        <ele>349</ele>
        <time>2019-05-04T15:12:51Z</time>
      </trkpt>
      <trkpt lat="44.4054" lon="5.20295">
        <ele>350</ele>
        <time>2019-05-04T15:12:54Z</time>
      </trkpt>
      <trkpt lat="44.40561" lon="5.203">
        <ele>348</ele>
        <time>2019-05-04T15:13:00Z</time>
      </trkpt>
      <trkpt lat="44.40603" lon="5.2031">
        <ele>349</ele>
        <time>2019-05-04T15:13:13Z</time>
      </trkpt>
      <trkpt lat="44.40613" lon="5.20309">
        <ele>350</ele>
        <time>2019-05-04T15:13:16Z</time>
      </trkpt>
      <trkpt lat="44.40622" lon="5.20307">
        <ele>350</ele>
        <time>2019-05-04T15:13:19Z</time>
      </trkpt>
      <trkpt lat="44.40632" lon="5.20302">
        <ele>348</ele>
        <time>2019-05-04T15:13:23Z</time>
      </trkpt>
      <trkpt lat="44.4064" lon="5.20293">
        <ele>348</ele>
        <time>2019-05-04T15:13:26Z</time>
      </trkpt>
      <trkpt lat="44.40651" lon="5.20265">
        <ele>348</ele>
        <time>2019-05-04T15:13:32Z</time>
      </trkpt>
      <trkpt lat="44.40654" lon="5.20253">
        <ele>349</ele>
        <time>2019-05-04T15:13:34Z</time>
      </trkpt>
      <trkpt lat="44.40659" lon="5.20235">
        <ele>349</ele>
        <time>2019-05-04T15:13:35Z</time>
      </trkpt>
      <trkpt lat="44.40661" lon="5.20224">
        <ele>348</ele>
        <time>2019-05-04T15:13:39Z</time>
      </trkpt>
      <trkpt lat="44.40669" lon="5.20212">
        <ele>348</ele>
        <time>2019-05-04T15:13:42Z</time>
      </trkpt>
      <trkpt lat="44.4069" lon="5.202">
        <ele>350</ele>
        <time>2019-05-04T15:13:48Z</time>
      </trkpt>
      <trkpt lat="44.407" lon="5.20195">
        <ele>349</ele>
        <time>2019-05-04T15:13:51Z</time>
      </trkpt>
      <trkpt lat="44.4071" lon="5.20187">
        <ele>350</ele>
        <time>2019-05-04T15:13:55Z</time>
      </trkpt>
      <trkpt lat="44.40717" lon="5.20176">
        <ele>349</ele>
        <time>2019-05-04T15:13:59Z</time>
      </trkpt>
      <trkpt lat="44.40721" lon="5.20164">
        <ele>350</ele>
        <time>2019-05-04T15:14:03Z</time>
      </trkpt>
      <trkpt lat="44.4072" lon="5.20134">
        <ele>353</ele>
        <time>2019-05-04T15:14:11Z</time>
      </trkpt>
      <trkpt lat="44.40719" lon="5.2011">
        <ele>351</ele>
        <time>2019-05-04T15:14:22Z</time>
      </trkpt>
      <trkpt lat="44.40726" lon="5.201">
        <ele>350</ele>
        <time>2019-05-04T15:14:26Z</time>
      </trkpt>
      <trkpt lat="44.40738" lon="5.20086">
        <ele>351</ele>
        <time>2019-05-04T15:14:30Z</time>
      </trkpt>
      <trkpt lat="44.40744" lon="5.20079">
        <ele>350</ele>
        <time>2019-05-04T15:14:37Z</time>
      </trkpt>
      <trkpt lat="44.40763" lon="5.20091">
        <ele>352</ele>
        <time>2019-05-04T15:14:45Z</time>
      </trkpt>
      <trkpt lat="44.40794" lon="5.201">
        <ele>354</ele>
        <time>2019-05-04T15:14:54Z</time>
      </trkpt>
      <trkpt lat="44.40803" lon="5.20104">
        <ele>354</ele>
        <time>2019-05-04T15:14:57Z</time>
      </trkpt>
      <trkpt lat="44.40812" lon="5.20106">
        <ele>354</ele>
        <time>2019-05-04T15:15:00Z</time>
      </trkpt>
      <trkpt lat="44.40842" lon="5.20121">
        <ele>358</ele>
        <time>2019-05-04T15:15:10Z</time>
      </trkpt>
      <trkpt lat="44.40851" lon="5.20124">
        <ele>358</ele>
        <time>2019-05-04T15:15:14Z</time>
      </trkpt>
      <trkpt lat="44.40862" lon="5.20127">
        <ele>359</ele>
        <time>2019-05-04T15:15:18Z</time>
      </trkpt>
      <trkpt lat="44.40873" lon="5.20132">
        <ele>358</ele>
        <time>2019-05-04T15:15:22Z</time>
      </trkpt>
      <trkpt lat="44.40883" lon="5.20135">
        <ele>358</ele>
        <time>2019-05-04T15:15:25Z</time>
      </trkpt>
      <trkpt lat="44.40904" lon="5.2014">
        <ele>357</ele>
        <time>2019-05-04T15:15:32Z</time>
      </trkpt>
      <trkpt lat="44.40913" lon="5.20144">
        <ele>358</ele>
        <time>2019-05-04T15:15:35Z</time>
      </trkpt>
      <trkpt lat="44.40923" lon="5.20149">
        <ele>358</ele>
        <time>2019-05-04T15:15:38Z</time>
      </trkpt>
      <trkpt lat="44.40934" lon="5.20153">
        <ele>357</ele>
        <time>2019-05-04T15:15:41Z</time>
      </trkpt>
      <trkpt lat="44.40945" lon="5.20157">
        <ele>358</ele>
        <time>2019-05-04T15:15:44Z</time>
      </trkpt>
      <trkpt lat="44.40956" lon="5.20165">
        <ele>357</ele>
        <time>2019-05-04T15:15:47Z</time>
      </trkpt>
      <trkpt lat="44.40987" lon="5.20176">
        <ele>357</ele>
        <time>2019-05-04T15:15:56Z</time>
      </trkpt>
      <trkpt lat="44.40996" lon="5.20178">
        <ele>356</ele>
        <time>2019-05-04T15:15:59Z</time>
      </trkpt>
      <trkpt lat="44.41004" lon="5.20183">
        <ele>356</ele>
        <time>2019-05-04T15:16:02Z</time>
      </trkpt>
      <trkpt lat="44.41015" lon="5.20188">
        <ele>357</ele>
        <time>2019-05-04T15:16:06Z</time>
      </trkpt>
      <trkpt lat="44.41025" lon="5.2019">
        <ele>358</ele>
        <time>2019-05-04T15:16:09Z</time>
      </trkpt>
      <trkpt lat="44.41036" lon="5.20191">
        <ele>358</ele>
        <time>2019-05-04T15:16:12Z</time>
      </trkpt>
      <trkpt lat="44.41046" lon="5.20189">
        <ele>359</ele>
        <time>2019-05-04T15:16:15Z</time>
      </trkpt>
      <trkpt lat="44.41055" lon="5.20179">
        <ele>359</ele>
        <time>2019-05-04T15:16:19Z</time>
      </trkpt>
      <trkpt lat="44.41064" lon="5.20145">
        <ele>362</ele>
        <time>2019-05-04T15:16:25Z</time>
      </trkpt>
      <trkpt lat="44.41068" lon="5.20129">
        <ele>363</ele>
        <time>2019-05-04T15:16:28Z</time>
      </trkpt>
      <trkpt lat="44.41076" lon="5.20106">
        <ele>362</ele>
        <time>2019-05-04T15:16:32Z</time>
      </trkpt>
      <trkpt lat="44.41084" lon="5.20076">
        <ele>361</ele>
        <time>2019-05-04T15:16:38Z</time>
      </trkpt>
      <trkpt lat="44.41088" lon="5.20061">
        <ele>361</ele>
        <time>2019-05-04T15:16:41Z</time>
      </trkpt>
      <trkpt lat="44.41091" lon="5.20048">
        <ele>361</ele>
        <time>2019-05-04T15:16:43Z</time>
      </trkpt>
      <trkpt lat="44.41098" lon="5.20022">
        <ele>362</ele>
        <time>2019-05-04T15:16:47Z</time>
      </trkpt>
      <trkpt lat="44.41103" lon="5.20012">
        <ele>361</ele>
        <time>2019-05-04T15:16:49Z</time>
      </trkpt>
      <trkpt lat="44.41122" lon="5.19991">
        <ele>360</ele>
        <time>2019-05-04T15:16:53Z</time>
      </trkpt>
      <trkpt lat="44.41176" lon="5.19944">
        <ele>361</ele>
        <time>2019-05-04T15:17:07Z</time>
      </trkpt>
      <trkpt lat="44.41195" lon="5.1993">
        <ele>363</ele>
        <time>2019-05-04T15:17:12Z</time>
      </trkpt>
      <trkpt lat="44.41204" lon="5.19926">
        <ele>363</ele>
        <time>2019-05-04T15:17:14Z</time>
      </trkpt>
      <trkpt lat="44.41217" lon="5.19924">
        <ele>363</ele>
        <time>2019-05-04T15:17:17Z</time>
      </trkpt>
      <trkpt lat="44.41238" lon="5.19905">
        <ele>365</ele>
        <time>2019-05-04T15:17:23Z</time>
      </trkpt>
      <trkpt lat="44.41256" lon="5.19865">
        <ele>368</ele>
        <time>2019-05-04T15:17:31Z</time>
      </trkpt>
      <trkpt lat="44.41264" lon="5.19834">
        <ele>368</ele>
        <time>2019-05-04T15:17:37Z</time>
      </trkpt>
      <trkpt lat="44.41269" lon="5.19794">
        <ele>372</ele>
        <time>2019-05-04T15:17:43Z</time>
      </trkpt>
      <trkpt lat="44.41272" lon="5.19778">
        <ele>372</ele>
        <time>2019-05-04T15:17:46Z</time>
      </trkpt>
      <trkpt lat="44.41273" lon="5.19761">
        <ele>372</ele>
        <time>2019-05-04T15:17:49Z</time>
      </trkpt>
      <trkpt lat="44.41274" lon="5.19747">
        <ele>373</ele>
        <time>2019-05-04T15:17:51Z</time>
      </trkpt>
      <trkpt lat="44.41281" lon="5.19718">
        <ele>370</ele>
        <time>2019-05-04T15:17:55Z</time>
      </trkpt>
      <trkpt lat="44.41293" lon="5.19697">
        <ele>372</ele>
        <time>2019-05-04T15:17:59Z</time>
      </trkpt>
      <trkpt lat="44.41301" lon="5.19686">
        <ele>373</ele>
        <time>2019-05-04T15:18:02Z</time>
      </trkpt>
      <trkpt lat="44.4131" lon="5.19681">
        <ele>373</ele>
        <time>2019-05-04T15:18:05Z</time>
      </trkpt>
      <trkpt lat="44.4132" lon="5.1968">
        <ele>372</ele>
        <time>2019-05-04T15:18:08Z</time>
      </trkpt>
      <trkpt lat="44.41339" lon="5.19677">
        <ele>374</ele>
        <time>2019-05-04T15:18:15Z</time>
      </trkpt>
      <trkpt lat="44.4139" lon="5.19645">
        <ele>378</ele>
        <time>2019-05-04T15:18:30Z</time>
      </trkpt>
      <trkpt lat="44.41401" lon="5.19635">
        <ele>378</ele>
        <time>2019-05-04T15:18:33Z</time>
      </trkpt>
      <trkpt lat="44.41408" lon="5.19621">
        <ele>380</ele>
        <time>2019-05-04T15:18:36Z</time>
      </trkpt>
      <trkpt lat="44.41415" lon="5.1961">
        <ele>378</ele>
        <time>2019-05-04T15:18:39Z</time>
      </trkpt>
      <trkpt lat="44.41422" lon="5.19594">
        <ele>378</ele>
        <time>2019-05-04T15:18:42Z</time>
      </trkpt>
      <trkpt lat="44.41422" lon="5.19581">
        <ele>379</ele>
        <time>2019-05-04T15:18:44Z</time>
      </trkpt>
      <trkpt lat="44.4142" lon="5.19555">
        <ele>378</ele>
        <time>2019-05-04T15:18:48Z</time>
      </trkpt>
      <trkpt lat="44.41417" lon="5.19542">
        <ele>379</ele>
        <time>2019-05-04T15:18:51Z</time>
      </trkpt>
      <trkpt lat="44.41421" lon="5.19528">
        <ele>379</ele>
        <time>2019-05-04T15:18:53Z</time>
      </trkpt>
      <trkpt lat="44.41425" lon="5.19515">
        <ele>380</ele>
        <time>2019-05-04T15:18:56Z</time>
      </trkpt>
      <trkpt lat="44.41432" lon="5.19497">
        <ele>379</ele>
        <time>2019-05-04T15:18:58Z</time>
      </trkpt>
      <trkpt lat="44.41437" lon="5.19485">
        <ele>380</ele>
        <time>2019-05-04T15:19:01Z</time>
      </trkpt>
      <trkpt lat="44.41447" lon="5.19475">
        <ele>380</ele>
        <time>2019-05-04T15:19:04Z</time>
      </trkpt>
      <trkpt lat="44.41467" lon="5.19473">
        <ele>377</ele>
        <time>2019-05-04T15:19:08Z</time>
      </trkpt>
      <trkpt lat="44.41476" lon="5.19474">
        <ele>377</ele>
        <time>2019-05-04T15:19:10Z</time>
      </trkpt>
      <trkpt lat="44.41486" lon="5.19476">
        <ele>378</ele>
        <time>2019-05-04T15:19:12Z</time>
      </trkpt>
      <trkpt lat="44.41498" lon="5.19472">
        <ele>379</ele>
        <time>2019-05-04T15:19:15Z</time>
      </trkpt>
      <trkpt lat="44.41508" lon="5.19471">
        <ele>380</ele>
        <time>2019-05-04T15:19:18Z</time>
      </trkpt>
      <trkpt lat="44.41517" lon="5.19468">
        <ele>380</ele>
        <time>2019-05-04T15:19:20Z</time>
      </trkpt>
      <trkpt lat="44.41528" lon="5.19469">
        <ele>381</ele>
        <time>2019-05-04T15:19:24Z</time>
      </trkpt>
      <trkpt lat="44.41551" lon="5.19464">
        <ele>381</ele>
        <time>2019-05-04T15:19:30Z</time>
      </trkpt>
      <trkpt lat="44.41572" lon="5.19461">
        <ele>380</ele>
        <time>2019-05-04T15:19:35Z</time>
      </trkpt>
      <trkpt lat="44.41582" lon="5.19462">
        <ele>381</ele>
        <time>2019-05-04T15:19:37Z</time>
      </trkpt>
      <trkpt lat="44.41603" lon="5.1945">
        <ele>383</ele>
        <time>2019-05-04T15:19:43Z</time>
      </trkpt>
      <trkpt lat="44.41624" lon="5.19414">
        <ele>388</ele>
        <time>2019-05-04T15:19:52Z</time>
      </trkpt>
      <trkpt lat="44.41635" lon="5.19392">
        <ele>388</ele>
        <time>2019-05-04T15:19:58Z</time>
      </trkpt>
      <trkpt lat="44.41636" lon="5.19398">
        <ele>382</ele>
        <time>2019-05-04T15:21:23Z</time>
      </trkpt>
      <trkpt lat="44.41645" lon="5.19394">
        <ele>382</ele>
        <time>2019-05-04T15:21:41Z</time>
      </trkpt>
    </trkseg>
  </trk>
</gpx>